[[[{"header":{"parameterUnit":"kt","parameterCategory":2,"dx":1,"dy":1,"la1":29.285339999999998,"la2":30.599998999999997,"lo1":-89.70041500000002,"lo2":-87.6738589999976,"nx":112,"ny":82,"refTime":"2022-10-20T12:00:00:Z","depth":0,"parameterNumber":1,"parameterNumberName":"U-component_of_WINDS"},"data":[-7.4869,-7.8143,0.0,-6.446,-6.3812,0.0,-4.8215,0.0,0.0,0.0,0.0,0.0,0.0,0.0,0.0,0.0,0.0,0.0,0.0,0.0,0.0,0.0,0.0,0.0,0.0,0.0,0.0,0.0,0.0,0.0,0.0,0.0,-7.8744,-7.7702,-7.6825,-7.6244,-7.5914,-7.5081,-7.5683,-7.7719,-7.5817,-7.5572,-7.6794,-7.6539,-7.6339,-7.6218,-7.6918,-7.6087,-7.418,-7.254,-7.0414,-6.8009,-6.6552,-6.5646,-6.5225,-6.5264,-6.3765,-6.1614,-6.1035,-6.1354,-6.1976,-6.1728,-6.1099,-6.0612,-6.1106,-6.0764,-6.022,-6.022,-6.017,-5.9885,-5.8767,-5.832,-5.7548,-5.5187,-5.2766,-5.0486,-4.859,-4.6652,-4.5176,-4.4707,-4.4413,-4.4378,-4.4707,-4.3581,-4.28,-4.3462,-4.2125,-4.069,-3.9859,-3.8684,-3.7639,-3.6909,-3.6214,-3.5598,-3.5051,-3.2349,-3.0131,-2.8684,-2.6268,-2.4494,-2.3574,-2.3333,-2.2895,-2.235,-2.235,-2.2107,-2.1605,-1.9869,-1.807,-1.6268,-1.4072,-1.2462,0.0,0.0,-7.287,-5.6446,0.0,0.0,0.0,0.0,0.0,0.0,0.0,0.0,0.0,0.0,0.0,0.0,0.0,0.0,0.0,0.0,0.0,0.0,0.0,0.0,0.0,0.0,0.0,0.0,0.0,0.0,0.0,-7.9805,-7.8872,-7.7552,-7.6567,-7.5595,-7.4634,-7.4183,-7.4959,-7.6827,-7.5549,-7.5392,-7.6195,-7.6003,-7.5808,-7.5631,-7.6816,-7.6771,-7.5688,-7.3912,-7.2017,-7.0054,-6.7884,-6.6674,-6.6041,-6.6237,-6.4973,-6.3071,-6.2138,-6.2128,-6.2465,-6.181,-6.1561,-6.142,-6.1252,-6.1252,-6.1166,-6.0997,-6.0799,-6.0515,-6.0056,-5.9477,-5.8549,-5.6951,-5.4361,-5.1744,-4.9959,-4.7662,-4.5814,-4.521,-4.4707,-4.459,-4.5176,-4.4413,-4.3844,-4.4082,-4.2777,-4.1575,-4.1061,-3.9526,-3.8216,-3.7578,-3.6735,-3.5992,-3.5579,-3.3556,-3.1494,-2.9399,-2.694,-2.5066,-2.3859,-2.3634,-2.3197,-2.2592,-2.2532,-2.2251,-2.1665,-2.0265,-1.8584,-1.6671,-1.4856,-1.3541,0.0,0.0,0.0,-4.6969,0.0,0.0,0.0,0.0,-4.2386,0.0,0.0,0.0,0.0,0.0,0.0,0.0,0.0,0.0,0.0,0.0,0.0,0.0,0.0,0.0,0.0,0.0,0.0,0.0,0.0,0.0,-8.1092,-8.036,-7.8597,-7.6949,-7.5696,-7.4673,-7.3911,-7.3167,-7.4111,-7.6518,-7.526,-7.4813,-7.5021,-7.4759,-7.4493,-7.4402,-7.5664,-7.609,-7.5754,-7.434,-7.2583,-7.071,-6.9264,-6.7731,-6.6384,-6.6384,-6.6449,-6.6418,-6.5194,-6.4108,-6.304,-6.1663,-6.1502,-6.1784,-6.1364,-6.1252,-6.1252,-6.1252,-6.0799,-6.0372,-6.0742,-6.0343,-5.9651,-5.8689,-5.6447,-5.383,-5.1667,-4.8901,-4.6624,-4.5699,-4.5234,-4.4918,-4.4918,-4.4918,-4.4742,-4.42,-4.3629,-4.2679,-4.1268,-3.9943,-3.8747,-3.7642,-3.6994,-3.6299,-3.5644,-3.5579,-3.4218,-3.0953,-2.794,-2.5733,-2.4383,-2.3859,-2.3272,-2.2592,-2.2592,-2.2038,-2.0994,-2.0747,-1.9251,-1.675,-1.6461,-1.5439,-5.6403,0.0,0.0,0.0,0.0,0.0,0.0,0.0,0.0,0.0,0.0,0.0,0.0,0.0,0.0,0.0,0.0,0.0,0.0,0.0,0.0,0.0,0.0,0.0,0.0,0.0,0.0,0.0,0.0,0.0,-7.7943,-7.7366,-7.6264,-7.5314,-7.5583,-7.5412,-7.4704,-7.527,-7.5493,-7.5426,-7.5372,-7.5128,-7.4736,-7.4671,-7.5148,-7.6136,-7.6141,-7.6746,-7.7523,-7.5915,-7.4279,-7.2695,-7.0868,-6.925,-6.7977,-6.7977,-6.6575,-6.4822,-6.5567,-6.3764,-6.1066,-6.0949,-6.1718,-6.2465,-6.1502,-6.1252,-6.1252,-6.1252,-6.111,-6.0884,-6.0486,-6.0515,-6.02,-5.8604,-5.6431,-5.4255,-5.2459,-4.9641,-4.7276,-4.6851,-4.5962,-4.5351,-4.5351,-4.5351,-4.5176,-4.4742,-4.42,-4.3545,-4.2679,-4.1329,-4.0006,-3.881,-3.7791,-3.6844,-3.5926,-3.571,-3.4542,-3.2137,-2.9255,-2.7082,-2.5733,-2.4681,-2.3859,-2.3257,-2.2774,-2.2158,-2.1416,-2.0678,-1.9427,-1.7691,-1.6971,-1.6254,0.0,0.0,0.0,0.0,0.0,0.0,-4.2222,0.0,-4.0756,0.0,0.0,0.0,0.0,0.0,0.0,0.0,0.0,0.0,0.0,0.0,0.0,0.0,0.0,0.0,0.0,0.0,0.0,0.0,0.0,-6.9177,-7.8852,-7.8227,-7.7368,-7.6942,-7.7881,-7.7728,-7.6456,-7.6764,-7.6513,-7.5697,-7.5512,-7.5214,-7.4911,-7.4725,-7.5427,-7.669,-7.6505,-7.7181,-7.8247,-7.6651,-7.5059,-7.3537,-7.2452,-7.1103,-6.9763,-6.8918,-6.7474,-6.6003,-6.6723,-6.5072,-6.2566,-6.2337,-6.1945,-6.1525,-6.1055,-6.085,-6.0773,-6.1133,-6.1252,-6.1166,-6.0742,-6.0855,-6.0682,-5.9511,-5.7863,-5.5951,-5.3922,-5.1424,-4.9302,-4.8165,-4.6995,-4.625,-4.6364,-4.6192,-4.5847,-4.521,-4.4555,-4.3927,-4.3269,-4.1904,-4.065,-3.9589,-3.845,-3.7426,-3.667,-3.6234,-3.5213,-3.3293,-3.1036,-2.9278,-2.7977,-2.637,-2.48,-2.3318,-2.3303,-2.2535,-2.0892,-2.0428,-1.9525,-1.8133,-1.763,-1.7075,0.0,0.0,0.0,0.0,-4.5814,0.0,0.0,0.0,0.0,0.0,0.0,0.0,0.0,0.0,0.0,0.0,0.0,0.0,0.0,0.0,0.0,0.0,0.0,0.0,0.0,0.0,-7.6476,-8.4495,-7.4581,-7.2297,-8.1672,-8.1148,-8.0426,-8.0093,-8.1146,-8.0782,-7.8746,-7.8133,-7.7532,-7.6878,-7.5806,-7.5266,-7.518,-7.47,-7.526,-7.6631,-7.6536,-7.7216,-7.8344,-7.6992,-7.5463,-7.3992,-7.3992,-7.3104,-7.1578,-6.9653,-6.8906,-6.8783,-6.8133,-6.7056,-6.5731,-6.4871,-6.2601,-6.0228,-6.0746,-6.0501,-6.0265,-6.1152,-6.1308,-6.1252,-6.1252,-6.1252,-6.1166,-6.0941,-5.9786,-5.8046,-5.5533,-5.3563,-5.167,-4.953,-4.8197,-4.7501,-4.7809,-4.7276,-4.6567,-4.5757,-4.4849,-4.3963,-4.3329,-4.2087,-4.096,-4.0237,-3.9043,-3.8088,-3.7514,-3.6994,-3.595,-3.4208,-3.2916,-3.1595,-3.0264,-2.8401,-2.6103,-2.3363,-2.3919,-2.2901,-2.0176,-2.019,-1.9604,-1.8548,-1.8376,-1.779,0.0,0.0,0.0,0.0,0.0,-4.4008,0.0,0.0,0.0,0.0,0.0,0.0,0.0,0.0,0.0,0.0,0.0,0.0,0.0,0.0,0.0,0.0,0.0,0.0,0.0,-8.6079,-8.498,-8.3548,-8.127,-8.0079,-8.0487,-8.1799,-8.1758,-8.0129,-8.1502,-8.1853,-8.0995,-8.0892,-8.0182,-7.8901,-7.7684,-7.6387,-7.5017,-7.3884,-7.4686,-7.6839,-7.5346,-7.6378,-7.892,-7.8241,-7.7043,-7.5708,-7.5708,-7.4724,-7.309,-7.1521,-7.0691,-7.0176,-6.89,-6.728,-6.5911,-6.7084,-6.5422,-6.3056,-6.3353,-6.2016,-6.0668,-6.1947,-6.178,-6.1252,-6.1252,-6.1252,-6.1252,-6.1166,-5.9286,-5.7199,-5.6158,-5.3384,-5.0872,-5.0201,-4.9125,-4.8579,-4.9234,-4.7976,-4.6794,-4.6624,-4.5558,-4.459,-4.4022,-4.3222,-4.2231,-4.096,-4.0174,-3.9106,-3.7642,-3.7405,-3.6164,-3.3439,-3.3024,-3.1834,-2.951,-2.902,-2.7797,-2.5658,-2.4515,-2.3091,-2.1244,-2.0454,-2.0072,-2.0122,-1.8842,-1.8145,0.0,0.0,0.0,-4.2454,0.0,0.0,0.0,0.0,0.0,0.0,0.0,0.0,0.0,0.0,0.0,0.0,0.0,0.0,0.0,0.0,0.0,0.0,0.0,0.0,-8.9623,-9.016,-8.8981,-8.5151,-8.383,-8.3013,-8.2618,-8.3559,-8.3662,-8.2743,-8.4187,-8.4391,-8.3206,-8.3002,-8.2128,-8.0529,-7.8586,-7.7221,-7.633,-7.4496,-7.4996,-7.72,-7.6307,-7.7052,-7.8887,-7.8649,-7.8061,-7.719,-7.6496,-7.5581,-7.4471,-7.2347,-7.1389,-7.0933,-6.9448,-6.8157,-6.7182,-6.7316,-6.617,-6.4421,-6.2798,-6.1686,-6.1136,-6.1419,-6.1392,-6.1252,-6.1252,-6.1252,-6.1252,-6.1252,-6.0208,-5.8685,-5.7009,-5.5216,-5.3388,-5.158,-5.0597,-5.0066,-5.0225,-4.8826,-4.7526,-4.6964,-4.5905,-4.4942,-4.4224,-4.3868,-4.3102,-4.1781,-4.096,-4.009,-3.8874,-3.7983,-3.673,-3.4818,-3.3669,-3.223,-3.0502,-2.9609,-2.8852,-2.8108,-2.6756,-2.4931,-2.2711,-2.1558,-2.0799,-2.0341,-1.8946,-1.8297,0.0,0.0,0.0,0.0,0.0,0.0,-4.4093,-4.5316,-4.9,0.0,0.0,0.0,0.0,0.0,0.0,0.0,0.0,0.0,0.0,0.0,0.0,0.0,0.0,0.0,-9.0805,-9.1923,-9.1294,-8.8024,-8.5954,-8.5123,-8.5734,-8.5675,-8.5675,-8.5797,-8.6929,-8.677,-8.525,-8.4911,-8.3855,-8.2053,-7.9659,-7.8245,-7.7676,-7.5514,-7.5435,-7.7026,-7.709,-7.7692,-7.8561,-7.8706,-7.8697,-7.8502,-7.7105,-7.6486,-7.6014,-7.3334,-7.2215,-7.171,-7.0197,-6.9242,-6.8539,-6.7409,-6.644,-6.521,-6.2029,-6.1424,-6.164,-6.0492,-6.0597,-6.1126,-6.1332,-6.1364,-6.1252,-6.1252,-6.1048,-6.015,-5.759,-5.6844,-5.5821,-5.2866,-5.1998,-5.1611,-5.1017,-4.9772,-4.8524,-4.7332,-4.6364,-4.5409,-4.4496,-4.426,-4.3701,-4.2656,-4.1759,-4.096,-4.0299,-3.8874,-3.7423,-3.6106,-3.4419,-3.2827,-3.1388,-3.0143,-2.9595,-2.9955,-2.8873,-2.6979,-2.4148,-2.3452,-2.2262,-2.0557,-1.9164,-1.8399,0.0,0.0,0.0,0.0,0.0,0.0,-6.2103,-6.4563,-6.7317,0.0,0.0,0.0,0.0,0.0,0.0,0.0,0.0,0.0,0.0,0.0,0.0,0.0,0.0,0.0,-9.4296,-9.4346,-9.3656,-9.1825,-9.1046,-8.981,-8.7987,-8.7575,-8.7385,-8.7417,-8.7565,-8.7439,-8.7001,-8.6967,-8.5874,-8.3719,-8.1985,-7.9977,-7.7715,-7.6143,-7.5365,-7.5186,-7.5489,-7.6568,-7.8055,-7.8521,-7.9041,-7.9471,-7.845,-7.8115,-7.7836,-7.6014,-7.4537,-7.3222,-7.182,-7.0317,-6.908,-6.8915,-6.7704,-6.5823,-6.3836,-6.2959,-6.2165,-5.9761,-5.9798,-6.0799,-6.1817,-6.1669,-6.1252,-6.1252,-6.0322,-5.8964,-5.7038,-5.5807,-5.4601,-5.3094,-5.2786,-5.2455,-5.1583,-5.062,-4.9611,-4.8524,-4.7414,-4.6339,-4.5433,-4.4614,-4.4082,-4.3903,-4.2777,-4.1759,-4.096,-4.0215,-3.8342,-3.4987,-3.4743,-3.3403,-3.0278,-3.0277,-3.0219,-2.9955,-2.9367,-2.773,-2.4934,-2.6448,-2.538,-2.1895,-2.0144,-1.8918,0.0,0.0,0.0,0.0,0.0,0.0,0.0,-6.2801,0.0,0.0,0.0,0.0,0.0,0.0,0.0,0.0,0.0,0.0,0.0,0.0,0.0,0.0,0.0,0.0,0.0,-9.5811,-9.5208,-9.2656,-9.2747,-9.2138,-9.0276,-8.9666,-8.9419,-8.9476,-8.933,-8.8709,-8.7514,-8.7416,-8.6893,-8.5875,-8.3244,-8.1408,-8.0255,-7.7615,-7.6535,-7.6701,-7.5825,-7.6553,-7.84,-7.8654,-7.9047,-7.9565,-7.9287,-7.8711,-7.7954,-7.6537,-7.5567,-7.457,-7.2314,-7.113,-7.0394,-6.9496,-6.8642,-6.7475,-6.4838,-6.4267,-6.3765,-6.0216,-5.9925,-6.0764,-6.1088,-6.1497,-6.1699,-6.1364,-6.0816,-5.9802,-5.7639,-5.6718,-5.6047,-5.4722,-5.3604,-5.2757,-5.2405,-5.117,-5.0066,-4.9584,-4.8443,-4.7328,-4.6421,-4.5765,-4.5069,-4.42,-4.3665,-4.3041,-4.2292,-4.1128,-3.9585,-3.7756,-3.5627,-3.3701,-3.2136,-3.1055,-3.0521,-3.0501,-3.0125,-2.9089,-2.7478,-2.7775,-2.6694,-2.4232,-2.1258,-1.9422,-3.6863,0.0,0.0,0.0,0.0,0.0,0.0,0.0,0.0,0.0,0.0,0.0,0.0,0.0,0.0,0.0,0.0,0.0,0.0,0.0,0.0,0.0,0.0,0.0,0.0,0.0,0.0,0.0,-9.3826,-9.3614,-9.2286,-9.1377,-9.0857,-9.07,-9.0003,-8.9174,-8.8288,-8.8158,-8.7846,-8.7282,-8.4826,-8.3155,-8.2191,-7.9156,-7.7843,-7.79,-7.6256,-7.6553,-7.8254,-7.8477,-7.8986,-7.9545,-7.961,-7.9161,-7.8292,-7.7204,-7.6387,-7.5553,-7.3096,-7.1931,-7.1294,-6.9693,-6.8904,-6.8073,-6.5233,-6.4525,-6.3963,-6.0293,-5.9952,-6.058,-6.016,-6.0867,-6.1724,-6.1637,-6.1391,-6.0641,-5.8487,-5.7783,-5.7056,-5.5375,-5.402,-5.3036,-5.2858,-5.1896,-5.0937,-5.0331,-4.9369,-4.8278,-4.7108,-4.663,-4.5913,-4.4649,-4.4319,-4.4022,-4.3425,-4.2132,-4.0775,-3.9379,-3.6702,-3.4528,-3.3079,-3.168,-3.0971,-3.0822,-3.0709,-3.0287,-2.9539,-2.848,-2.7237,-2.5781,-2.2468,-2.0157,0.0,0.0,0.0,0.0,0.0,0.0,0.0,0.0,0.0,0.0,0.0,0.0,0.0,0.0,0.0,0.0,0.0,0.0,0.0,0.0,0.0,0.0,0.0,0.0,0.0,0.0,0.0,0.0,-9.5055,-9.4665,-9.3852,-9.2478,-9.1351,-9.0614,-8.8634,-8.8271,-8.9707,-8.9743,-8.8953,-8.7481,-8.7247,-8.5462,-8.2348,-8.062,-7.8991,-7.7498,-7.6314,-7.625,-7.7072,-7.7833,-7.876,-7.9666,-7.9545,-7.9565,-7.9517,-7.8583,-7.7388,-7.6,-7.448,-7.2891,-7.1294,-6.9693,-6.829,-6.6759,-6.4906,-6.3403,-6.1831,-5.941,-5.9489,-6.0054,-5.9158,-5.9716,-6.084,-6.2223,-6.1891,-6.0874,-5.9534,-5.8312,-5.6794,-5.4203,-5.3679,-5.3453,-5.2957,-5.3065,-5.2534,-5.065,-5.0172,-4.9369,-4.7501,-4.6995,-4.6453,-4.555,-4.4884,-4.4437,-4.4165,-4.3425,-4.1645,-3.8201,-3.8125,-3.6104,-3.1534,-3.1898,-3.1677,-3.054,-3.0765,-3.0746,-3.0482,-2.8822,-2.7261,-2.5806,-2.3635,-2.151,-4.3898,0.0,0.0,0.0,0.0,0.0,0.0,0.0,0.0,0.0,0.0,0.0,0.0,0.0,0.0,0.0,0.0,0.0,0.0,0.0,0.0,0.0,0.0,0.0,0.0,0.0,0.0,0.0,0.0,0.0,-9.6225,-9.5579,-9.4503,-9.295,-9.1978,-9.0942,-8.9815,-8.9815,-8.9528,-8.8989,-8.7918,-8.6778,-8.5533,-8.2785,-8.0652,-7.9027,-7.7602,-7.7109,-7.7342,-7.7353,-7.85,-8.0197,-8.0071,-8.0131,-8.0277,-7.9824,-7.9056,-7.7981,-7.6121,-7.4467,-7.2936,-7.1374,-6.9922,-6.8471,-6.7062,-6.598,-6.4799,-6.3189,-6.2589,-6.2488,-6.2587,-6.2618,-6.2754,-6.3041,-6.2598,-6.1493,-5.9153,-5.836,-5.7698,-5.6437,-5.4843,-5.3601,-5.3404,-5.3185,-5.2836,-5.2383,-5.1429,-5.0409,-4.9423,-4.8689,-4.7805,-4.651,-4.597,-4.5534,-4.5084,-4.426,-4.2932,-4.1011,-3.9436,-3.7614,-3.553,-3.3731,-3.2663,-3.2444,-3.1601,-3.1119,-3.0987,-2.9333,-2.8094,-2.7223,-2.4603,-2.2908,0.0,0.0,0.0,-6.8491,0.0,0.0,0.0,0.0,0.0,0.0,0.0,0.0,0.0,0.0,0.0,0.0,0.0,0.0,0.0,0.0,0.0,0.0,0.0,0.0,0.0,0.0,0.0,0.0,0.0,-9.6927,-9.7364,-9.671,-9.5605,-9.4073,-9.3762,-9.2431,-8.9913,-9.0387,-9.0387,-8.988,-8.9484,-8.8628,-8.7344,-8.4625,-8.2133,-7.9906,-7.8902,-7.8152,-7.7616,-7.7306,-7.7987,-7.9273,-8.0039,-8.0412,-8.055,-8.0726,-8.0287,-7.9396,-7.7534,-7.5999,-7.448,-7.2465,-7.1176,-7.0019,-6.8279,-6.7045,-6.5956,-6.4452,-6.3583,-6.3233,-6.3483,-6.3853,-6.4049,-6.3641,-6.3461,-6.2725,-6.0326,-5.9284,-5.85,-5.736,-5.5505,-5.4025,-5.3737,-5.3355,-5.3136,-5.3136,-5.2326,-5.1405,-5.0491,-4.9853,-4.8853,-4.7164,-4.6687,-4.6199,-4.555,-4.4849,-4.3838,-4.2505,-4.0587,-3.8869,-3.7422,-3.5059,-3.3621,-3.3296,-3.23,-3.1712,-3.1656,-3.0054,-2.8886,-2.8056,-2.5619,-2.416,0.0,-5.681,0.0,-7.8002,0.0,0.0,0.0,0.0,0.0,0.0,-8.8363,0.0,0.0,0.0,0.0,0.0,0.0,0.0,0.0,0.0,0.0,0.0,0.0,0.0,0.0,0.0,0.0,0.0,-9.6694,-9.6283,-9.7376,-9.602,-9.4838,-9.4099,-9.4035,-9.2799,-9.0212,-9.1495,-9.1461,-9.0153,-9.1665,-9.0765,-8.7741,-8.603,-8.3465,-8.0375,-8.0303,-7.9337,-7.7869,-7.7652,-7.7409,-7.7345,-7.9484,-8.0249,-8.0342,-8.1263,-8.1045,-8.0111,-7.8733,-7.7379,-7.5829,-7.3071,-7.2013,-7.1242,-6.8542,-6.6713,-6.5269,-6.3557,-6.2819,-6.2473,-6.2132,-6.3534,-6.4863,-6.4162,-6.4402,-6.4429,-6.2907,-6.1217,-5.9294,-5.7024,-5.5803,-5.4831,-5.3891,-5.3708,-5.3502,-5.2986,-5.2886,-5.2304,-5.0702,-5.0439,-4.9611,-4.7612,-4.7108,-4.6592,-4.5641,-4.5151,-4.4281,-4.2733,-4.1621,-3.9918,-3.7408,-3.6003,-3.4639,-3.3209,-3.2924,-3.2616,-3.232,-3.0882,-2.9524,-2.8326,-2.6683,-2.5143,0.0,0.0,-8.0157,-8.9529,-9.0552,-8.975,0.0,0.0,-8.7603,0.0,-8.7695,-8.7975,-8.8571,0.0,0.0,0.0,0.0,0.0,0.0,0.0,0.0,0.0,0.0,0.0,0.0,0.0,0.0,0.0,-9.7859,-9.7675,-9.7957,-9.7408,-9.6893,-9.6486,-9.6098,-9.4933,-9.2931,-9.2497,-9.2068,-9.157,-9.0951,-9.0225,-8.9361,-8.7745,-8.5914,-8.394,-8.2753,-8.1326,-7.9698,-7.8263,-7.8356,-7.9232,-7.8587,-7.8827,-7.9658,-8.0675,-8.0718,-8.0244,-7.9857,-7.8814,-7.7397,-7.587,-7.3859,-7.1902,-7.1173,-6.9192,-6.7141,-6.6695,-6.5687,-6.4817,-6.5317,-6.5834,-6.634,-6.6726,-6.6485,-6.5867,-6.4818,-6.4192,-6.3042,-6.0137,-5.7978,-5.6306,-5.5293,-5.4468,-5.3796,-5.3502,-5.3107,-5.2736,-5.2304,-5.1457,-5.0595,-4.9665,-4.8524,-4.747,-4.6567,-4.579,-4.471,-4.3269,-4.22,-4.0944,-3.9486,-3.7526,-3.6107,-3.5222,-3.4746,-3.4051,-3.3133,-3.1506,-2.9925,-2.8377,-2.7234,-2.6128,-6.0385,-7.3852,-8.6473,0.0,-9.4133,-9.2702,-9.2397,0.0,-8.824,-8.8036,-8.8025,-8.8249,-8.8906,-8.9068,0.0,0.0,0.0,0.0,0.0,0.0,0.0,0.0,0.0,0.0,0.0,0.0,0.0,0.0,-9.8464,-9.829,-9.8172,-9.8021,-9.7824,-9.757,-9.7278,-9.6468,-9.509,-9.3842,-9.326,-9.3395,-9.1845,-9.0729,-8.9937,-8.8489,-8.7363,-8.6457,-8.4773,-8.2737,-8.0494,-7.9375,-7.9004,-7.9025,-7.8785,-7.9031,-7.9734,-8.0991,-8.1069,-8.0666,-8.1397,-8.0425,-7.8746,-7.7866,-7.5625,-7.3161,-7.284,-7.0558,-6.7964,-6.741,-6.6378,-6.5501,-6.5419,-6.6111,-6.6919,-6.7251,-6.7185,-6.6945,-6.6451,-6.6143,-6.5185,-6.2639,-5.9847,-5.7474,-5.6443,-5.5018,-5.3972,-5.3845,-5.3453,-5.3107,-5.2936,-5.2275,-5.1508,-5.0439,-4.9504,-4.8498,-4.7526,-4.6592,-4.5745,-4.4952,-4.3051,-4.1702,-4.1089,-3.8642,-3.701,-3.6396,-3.6084,-3.5433,-3.4382,-3.2682,-3.0867,-2.9051,-2.8097,-2.6867,0.0,0.0,-8.5802,0.0,-9.4688,-9.3268,0.0,0.0,-8.9599,0.0,-8.8817,-8.9095,-8.9121,-8.9209,-8.9636,-9.077,0.0,0.0,0.0,0.0,0.0,0.0,0.0,0.0,0.0,0.0,0.0,0.0,-9.8664,-9.8463,-9.8274,-9.8212,-9.8085,-9.7809,-9.7824,-9.7472,-9.6767,-9.5342,-9.4739,-9.4906,-9.3374,-9.1696,-8.9973,-8.8621,-8.7999,-8.7927,-8.6354,-8.3914,-8.0972,-8.0853,-7.9596,-7.791,-7.9235,-7.954,-7.9455,-8.102,-8.1233,-8.0963,-8.2513,-8.1858,-8.0223,-7.9459,-7.7425,-7.5021,-7.4018,-7.1575,-6.8771,-6.7174,-6.619,-6.5406,-6.4323,-6.5329,-6.6646,-6.6796,-6.7299,-6.7662,-6.7603,-6.7195,-6.6449,-6.4919,-6.1864,-5.9227,-5.8173,-5.6056,-5.4391,-5.4147,-5.3923,-5.3552,-5.3086,-5.2986,-5.2354,-5.086,-5.0172,-4.945,-4.8469,-4.7582,-4.6964,-4.6851,-4.3977,-4.2295,-4.2163,-3.937,-3.7625,-3.7216,-3.7062,-3.6626,-3.5777,-3.4105,-3.2197,-3.0104,-2.9039,-2.7573,0.0,0.0,-8.6571,-9.6139,-9.732,0.0,-9.3884,-9.2206,-9.0677,-8.9207,-8.9158,-8.9389,-8.9479,-8.9536,-8.9583,-8.9724,-9.1173,0.0,0.0,0.0,0.0,0.0,0.0,0.0,0.0,0.0,0.0,0.0,0.0,-9.8698,-9.8644,-9.8537,-9.8351,-9.8097,-9.8106,-9.7935,-9.758,-9.6896,-9.58,-9.4394,-9.3444,-9.1946,-8.9937,-8.8421,-8.7701,-8.7701,-8.7643,-8.5725,-8.2736,-8.2617,-8.0739,-7.791,-7.8108,-7.7284,-7.624,-7.7774,-7.907,-8.0194,-8.1034,-8.1939,-8.2574,-8.1183,-7.9588,-7.7794,-7.5732,-7.3951,-7.2,-6.8945,-6.726,-6.6181,-6.5673,-6.4918,-6.4895,-6.7086,-6.7782,-6.7823,-6.7298,-6.7588,-6.7714,-6.7025,-6.5339,-6.368,-6.2638,-5.9416,-5.6364,-5.4584,-5.434,-5.4195,-5.3874,-5.3433,-5.2986,-5.2455,-5.1093,-5.0012,-4.9558,-4.8579,-4.7664,-4.6882,-4.4439,-4.2724,-4.2217,-3.9708,-3.8409,-3.8558,-3.7903,-3.7267,-3.6678,-3.5214,-3.3331,-3.1006,-2.9895,-2.8419,0.0,0.0,0.0,-9.2623,0.0,-9.6414,-9.4546,-9.2786,-9.1155,-8.9653,-9.013,-9.0564,-8.975,-8.9607,-8.9875,-9.0601,-9.1411,-9.2555,0.0,0.0,0.0,0.0,0.0,0.0,0.0,0.0,0.0,0.0,0.0,-9.8854,-9.8854,-9.8716,-9.8573,-9.837,-9.8369,-9.825,-9.8016,-9.7727,-9.698,-9.5657,-9.4329,-9.2514,-9.0283,-8.9835,-8.9479,-8.9275,-8.9122,-8.7287,-8.4419,-8.4359,-8.2364,-7.9343,-7.9231,-7.8114,-7.6616,-7.7305,-7.8023,-7.8959,-8.0878,-8.1704,-8.194,-8.2406,-8.0946,-7.8744,-7.7221,-7.531,-7.3032,-6.9898,-6.8276,-6.7131,-6.5506,-6.5095,-6.5177,-6.5617,-6.6317,-6.697,-6.7128,-6.7976,-6.849,-6.7621,-6.6866,-6.5749,-6.3886,-6.1336,-5.8471,-5.5307,-5.4484,-5.4195,-5.4069,-5.3826,-5.3482,-5.3136,-5.2202,-5.1457,-5.0934,-4.9906,-4.9016,-4.8197,-4.5278,-4.3308,-4.2724,-4.0373,-3.8958,-3.8684,-3.8333,-3.803,-3.7753,-3.6321,-3.4812,-3.3297,-3.1282,-2.9552,-6.7907,-7.7671,0.0,0.0,-9.3784,-9.5666,-9.4684,-9.3681,-9.252,-9.1053,-9.1207,-9.1336,-9.0342,-8.9577,-8.9741,-9.1689,-9.1971,-9.3049,-9.6074,0.0,0.0,0.0,0.0,0.0,0.0,0.0,0.0,0.0,0.0,0.0,-9.8935,-9.8854,-9.8733,-9.8609,-9.861,-9.8445,-9.8229,-9.8246,-9.7919,0.0,-9.5342,-9.3392,-9.1472,-9.1911,-9.1626,-9.0887,-9.0396,-8.8463,-8.5695,-8.5966,-8.3932,-8.0655,-8.0566,-7.9381,-7.7701,-7.7289,-7.7269,-7.7912,-8.0374,-8.1091,-8.1139,-8.2905,-8.1939,-7.9824,-7.8785,-7.6653,-7.4048,-7.1356,-6.9674,-6.8054,-6.5462,-6.532,-6.5539,-6.422,-6.4709,-6.5751,-6.6795,-6.7953,-6.8631,-6.8031,-6.7667,-6.6801,-6.4774,-6.2748,-6.0302,-5.7047,-5.5289,-5.4233,-5.4069,-5.402,-5.3874,-5.3383,-5.3086,-5.2657,-5.2174,-5.1249,-5.0358,-4.9611,-4.6364,-4.4121,-4.328,-4.1233,-3.9727,-3.8834,-3.8585,-3.8485,-3.8485,-3.7247,-3.6213,-3.5399,-3.2983,-3.0956,-8.023,-8.5669,-9.0671,-9.7015,-9.5489,0.0,-9.4178,-9.5603,-9.6251,-9.4713,0.0,-9.0389,-9.1677,-8.9512,-8.8512,-9.1603,-9.2123,-9.2775,-9.4629,-9.6224,0.0,0.0,0.0,0.0,0.0,0.0,0.0,0.0,0.0,0.0,0.0,-9.8935,-9.8924,-9.8924,-9.8681,-9.8537,-9.8519,-9.8501,-9.8347,-9.8005,-9.5952,-9.4725,-9.4272,-9.4359,-9.3245,-9.1269,-9.088,-8.8958,-8.6156,-8.7353,-8.5014,-8.0684,-8.0655,-7.9464,-7.7582,-7.6121,-7.6426,-7.7626,-7.8034,-7.987,-8.2102,-8.2007,-8.2481,-8.2643,-8.0651,-7.8627,-7.6606,-7.4449,-7.1761,-6.898,-6.6708,-6.532,-6.4526,-6.4469,-6.4205,-6.4365,-6.6061,-6.6923,-6.7821,-6.9131,-6.8323,-6.7355,-6.7133,-6.3941,-6.1297,-6.0939,-5.7648,-5.4984,-5.4136,-5.402,-5.3923,-5.365,-5.3156,-5.2836,-5.2786,-5.2123,-5.1353,-5.0333,-4.7734,-4.5427,-4.3571,-4.24,-4.1204,-3.9942,-3.8983,-3.8485,-3.8485,-3.7879,-3.7145,-3.6217,-3.4995,-3.2801,-6.5848,-7.3963,0.0,-8.285,-8.9111,-9.5026,-9.4658,0.0,0.0,0.0,-9.3774,-9.241,-9.0978,-8.9659,0.0,-9.0398,-9.1496,-9.3078,-9.5816,-9.677,0.0,0.0,0.0,0.0,0.0,0.0,0.0,0.0,0.0,0.0,0.0,-9.8945,-9.8951,-9.8941,-9.8838,-9.8698,-9.8555,-9.8556,-9.8501,-9.8366,-9.7414,-9.6936,-9.6963,-9.5772,-9.5148,-9.4911,-9.3549,-9.2148,-9.058,-8.9198,-8.6794,-8.3859,-8.2816,-8.1249,-7.9428,-7.8729,-7.8819,-7.9469,-8.0462,-8.148,-8.247,-8.3334,-8.3643,-8.34,-8.1345,-7.999,-7.8523,-7.5573,-7.3606,-7.183,-6.9187,-6.7043,-6.5283,-6.4305,-6.4742,-6.5275,-6.4852,-6.6317,-6.7839,-6.8112,-6.8467,-6.8592,-6.8141,-6.5645,-6.3353,-6.2057,-5.9174,-5.6479,-5.4525,-5.4292,-5.4195,-5.3923,-5.3552,-5.3355,-5.3355,-5.2808,-5.2123,-5.1353,-4.9052,-4.7486,-4.6822,-4.4755,-4.3023,-4.1695,-4.0049,-3.9107,-3.8958,-3.8584,-3.8232,-3.7857,-3.6552,-3.4707,-5.8193,-6.6393,-7.534,-7.3972,0.0,0.0,0.0,-9.2313,0.0,0.0,-9.4704,-9.2798,-9.091,0.0,0.0,-9.0289,-9.2265,-9.4697,-9.7592,-9.8002,-9.8419,0.0,0.0,0.0,0.0,0.0,0.0,0.0,0.0,0.0,0.0,-9.8968,-9.896,-9.8935,-9.8957,-9.8838,-9.8681,-9.8646,-9.8593,-9.8576,-9.8349,-9.8386,-9.852,-9.7134,-9.6632,-9.6828,-9.5885,-9.46,-9.311,-9.1279,-8.9122,-8.6738,-8.4599,-8.2833,-8.1466,-8.0909,-8.0619,-8.0619,-8.1794,-8.2348,-8.273,-8.3808,-8.4091,-8.3789,-8.2375,-8.1167,-7.9803,-7.7309,-7.5573,-7.3876,-7.1201,-6.8867,-6.6779,-6.5301,-6.5294,-6.535,-6.4078,-6.5701,-6.745,-6.7524,-6.8659,-6.9395,-6.8871,-6.7033,-6.4956,-6.3025,-6.0512,-5.799,-5.5662,-5.4932,-5.4484,-5.4069,-5.3796,-5.365,-5.365,-5.3305,-5.2858,-5.2225,-5.0356,-4.938,-4.9551,-4.6941,-4.4912,-4.3641,-4.1328,-4.0013,-3.9819,-3.928,-3.9007,-3.8983,-3.79,-3.6152,-6.4996,-6.8326,-7.2974,-7.6278,0.0,0.0,-8.7948,-8.9842,-9.1691,-9.8319,-9.4446,-9.0363,-9.2011,-8.9586,0.0,-9.1769,-9.5121,-9.7938,-9.9645,-9.9908,-9.9859,-9.9726,0.0,0.0,0.0,0.0,0.0,0.0,0.0,0.0,0.0,-9.9027,-9.8938,-9.8938,-9.8951,-9.8941,-9.8941,-9.8821,-9.8698,-9.8555,-9.8555,-9.8555,-9.8537,-9.8539,-9.749,-9.5742,-9.7147,-9.561,-9.2254,-9.3502,-9.2066,-8.8682,-8.5426,-8.3922,-8.3388,-8.1826,-8.0922,-8.0506,-8.0625,-8.1638,-8.281,-8.2676,-8.3328,-8.4139,-8.4002,-8.2336,-8.0447,-8.0259,-7.7728,-7.4504,-7.2277,-7.0548,-6.9054,-6.7882,-6.5665,-6.3844,-6.3922,-6.4981,-6.6363,-6.7938,-6.8968,-6.96,-6.9567,-6.7865,-6.591,-6.418,-6.171,-5.9456,-5.7715,-5.6155,-5.4914,-5.4117,-5.3796,-5.365,-5.365,-5.365,-5.3404,-5.2858,-5.1624,-5.0907,-5.0907,-4.8666,-4.6834,-4.5685,-4.2732,-4.1161,-4.1161,-3.9868,-3.928,-3.928,-3.8983,-3.7143,-5.8305,-6.4089,-7.0773,-7.1863,0.0,0.0,-8.8551,-9.1667,-9.3863,-9.5975,-9.38,-9.1017,-8.9303,0.0,0.0,0.0,-9.5937,-9.7985,-9.9676,-9.9906,-9.9904,-9.9844,-9.985,0.0,0.0,0.0,0.0,0.0,0.0,0.0,0.0,-9.9027,-9.8938,-9.8938,-9.896,-9.8951,-9.8941,-9.8924,-9.8821,-9.8698,-9.875,-9.875,-9.8698,-9.8593,-9.822,-9.7585,-9.6694,-9.5629,-9.4452,-9.3446,-9.2452,-9.1295,-8.8854,-8.7501,-8.6722,-8.5134,-8.4307,-8.3938,-8.3968,-8.4238,-8.4367,-8.3221,-8.3622,-8.4302,-8.2931,-8.2657,-8.255,-8.0873,-7.8793,-7.6863,-7.6192,-7.4947,-7.3074,-6.9659,-6.7333,-6.55,-6.4119,-6.3946,-6.4557,-6.629,-6.7717,-6.9009,-7.0066,-6.933,-6.8113,-6.6547,-6.3761,-6.1248,-5.9749,-5.7369,-5.5759,-5.5528,-5.4902,-5.4233,-5.3699,-5.3482,-5.3383,-5.3404,-5.3027,-5.2698,-5.2502,-5.0028,-4.833,-4.769,-4.4559,-4.2539,-4.1758,-4.114,-4.0471,-3.9795,-3.965,-3.846,-5.7724,-6.3604,-6.9942,-7.0652,-7.479,0.0,0.0,-8.7688,-8.8599,-8.9867,-8.931,0.0,0.0,0.0,-9.4868,-9.487,-9.6808,-9.8709,-9.9773,-9.9924,-9.9923,-9.991,-9.9914,-9.9861,0.0,0.0,0.0,0.0,0.0,0.0,-9.9221,-9.9075,-9.8998,-9.8938,-9.8938,-9.896,-9.8951,-9.8951,-9.8882,-9.8833,-9.8903,-9.8924,-9.8821,-9.8698,-9.8591,-9.8462,-9.7189,-9.6209,-9.5535,-9.4148,-9.3189,-9.2522,-9.1279,-8.9979,-8.861,-8.6977,-8.6088,-8.5719,-8.5569,-8.5478,-8.5211,-8.4151,-8.3892,-8.3884,-8.3095,-8.2968,-8.2905,-8.2054,-8.0497,-7.9124,-7.9124,-7.7515,-7.5031,-7.1748,-6.8897,-6.6446,-6.459,-6.3881,-6.3918,-6.4928,-6.6842,-6.8593,-6.9469,-6.9741,-6.9391,-6.7972,-6.5373,-6.3009,-6.119,-5.8634,-5.6858,-5.6532,-5.562,-5.4682,-5.3845,-5.3581,-5.3433,-5.3531,-5.3502,-5.3482,-5.3433,-5.1415,-4.9915,-4.9182,-4.6412,-4.4383,-4.3177,-4.2401,-4.1611,-4.0737,-4.0404,-3.9433,-6.1595,-6.5732,-7.0012,-7.1714,-7.2776,-7.5009,-8.1193,-7.9886,0.0,-8.1108,0.0,0.0,0.0,-8.947,-9.4221,-9.5106,-9.7769,-9.9742,-9.9745,0.0,-9.9729,-9.9735,-9.9734,-9.9758,0.0,0.0,0.0,0.0,0.0,0.0,-9.9352,-9.9221,-9.9075,-9.8968,-9.8953,-9.8938,-9.8938,-9.8938,-9.8938,-9.8938,-9.8951,-9.8957,-9.8941,-9.8838,-9.8698,-9.8555,-9.8163,-9.713,-9.567,-9.5251,-9.4103,-9.2574,-9.2827,-9.1574,-8.9453,-8.7595,-8.6575,-8.6054,-8.5689,-8.5533,-8.5442,-8.4988,-8.3923,-8.2963,-8.3792,-8.2961,-8.1945,-8.34,-8.2517,-8.114,-8.1104,-7.8499,-7.5521,-7.3986,-7.0405,-6.6945,-6.5408,-6.4714,-6.4248,-6.3877,-6.6218,-6.8231,-6.8071,-6.934,-6.9907,-6.8572,-6.6677,-6.4631,-6.2376,-5.9983,-5.8168,-5.7198,-5.614,-5.5172,-5.4262,-5.3894,-5.3601,-5.3285,-5.3313,-5.3383,-5.3601,-5.2618,-5.1484,-5.0358,-4.8215,-4.6535,-4.5272,-4.3726,-4.2685,-4.2131,-4.136,-4.0194,-5.8737,-6.3102,-6.7988,-6.8487,-7.5395,-8.2449,-8.3978,-8.0743,0.0,0.0,0.0,0.0,0.0,-8.0861,0.0,-9.7287,-9.8312,-9.8012,-9.8095,-9.8054,-9.8017,-9.8102,-9.8061,-9.8481,0.0,0.0,0.0,0.0,0.0,0.0,-9.9469,-9.927,-9.9116,-9.9089,-9.9013,-9.8938,-9.8938,-9.8938,-9.8938,-9.8938,-9.8922,-9.896,-9.8945,-9.8919,-9.8871,-9.8763,-9.73,-9.6444,-9.5958,-9.4403,-9.3422,-9.31,-9.4236,-9.3539,-9.1718,-8.9663,-8.772,-8.6112,-8.5995,-8.5793,-8.5111,-8.2556,-8.2219,-8.2384,-8.0058,-8.0624,-8.214,-8.2191,-8.2047,-8.1864,-8.1593,-8.0038,-7.803,-7.5661,-7.2454,-6.9336,-6.7296,-6.5534,-6.4326,-6.4363,-6.5506,-6.6875,-6.8091,-6.9291,-6.9999,-6.9866,-6.8014,-6.6121,-6.4663,-6.2203,-6.0008,-5.8599,-5.7311,-5.6321,-5.5759,-5.4967,-5.4233,-5.3601,-5.3552,-5.3531,-5.3334,-5.2331,-5.1847,-5.1938,-4.9495,-4.7769,-4.6898,-4.5486,-4.4422,-4.3609,-4.3041,-4.2312,-6.0631,-6.5714,-6.9759,-6.5186,-7.0539,-7.6307,-7.4033,-7.2551,0.0,0.0,0.0,0.0,0.0,0.0,-8.0551,-9.2279,0.0,-9.5704,-9.734,-9.8137,-9.8555,0.0,0.0,0.0,0.0,0.0,0.0,0.0,0.0,0.0,-9.9609,-9.9374,-9.9195,-9.913,-9.899,-9.8938,-9.8938,-9.8938,-9.8938,-9.8938,-9.8938,-9.8938,-9.8938,-9.8945,-9.8935,-9.8903,0.0,-9.7461,-9.7222,-9.5416,-9.4519,-9.4365,-9.4315,-9.3598,-9.2477,-9.1342,-8.955,-8.746,-8.6306,-8.5205,-8.3961,-8.2117,-8.1025,-8.0283,-7.9194,-7.9397,-8.0346,-8.1674,-8.2634,-8.327,-8.3034,-8.1724,-7.9926,-7.7794,-7.4578,-7.1482,-6.9578,-6.6958,-6.4968,-6.4829,-6.5113,-6.5787,-6.7144,-6.8298,-6.9334,-7.0075,-6.8627,-6.6847,-6.5353,-6.3298,-6.1263,-5.9532,-5.8545,-5.7871,-5.7453,-5.626,-5.5282,-5.4564,-5.4658,-5.4385,-5.363,-5.2961,-5.2435,-5.2116,-5.0259,-4.8893,-4.7958,-4.639,-4.5328,-4.4726,-4.4158,-4.3536,-6.3288,-6.8891,-7.1751,-6.2985,-6.4162,-6.6288,-6.1846,-6.2567,0.0,0.0,0.0,0.0,0.0,-7.0071,-7.3139,0.0,0.0,-9.2329,0.0,0.0,0.0,0.0,0.0,0.0,0.0,0.0,0.0,0.0,0.0,-9.987,-9.977,-9.9544,-9.9309,-9.9232,-9.9089,-9.899,-9.899,-9.8998,-9.8968,-9.8938,-9.8938,-9.8938,-9.8938,-9.8938,-9.8945,-9.8957,0.0,-9.8871,-9.8675,-9.7185,-9.6294,-9.5752,-9.4442,-9.3562,-9.3004,-9.3004,-9.1849,-8.9888,-8.7239,-8.4821,-8.28,-8.2228,-8.0124,-7.8012,-7.9306,-7.8861,-7.8514,-8.135,-8.3178,-8.4226,-8.4226,-8.2994,-8.141,-8.0028,-7.6806,-7.3633,-7.1926,-6.8914,-6.6303,-6.5416,-6.5173,-6.5294,-6.5791,-6.7088,-6.8409,-6.9516,-6.881,-6.745,-6.5602,-6.403,-6.2385,-6.0525,-5.9772,-5.9282,-5.8966,-5.7606,-5.6615,-5.6242,-5.6286,-5.5715,-5.4396,-5.4126,-5.3386,-5.2173,-5.0853,-4.9715,-4.8874,-4.696,-4.5906,-4.5696,-4.5143,-4.4581,-6.011,-6.4532,-6.7881,-6.4921,-6.5832,-6.6857,-6.4693,-6.2453,-6.0173,0.0,0.0,0.0,0.0,-6.5406,0.0,0.0,0.0,0.0,0.0,0.0,0.0,0.0,0.0,0.0,0.0,0.0,0.0,0.0,0.0,-9.9906,-9.9876,-9.973,-9.9643,-9.9612,-9.9384,-9.9287,-9.9287,-9.9157,-9.9071,-9.8938,-9.8938,-9.8938,-9.8938,-9.8938,-9.8938,-9.896,0.0,0.0,-9.8871,-9.8401,-9.7376,-9.6255,-9.7323,-9.6645,-9.5192,-9.5176,-9.4756,-9.3679,-9.0228,-8.6501,-8.2997,-8.1031,-7.9199,-7.7797,-7.8048,-7.8754,-7.9728,-8.0655,-8.182,-8.2746,-8.2749,-8.2506,-8.2126,-8.1479,-7.8959,-7.613,-7.3767,-7.1819,-6.9529,-6.6367,-6.6376,-6.6466,-6.5161,-6.6651,-6.8117,-6.8276,-6.8884,-6.8848,-6.7558,-6.5749,-6.4023,-6.2497,-6.0825,-5.9642,-5.9282,-5.8803,-5.8656,-5.9049,-5.8261,-5.7155,-5.573,-5.5638,-5.5101,-5.4046,-5.1459,-5.02,-5.0232,-4.7966,-4.6852,-4.6812,-4.6729,-4.6132,-5.9658,-6.2903,-6.5908,-6.5111,-6.5491,-6.5415,-6.2871,-6.1807,-6.0324,-5.687,-5.6905,0.0,0.0,-6.328,0.0,0.0,-7.7515,0.0,0.0,0.0,0.0,0.0,0.0,0.0,0.0,0.0,0.0,0.0,0.0,-9.9922,-9.9918,-9.9796,-9.9717,-9.9717,-9.9537,-9.9479,-9.9559,-9.928,-9.9103,-9.9033,-9.8983,-9.8938,-9.8938,-9.8938,-9.8938,0.0,0.0,0.0,-9.8951,-9.88,-9.7741,-9.6303,-9.704,-9.6052,-9.4268,-9.4268,-9.4104,-9.3591,-9.1493,-8.8981,-8.6018,-8.1992,-7.946,-7.7984,-7.8128,-7.9157,-8.0542,-8.1614,-8.2158,-8.2599,-8.3364,-8.2938,-8.223,-8.2,-8.012,-7.7858,-7.5916,-7.3271,-7.0843,-6.915,-6.7575,-6.6684,-6.7251,-6.7452,-6.7859,-6.8909,-6.949,-6.9264,-6.7798,-6.6839,-6.5774,-6.4409,-6.2876,-6.1869,-6.1714,-6.1597,-6.1236,-6.0531,-5.9617,-5.8707,-5.7905,-5.7383,-5.654,-5.5298,-5.2582,-5.0902,-5.0333,-4.8538,-4.7397,-4.6852,-4.6852,-4.6576,-6.3356,0.0,-6.8943,-6.8566,-6.8186,-6.7009,0.0,-6.3287,-6.2298,-5.7702,-5.747,0.0,0.0,-6.2398,-6.5049,-7.3208,-7.5907,-7.9589,0.0,0.0,0.0,0.0,0.0,0.0,0.0,0.0,0.0,0.0,0.0,-9.9925,-9.9925,-10.0212,-10.0183,-9.9775,-9.9657,-9.9818,-10.0302,-9.962,-9.9233,-9.913,-9.9056,-9.8983,-9.8938,-9.8938,-9.8938,0.0,0.0,0.0,-9.8938,-9.8935,-9.812,-9.6854,-9.681,-9.5566,-9.3808,-9.3826,-9.3425,-9.2877,-9.2313,-9.1174,-8.9157,-8.422,-8.0656,-7.8425,-7.9034,-8.0265,-8.165,-8.2462,-8.2676,-8.2851,-8.349,-8.297,-8.2337,-8.2697,-8.1357,-7.956,-7.7867,-7.5034,-7.2464,-7.1501,-6.88,-6.709,-6.8464,-6.7596,-6.7256,-6.8994,-6.9408,-6.9167,-6.8154,-6.7706,-6.7045,-6.6058,-6.494,-6.4127,-6.3685,-6.3651,-6.2943,-6.1327,-6.0563,-5.9964,-5.9505,-5.8902,-5.7841,-5.642,-5.4503,-5.2743,-5.112,-4.9274,-4.7893,-4.6977,-4.6765,-4.6618,0.0,-7.8608,-8.0834,-7.9385,-7.7829,-7.5777,-7.2398,-6.9283,0.0,-6.2586,-6.0717,-6.0255,-6.2079,-6.2397,-6.3126,-6.5305,-6.7141,0.0,0.0,0.0,0.0,0.0,0.0,0.0,0.0,0.0,0.0,0.0,0.0,0.0,-9.991,-10.1377,-10.1541,-9.9963,-9.9876,-10.0603,-10.2035,-10.0483,-9.9478,-9.913,-9.913,-9.9047,-9.8938,-9.8938,-9.8938,0.0,0.0,0.0,0.0,-9.8935,-9.8865,-9.8737,-9.8476,-9.7414,-9.5993,-9.5883,-9.4669,-9.311,-9.3185,-9.2508,-9.1045,-8.7737,-8.3132,-7.9139,-8.076,-8.2421,-8.3474,-8.2098,-8.2579,-8.3111,-8.1393,-8.1697,-8.2753,-8.405,-8.3295,-8.1623,-7.9598,-7.799,-7.5834,-7.2085,-7.0027,-6.8392,-6.6467,-6.5758,-6.5859,-6.7096,-6.7792,-6.8535,-6.9674,-6.8427,-6.7433,-6.7301,-6.6351,-6.5084,-6.3527,-6.3389,-6.2792,-6.1327,-6.119,-6.0602,-5.953,-5.9649,-5.9065,-5.766,-5.7651,-5.6504,-5.4113,-5.0612,-4.8621,-4.8059,-4.7124,-4.6535,-8.0338,-8.3562,-8.4863,-8.348,-8.1775,-7.9341,0.0,0.0,-6.7779,-6.3301,-6.1056,-6.0397,-6.2088,-6.3247,-6.5537,-7.0243,-7.2474,0.0,0.0,0.0,0.0,0.0,0.0,0.0,0.0,0.0,0.0,0.0,0.0,0.0,-9.9923,-10.0509,-10.0561,-9.9924,-10.1936,-10.2342,-10.0802,-10.1028,-10.0597,-9.9498,-9.9396,-9.9355,-9.9306,-9.9306,-9.9245,0.0,0.0,0.0,0.0,-9.8945,-9.8951,-9.8941,-9.8838,-9.7724,-9.6216,-9.6161,-9.5641,-9.4762,-9.362,-9.362,-9.3784,-9.1302,-8.7708,-8.4393,-8.4646,-8.5345,-8.5447,-8.2572,-8.1963,-8.2026,-8.1163,-8.1141,-8.171,-8.3143,-8.2913,-8.2181,-8.1283,-7.9078,-7.6813,-7.5262,-7.2842,-7.0715,-6.9807,-6.8452,-6.7506,-6.7542,-6.8181,-6.8698,-6.875,-6.8767,-6.8745,-6.8541,-6.7508,-6.654,-6.5741,-6.5004,-6.3919,-6.2276,-6.1433,-6.0395,-5.9028,-6.007,-5.9688,-5.7508,-5.8462,-5.8132,-5.6493,-5.3898,-5.1254,-4.8677,-4.7321,-4.6535,-8.7438,-8.9623,-9.0552,-8.9697,-8.7836,-8.4737,-7.9335,0.0,-6.9925,-6.4353,-6.1841,-6.118,-6.2902,-6.4539,-6.7505,-7.3057,-7.5898,0.0,0.0,0.0,0.0,0.0,0.0,0.0,0.0,0.0,0.0,0.0,0.0,0.0,-10.0707,-10.0699,-10.0711,-10.0714,-10.243,-10.2772,-10.151,-10.1446,-10.1066,-10.0445,-9.9891,-9.9555,-9.9516,-9.9536,-9.9444,0.0,0.0,0.0,0.0,-9.8945,-9.8929,-9.8935,-9.8957,-9.7862,-9.6282,-9.6251,-9.5824,-9.5191,-9.4333,-9.4758,-9.5403,-9.3969,-9.1915,-8.9625,-8.7602,-8.7553,-8.7695,-8.5236,-8.3526,-8.2322,-8.1505,-8.1118,-8.1276,-8.267,-8.2764,-8.2479,-8.2356,-8.0481,-7.8504,-7.7409,-7.4978,-7.2873,-7.2158,-7.0023,-6.8424,-6.8385,-6.8609,-6.8772,-6.8719,-6.9414,-6.9804,-6.9557,-6.8773,-6.8013,-6.7359,-6.6476,-6.5089,-6.3023,-6.1974,-6.0626,-5.8708,-5.9783,-5.9632,-5.7807,-5.8872,-5.913,-5.8533,-5.7062,-5.4652,-5.1344,-4.9665,-4.8202,-9.5308,-9.7838,-9.9155,-9.9299,-9.6978,-9.295,0.0,0.0,-7.2955,-6.6301,-6.3592,-6.2933,-6.4597,-6.6219,-6.8343,-7.1603,-7.5135,0.0,-8.8621,0.0,0.0,0.0,0.0,0.0,0.0,0.0,0.0,0.0,0.0,0.0,-10.2431,-10.2418,-10.2418,-10.2437,-10.0817,-10.1553,-10.4897,-10.1631,-10.0644,-10.2008,-10.049,-9.9667,-9.9514,-9.9526,-9.9385,-9.9143,0.0,0.0,0.0,-9.8941,-9.8951,-9.8938,-9.8935,-9.7889,-9.6447,-9.6303,-9.5185,-9.3949,-9.549,-9.5882,-9.5667,-9.565,-9.5372,-9.4146,-8.9234,-8.8901,-9.0256,-9.0329,-8.7672,-8.4295,-8.2354,-8.1639,-8.1752,-8.3083,-8.3096,-8.2759,-8.263,-8.2515,-8.1398,-7.7903,-7.6179,-7.464,-7.2675,-6.9776,-6.813,-6.9371,-6.8815,-6.8713,-6.9992,-7.0425,-7.0481,-7.0208,-7.0066,-6.945,-6.7979,-6.7608,-6.6227,-6.339,-6.2924,-6.1523,-5.8656,-5.8642,-5.8718,-5.8685,-5.908,-5.9601,-6.0229,-5.9899,-5.861,-5.6517,-5.4572,-5.1876,-9.6793,-9.8441,-9.8747,-9.8877,-9.7471,-9.4014,0.0,0.0,-7.4395,-6.6531,-6.3574,-6.2872,-6.4477,-6.7133,-7.0093,-7.3245,0.0,-8.3838,0.0,0.0,0.0,0.0,0.0,0.0,0.0,0.0,0.0,0.0,0.0,0.0,-10.2456,-10.131,-10.0634,-10.0653,-10.1339,-10.1616,-10.1401,-10.2773,-10.2493,-10.0555,-10.1277,-10.0996,-9.9787,-9.9801,-9.9659,-9.9393,-9.9393,0.0,0.0,-9.914,-9.9127,-9.9181,-9.9021,-9.8613,-9.819,-9.8141,-9.7703,-9.702,-9.6385,-9.6856,-9.747,-9.608,-9.5548,-9.5182,-9.3716,-9.2734,-9.1819,-9.0619,-8.7724,-8.4591,-8.2735,-8.1252,-8.0547,-8.1848,-8.2547,-8.2875,-8.2666,-8.2515,-8.2106,-8.1081,-7.881,-7.6632,-7.5055,-7.2887,-7.0725,-6.8934,-6.9805,-7.0309,-6.932,-7.0711,-7.154,-7.0907,-7.1472,-7.1416,-7.0294,-6.9282,-6.7518,-6.4845,-6.3675,-6.171,-5.8656,-5.8529,-5.8105,-5.7087,-5.8261,-5.8989,-5.9162,-5.9962,-5.9394,-5.7476,-5.5349,-5.3188,-9.7594,-9.8481,-9.85,-9.8511,-9.7952,-9.5272,-8.7051,0.0,-7.6606,-6.7701,-6.5028,-6.4629,-6.5498,-6.8878,-7.2847,0.0,0.0,0.0,0.0,0.0,0.0,0.0,0.0,0.0,0.0,0.0,0.0,0.0,0.0,0.0,-10.3431,-10.1838,-10.0631,-9.992,-10.091,-10.1258,-10.0929,-10.2274,-10.2279,-10.094,-10.1258,-10.0915,-9.9919,-9.9908,-9.9763,-9.9516,-9.9516,0.0,0.0,-9.9271,-9.9233,-9.9233,-9.9099,-9.8968,-9.8951,-9.8957,-9.8838,-9.8548,-9.7487,-9.777,-9.837,-9.7152,-9.6814,-9.6777,-9.6777,-9.5481,-9.3743,-9.2545,-8.9782,-8.6852,-8.5681,-8.3581,-8.18,-8.1877,-8.2203,-8.264,-8.3004,-8.3359,-8.3367,-8.2757,-8.1133,-7.9147,-7.7099,-7.5261,-7.3302,-7.077,-7.1402,-7.1754,-7.0582,-7.1819,-7.2657,-7.2145,-7.2694,-7.28,-7.1961,-7.0764,-6.9148,-6.6993,-6.505,-6.2606,-5.9478,-5.8262,-5.7243,-5.639,-5.6798,-5.7562,-5.8718,-5.9574,-5.976,-5.9178,-5.6646,-5.4808,-9.7822,-9.8232,-9.8275,-9.8158,-9.8333,-9.6403,-8.8324,0.0,0.0,-6.9512,-6.7498,-6.7409,-6.7088,-7.138,0.0,0.0,0.0,-9.4506,0.0,0.0,0.0,0.0,0.0,0.0,0.0,0.0,0.0,0.0,0.0,0.0,-10.5215,-10.3431,-10.1724,-10.0168,-9.9978,-10.0634,-10.2168,-10.0843,-10.094,-10.2429,-10.0904,-10.0157,-10.0139,-9.9957,-9.9794,-9.9555,-9.9555,0.0,0.0,-9.9357,-9.9271,-9.9156,-9.9143,-9.9047,-9.8938,-9.8935,-9.8941,-9.8924,-9.8664,-9.8555,-9.8537,-9.8557,-9.8538,-9.8538,-9.8538,-9.7209,-9.563,-9.5363,-9.2842,-9.0137,-8.971,-8.7403,-8.4667,-8.2725,-8.2011,-8.2168,-8.3342,-8.4409,-8.4753,-8.3493,-8.2908,-8.1702,-7.8833,-7.7168,-7.5618,-7.3886,-7.3384,-7.3135,-7.2964,-7.348,-7.3723,-7.3452,-7.369,-7.3661,-7.3219,-7.215,-7.0859,-6.9282,-6.6881,-6.4124,-6.0958,-5.7995,-5.6454,-5.6322,-5.5047,-5.571,-5.8484,-5.8866,-5.9803,-6.1161,-5.8307,-5.6637,-9.7822,-9.8168,-9.8148,-9.7898,-9.8097,-9.6273,-8.8196,-8.5044,0.0,0.0,-6.9141,-6.8727,-6.7076,0.0,0.0,0.0,0.0,0.0,0.0,0.0,0.0,0.0,0.0,0.0,0.0,0.0,0.0,0.0,0.0,0.0,-10.7036,-10.408,-10.2259,-10.1917,-10.0624,-10.0096,-10.0441,-10.1406,-10.2072,-10.243,-10.2089,-10.184,-10.1694,-10.0488,-9.9822,-9.9689,-9.9689,0.0,0.0,-9.9507,-9.9465,-9.9438,-9.9208,-9.9047,-9.8938,-9.8922,-9.8951,-9.8924,-9.875,-9.8626,-9.8537,-9.8557,-9.8539,-9.8556,-9.8557,-9.7342,-9.5883,-9.5593,-9.3042,-9.0007,-8.8508,-8.7433,-8.6053,-8.3098,-8.212,-8.19,-8.2088,-8.2736,-8.3647,-8.4645,-8.3537,-8.1879,-8.0007,-7.8595,-7.6752,-7.3943,-7.4582,-7.4843,-7.3519,-7.4339,-7.4575,-7.3304,-7.4296,-7.4729,-7.393,-7.3322,-7.1892,-6.9237,-6.7964,-6.5731,-6.2175,-5.9062,-5.7038,-5.6072,-5.4669,-5.4937,-5.6854,-5.8154,-5.9519,-6.0875,-5.9297,-5.7838,-9.7985,-9.8122,-9.8037,-9.7824,-9.7919,-9.6585,-9.0878,0.0,0.0,0.0,0.0,-7.4307,-6.9896,0.0,0.0,0.0,0.0,0.0,0.0,0.0,0.0,0.0,0.0,0.0,0.0,0.0,0.0,0.0,0.0,-10.9616,-10.8743,-10.6277,-10.4494,-10.3697,-10.2027,-10.1117,-10.1117,-10.1204,-10.164,-10.2454,-10.2429,-10.239,-10.2293,-10.1442,-10.0553,-9.9721,-9.9704,0.0,-9.9712,-9.9643,-9.9573,-9.9496,-9.9306,-9.9143,-9.9004,-9.8968,-9.896,-9.8951,-9.8871,-9.8804,-9.8716,-9.8666,-9.8593,-9.8537,-9.8538,-9.7921,-9.7173,-9.6941,-9.4853,-9.2299,-9.0485,-8.9251,-8.7674,-8.4396,-8.2835,-8.2083,-8.2011,-8.2616,-8.3654,-8.5214,-8.4422,-8.3068,-8.1458,-8.0062,-7.8373,-7.6,-7.5732,-7.522,-7.3591,-7.4638,-7.517,-7.4289,-7.4933,-7.5223,-7.4765,-7.4125,-7.3008,-7.1264,-6.958,-6.7233,-6.4058,-6.0958,-5.8316,-5.6218,-5.4634,-5.4412,-5.5546,-5.693,-5.8309,-5.9694,-5.9075,-5.8025,-9.8056,-9.808,-9.7913,-9.7802,-9.7779,-9.697,-9.3872,-9.3436,0.0,0.0,0.0,-8.0706,-7.4914,-8.1273,0.0,-8.9925,0.0,0.0,0.0,0.0,-10.9298,0.0,0.0,0.0,0.0,0.0,0.0,0.0,0.0,-11.0033,-11.0033,-10.8705,-10.715,-10.5442,-10.4038,-10.3056,-10.2449,-10.1041,-10.1048,-10.2431,-10.2454,-10.2579,-10.2887,-10.2442,-10.1526,-10.0134,-9.9866,0.0,-9.972,-9.972,-9.9626,-9.9498,-9.9417,-9.9282,-9.9116,-9.9042,-9.8983,-9.8938,-9.8935,-9.8941,-9.8924,-9.8821,-9.8698,-9.8573,-9.8555,-9.8557,-9.8501,-9.8324,-9.6814,-9.4904,-9.3131,-9.1275,-8.9144,-8.6123,-8.4132,-8.282,-8.2517,-8.3171,-8.4225,-8.5532,-8.5288,-8.4349,-8.2674,-8.144,-8.0057,-7.8191,-7.6827,-7.5456,-7.3876,-7.4789,-7.5414,-7.5047,-7.5197,-7.5376,-7.5376,-7.461,-7.3965,-7.3526,-7.1338,-6.8806,-6.5951,-6.3193,-6.015,-5.6749,-5.5085,-5.4391,-5.4689,-5.5878,-5.7153,-5.8451,-5.8718,-5.813,-9.7423,-9.808,-9.7913,-9.7802,-9.7779,-9.6992,-9.3953,-9.349,-9.2186,-8.6785,0.0,-8.3796,-8.2457,0.0,-9.3397,-9.6134,0.0,-10.7854,-11.0076,-10.9429,-10.896,-10.9588,-10.9758,-10.9898,-10.9991,-11.0033,-11.0033,-11.0033,-11.0033,-11.0033,-11.0033,-10.9806,-10.8895,-10.7226,-10.6964,-10.5408,-10.2449,-10.2221,-10.2221,-10.2452,-10.2431,-10.3211,-10.4592,-10.3115,-10.2224,-10.1845,-10.0357,-9.9733,-9.972,-9.972,-9.9626,-9.9507,-9.9507,-9.9369,-9.9143,-9.9271,-9.9127,-9.8938,-9.8935,-9.8941,-9.8941,-9.8924,-9.8838,-9.8716,-9.8573,-9.8557,-9.8557,-9.8501,-9.7075,-9.5237,-9.3632,-9.1756,-8.9801,-8.7805,-8.6001,-8.4346,-8.2783,-8.3641,-8.5018,-8.5919,-8.5653,-8.4669,-8.277,-8.2277,-8.1131,-7.8197,-7.7701,-7.7071,-7.5492,-7.5298,-7.4765,-7.3372,-7.445,-7.5235,-7.5235,-7.4712,-7.4163,-7.3694,-7.2697,-7.0605,-6.7328,-6.5414,-6.2413,-5.8115,-5.6524,-5.5443,-5.498,-5.6386,-5.744,-5.82,-5.9666,-5.961,-9.5854,-9.7978,-9.9273,-9.9227,-9.919,-9.8582,-9.6335,-9.6757,-9.6256,-9.1403,-9.0778,0.0,0.0,0.0,0.0,0.0,0.0,0.0,-10.9394,-10.897,-10.882,0.0,-10.9705,0.0,-10.9987,-11.0033,-11.0033,0.0,-11.0033,-11.0033,-11.0033,-11.0033,-10.9654,-10.8933,-10.8895,-10.7757,-10.5294,-10.3397,-10.2449,-10.2449,-10.2456,-10.2845,-10.3543,-10.2767,-10.1899,-10.0901,0.0,-9.974,-9.9733,-9.9712,-9.9697,-9.9617,-9.9553,-9.9431,-9.934,-9.9271,-9.9167,-9.9056,-9.8975,-9.8929,-9.8929,-9.8929,-9.8919,-9.8838,-9.8698,-9.861,-9.8557,-9.8538,-9.7824,-9.6694,-9.5054,-9.3215,-9.137,-8.9615,-8.7262,-8.5242,-8.4436,-8.4052,-8.4148,-8.5165,-8.5406,-8.5077,-8.3952,-8.2996,-8.1605,-7.9295,-7.8249,-7.7165,-7.5591,-7.533,-7.4955,-7.4277,-7.4813,-7.5241,-7.5241,-7.4994,-7.4712,-7.4254,-7.3831,-7.2312,-6.9405,-6.7612,-6.4583,-6.0035,-5.8208,-5.6367,-5.4477,-5.5847,-5.6786,-5.7389,-5.9022,-5.9346,-9.3876,-9.6968,-9.9153,-9.9562,-10.0007,-9.9835,-9.8188,-9.8958,-9.8999,-9.5302,-9.5433,-9.4882,0.0,0.0,0.0,-9.8567,-10.3721,0.0,-10.8922,-10.8706,0.0,-10.946,0.0,-10.9728,-10.992,-10.9982,0.0,0.0,-11.0375,-11.0451,-11.0033,-11.0375,-11.0413,-11.0033,-11.0033,-10.9426,-10.8136,-10.5218,-10.3283,-10.2449,-10.2449,-10.2449,-10.2449,-10.2445,-10.1777,-10.0531,-9.9975,-9.9773,-9.9712,-9.9732,-9.972,-9.9712,-9.9626,-9.9573,-9.9516,-9.927,-9.9169,-9.913,-9.9113,-9.9071,-9.9042,-9.9042,-9.9021,-9.8982,-9.8854,-9.8698,-9.8537,-9.8539,-9.8406,-9.7894,-9.6178,-9.4397,-9.2616,-9.0922,-8.8395,-8.6257,-8.5829,-8.4951,-8.4439,-8.4907,-8.5528,-8.5815,-8.5369,-8.4094,-8.2416,-8.0231,-7.8915,-7.7626,-7.605,-7.552,-7.5241,-7.5241,-7.5241,-7.5241,-7.5241,-7.5241,-7.5115,-7.48,-7.468,-7.3622,-7.1422,-6.9586,-6.649,-6.1852,-5.9921,-5.7383,-5.4235,-5.5634,-5.6367,-5.6553,-5.8562,-5.9293,-9.1466,-9.4433,-9.6034,-9.7556,-9.9116,-9.9835,-9.8188,-9.8043,-9.8232,-9.7971,-9.7023,-9.698,0.0,0.0,-10.2003,-10.6369,-10.7434,-10.8398,-11.0398,-10.9414,-10.8648,0.0,0.0,0.0,0.0,0.0,0.0,-11.0033,0.0,-11.1589,-11.0109,-11.1437,-11.1551,-11.0071,-11.0033,-10.9995,-10.9881,-10.8098,-10.5636,-10.2449,-10.2449,-10.2449,-10.2449,-10.2449,-10.2402,-10.2238,-10.0603,-9.9847,-9.9712,-9.9732,-9.972,-9.972,-9.9719,-9.9629,-9.9488,-9.9374,-9.9245,-9.9169,-9.9389,-9.9416,-9.9309,-9.9309,-9.922,-9.9075,-9.8967,-9.8733,-9.8555,-9.8537,-9.8557,-9.8146,-9.6463,-9.4762,-9.3007,-9.1177,-8.9443,-8.7673,-8.6052,-8.6796,-8.7391,-8.5958,-8.6501,-8.7085,-8.6818,-8.5922,-8.3991,-8.0442,-7.9811,-7.9263,-7.7803,-7.6217,-7.5241,-7.5241,-7.5241,-7.5241,-7.5241,-7.5241,-7.5211,-7.5211,-7.5211,-7.4468,-7.2864,-7.1267,-6.8175,-6.3366,-6.1603,-5.8764,-5.4758,-5.633,-5.6688,-5.5905,-5.9073,-6.0438,-8.9898,-9.3316,-9.5935,-9.8497,-9.9657,-9.9741,-9.8035,-9.7787,-9.7919,-9.7919,-9.7543,-9.7882,-10.0062,-10.1268,-10.2859,-10.5602,-10.6989,-10.8039,-10.9005,-10.8738,-10.8649,-10.919,-10.9308,-10.9465,0.0,0.0,0.0,-10.9991,-11.0564,-11.0602,-11.0071,-11.0564,-11.0602,-11.0033,-11.0033,-11.0033,-11.0033,-10.8364,-10.6888,-10.5674,-10.3473,-10.1879,-10.0813,-10.0813,-10.0824,-10.0805,-10.0189,-9.9882,-9.9847,-9.9745,-9.9708,-9.972,-9.9735,-9.9712,-9.9626,-9.9488,-9.9374,-9.9282,-9.9389,-9.9434,-9.9455,-9.9455,-9.9367,-9.922,-9.9099,-9.8945,-9.8804,-9.8698,-9.8628,-9.8426,-9.7827,-9.6406,-9.4706,-9.3043,-9.1413,-8.9818,-8.8183,-8.7353,-8.7065,-8.7519,-8.6755,-8.6304,-8.7123,-8.6616,-8.5176,-8.2412,-8.0954,-7.9546,-7.794,-7.6342,-7.5324,-7.5241,-7.5241,-7.4813,-7.3778,-7.4634,-7.4813,-7.3807,-7.467,-7.4991,-7.442,-7.1923,-6.8783,-6.4966,-6.2276,-5.9159,-5.5449,-5.6011,-5.6282,-5.6359,-5.8692,-5.9865,-8.623,0.0,-9.4018,-9.6118,-9.835,-9.9621,-9.7917,-9.7594,-9.7664,-9.7711,-9.7711,-9.8402,-10.0652,-10.1938,-10.3349,-10.5528,-10.689,-10.778,-10.8063,-10.8278,-10.8576,-10.9008,-10.9177,0.0,0.0,0.0,0.0,-10.9871,-11.0413,-11.0537,-11.0029,-11.0526,-11.0564,-11.0033,-11.0033,-11.0033,-11.0033,-10.8895,-10.806,-10.7495,-10.5218,-10.2938,-10.0737,-9.9599,-9.9371,-9.9868,-9.9306,-9.9394,-9.9882,-9.9793,-9.9724,-9.9739,-9.9735,-9.972,-9.9705,-9.9564,-9.9458,-9.94,-9.9488,-9.9573,-9.958,-9.958,-9.9516,-9.9355,-9.9246,-9.908,-9.8924,-9.8838,-9.8698,-9.8555,-9.8555,-9.7285,-9.5622,-9.4065,-9.2468,-9.0869,-8.9351,-8.7573,-8.6791,-8.8461,-8.7037,-8.6029,-8.7587,-8.7294,-8.6275,-8.4625,-8.2643,-8.0772,-7.9026,-7.6841,-7.5376,-7.5294,-7.483,-7.4051,-7.2986,-7.3843,-7.3992,-7.2951,-7.4349,-7.5241,-7.5241,-7.2301,-6.9088,-6.5839,-6.2686,-5.9401,-5.6001,-5.5954,-5.6075,-5.6438,-5.8755,-5.991,0.0,0.0,-9.0137,-9.0122,-9.4934,-9.9239,-9.7549,-9.7192,-9.7315,-9.7533,-9.7594,-9.8605,-10.1989,-10.2644,-10.3635,-10.6775,-10.7519,-10.7682,-10.768,-10.8026,-10.836,-10.8632,-10.9008,-10.9283,0.0,-10.9321,-10.9332,-10.9615,-11.1145,-11.1497,-11.0063,-11.1475,-11.1589,-11.0071,-11.0033,-11.0033,-11.0033,-11.0033,-10.9199,-10.7567,-10.7533,-10.575,-10.2487,-9.9068,-9.8419,-9.983,-9.8128,-9.8327,-9.9886,-9.9771,-9.9721,-9.9712,-9.9726,-9.972,-9.9705,-9.9574,-9.9507,-9.9567,-9.9828,-9.9847,-9.9708,-9.9708,-9.9629,-9.9516,-9.9355,-9.9174,-9.8957,-9.8941,-9.8787,-9.8555,-9.8555,-9.7322,-9.5715,-9.4065,-9.2403,-9.0849,-8.9321,-8.7633,-8.6897,-8.8623,-8.7306,-8.6491,-8.8238,-8.7947,-8.7279,-8.6781,-8.5019,-8.3025,-8.1095,-7.7762,-7.5542,-7.5434,-7.4045,-7.3058,-7.2879,-7.2886,-7.2951,-7.2915,-7.4349,-7.5211,-7.5241,-7.2315,-6.9151,-6.5978,-6.2772,-5.9577,-5.6381,-5.6255,-5.6118,-5.6072,-5.9339,-6.0695,-8.6965,0.0,0.0,-8.8271,-9.1483,-9.424,-9.2461,-9.3036,-9.4671,-9.6932,-9.745,-9.8498,-10.1881,-10.2425,-10.3437,-10.6749,-10.729,-10.7368,-10.7656,-10.7937,-10.8278,-10.8613,-10.8845,-10.9047,-10.927,-10.9282,-10.9321,-10.9477,-11.003,-11.0167,-10.9785,-11.0342,-11.0451,-11.0033,-11.0033,-11.0033,-11.0033,-11.0033,-10.9806,-10.9312,-10.806,-10.7002,-10.5977,-10.2597,-10.0624,-9.9827,-9.8133,-9.8348,-9.9923,-9.9876,-9.98,-9.9712,-9.9726,-9.972,-9.9712,-9.968,-9.9667,-9.9681,-9.9746,-9.9821,-9.9848,-9.9859,-9.9777,-9.9629,-9.9486,-9.9345,-9.9178,-9.9006,-9.8882,-9.8821,-9.8716,-9.8291,-9.7171,-9.4344,-9.3353,-9.2227,-8.9486,-8.8474,-8.7903,-8.7213,-8.661,-8.6305,-8.6721,-8.6573,-8.6564,-8.7169,-8.6842,-8.5273,-8.1723,-8.0183,-7.8294,-7.5574,-7.4712,-7.3909,-7.2711,-7.3546,-7.3694,-7.2681,-7.4099,-7.5049,-7.5211,-7.1179,-6.798,-6.5942,-6.1841,-5.8697,-5.6632,-5.6523,-5.6471,-5.6498,-5.9555,-6.0685,-8.2345,0.0,0.0,0.0,-8.5003,-8.7531,-9.1265,-9.1335,-9.1921,-9.644,-9.7377,-9.8203,-10.0868,-10.188,-10.3087,0.0,-10.6713,-10.7174,-10.7331,-10.7656,-10.7982,-10.8381,-10.8595,-10.8811,-10.9032,-10.9099,-10.9163,-10.9332,-10.9395,-10.9477,-10.9541,-10.974,-10.9871,-10.9865,-10.9977,-11.0033,-11.0033,-11.0033,-11.0033,-10.9995,-10.9047,-10.7795,-10.6353,-10.4418,-10.18,-9.8802,-9.7812,-9.8326,-9.991,-9.9923,-9.9861,-9.9789,-9.9746,-9.972,-9.9644,-9.8925,-9.9105,-9.9632,-9.8981,-9.9246,-9.9924,-9.9908,-9.979,-9.9606,-9.9535,-9.9374,-9.922,-9.9047,-9.8975,-9.8924,-9.8854,-9.8698,-9.7731,-9.4525,-9.3687,-9.2717,-8.953,-8.8225,-8.7615,-8.7422,-8.676,-8.6466,-8.7118,-8.7191,-8.728,-8.7715,-8.7703,-8.6541,-8.3318,-8.1786,-7.9874,-7.6984,-7.5727,-7.4402,-7.2658,-7.3273,-7.3385,-7.2587,-7.4003,-7.4953,-7.5211,-7.0786,-6.7568,-6.6018,-6.1446,-5.8377,-5.6838,-5.6696,-5.6969,-5.7583,-6.0018,-6.0933,-7.1554,0.0,0.0,-7.5608,-7.6645,-7.9716,0.0,0.0,-8.7554,-9.3877,-9.5466,-9.6391,-9.8659,-10.0361,-10.2022,-10.3984,-10.5728,-10.679,-10.668,-10.7116,-10.7632,-10.8004,-10.8299,-10.8576,-10.8845,-10.8878,-10.8976,-10.9186,-10.9228,-10.9283,-10.9423,-10.9559,-10.963,-10.9622,-10.9876,-11.0033,-11.0033,-11.0033,-11.0033,-11.0033,-11.0033,-10.844,-10.5518,-10.5139,-10.2407,-9.7964,-9.7736,-9.8419,-9.9644,-9.985,-9.9914,-9.9904,-9.9777,-9.9583,-9.928,-9.7758,-9.8151,-9.9247,-9.7838,-9.8464,-9.9897,-9.9891,-9.9719,-9.9529,-9.9315,-9.9115,-9.8881,-9.8666,-9.8666,-9.871,-9.8672,-9.8504,-9.756,-9.4608,-9.3555,-9.2441,-8.9477,-8.7546,-8.6792,-8.8262,-8.7081,-8.6418,-8.8225,-8.8381,-8.8288,-8.8288,-8.7964,-8.7067,-8.5209,-8.2757,-8.0605,-7.8942,-7.6791,-7.4768,-7.3025,-7.2652,-7.2486,-7.2516,-7.3825,-7.4704,-7.4955,-7.0571,-6.7415,-6.5833,-6.1205,-5.8204,-5.6958,-5.6997,-5.7701,-5.8975,-6.0541,-6.1101,0.0,0.0,0.0,0.0,0.0,0.0,0.0,0.0,-7.531,-8.0393,-8.3505,-8.7054,-9.2746,-9.5072,-9.753,-10.1853,-10.3875,-10.4954,-10.5028,-10.637,-10.7472,-10.7868,-10.8257,-10.8576,-10.8845,-10.8878,-10.8895,-10.8944,-10.9143,-10.9255,-10.927,-10.9496,-10.9622,-10.9622,-10.9876,-11.0033,-11.0033,-11.0033,-11.0033,-11.0033,-11.0033,-10.9692,-10.8971,-10.6201,-10.3697,-10.1382,-10.0016,-9.884,-9.7971,-9.9349,-9.9924,-9.9906,-9.9768,-9.8938,-9.7785,-9.7332,-9.7417,-9.7652,-9.7341,-9.8355,-9.9746,-9.9749,-9.9808,-9.955,-9.7982,-9.7512,-9.7257,-9.578,-9.628,-9.7203,-9.7109,-9.6953,-9.6323,-9.4378,-9.2727,-9.1108,-8.9264,-8.8471,-8.7843,-8.6829,-8.5354,-8.4739,-8.638,-8.5595,-8.5637,-8.8166,-8.8307,-8.7409,-8.5498,-8.3438,-8.1356,-7.9268,-7.7162,-7.5645,-7.5055,-7.3381,-7.2396,-7.2516,-7.28,-7.3067,-7.3314,-6.8856,-6.5646,-6.4085,-5.9544,-5.7126,-5.6958,-5.8089,-5.8887,-5.9384,-6.0748,-5.9886,0.0,0.0,0.0,0.0,0.0,0.0,0.0,0.0,0.0,0.0,0.0,-7.916,0.0,0.0,-9.2304,-9.6435,-10.0511,-10.3432,-10.4364,-10.5392,-10.6184,-10.6579,-10.7696,-10.8576,-10.8845,-10.8878,-10.8878,-10.8878,-10.8954,-10.9069,-10.9069,-10.9308,-10.9485,-10.9533,-10.9727,-10.9876,-11.0033,-11.0033,-11.0033,-11.0033,-11.0033,-10.9578,-10.8667,-10.6125,-10.4038,-10.2335,-10.0661,-9.9447,-9.8726,-9.9552,-9.992,-9.9923,-9.983,-9.9303,-9.846,-9.7586,-9.7765,-9.8357,-9.7485,-9.8296,-9.9712,-9.9728,-9.9174,-9.8362,-9.7371,-9.6535,-9.5743,-9.4827,-9.5018,-9.55,-9.5473,-9.5298,-9.4735,-9.3112,-9.1983,-9.0816,-8.9173,-8.8766,-8.8454,-8.7544,-8.6032,-8.5471,-8.7079,-8.5994,-8.577,-8.8292,-8.8505,-8.81,-8.7096,-8.4408,-8.1248,-7.7649,-7.4596,-7.2613,-7.2161,-7.0333,-7.0139,-7.2373,-7.2516,-7.2284,-7.1744,-6.791,-6.4711,-6.2426,-5.8617,-5.6775,-5.6958,-5.6823,-5.7219,-5.8167,-5.9598,-5.9252,0.0,0.0,0.0,0.0,0.0,0.0,0.0,0.0,0.0,0.0,0.0,0.0,0.0,0.0,0.0,-9.0155,-9.671,-10.1866,-10.3257,-10.369,-10.4153,-10.479,-10.6745,-10.8126,-10.8339,-10.8674,-10.8878,-10.8878,-10.8878,-10.8878,-10.8878,-10.9114,-10.9283,-10.9401,-10.9524,-10.9675,-10.9909,-10.993,-10.9935,-10.9935,0.0,0.0,-10.7415,-10.5404,-10.3735,-10.2335,-10.0661,-9.9903,-9.9903,-9.9903,-9.9929,-9.9918,-9.9925,-9.9841,-9.9561,-9.7985,-9.8148,-9.9038,-9.769,-9.8333,-9.972,-9.972,-9.8584,-9.7145,-9.6842,-9.5811,0.0,-9.389,-9.4021,-9.4268,-9.3942,-9.365,-9.3143,-9.1888,-9.1236,-9.0558,-8.9162,-8.8852,-8.8819,-8.87,-8.7282,-8.6667,-8.8367,-8.7228,-8.6256,-8.6647,-8.7843,-8.8068,-8.6497,-8.4357,-8.1291,-7.6948,-7.3315,-7.0944,-7.0364,-6.7567,-6.7831,-7.2522,-7.1573,-7.0169,-6.8756,-6.5894,-6.2743,-5.941,-5.6895,-5.5894,-5.6428,-5.5652,-5.5811,-5.6682,-5.46,-5.4338,0.0,0.0,0.0,0.0,0.0,0.0,0.0,0.0,0.0,0.0,0.0,0.0,0.0,0.0,0.0,0.0,-9.3591,-9.984,-10.0052,-10.0498,-10.1379,-10.295,-10.5162,-10.6563,-10.6635,-10.7963,-10.8878,-10.8878,-10.8878,-10.8878,-10.8878,0.0,0.0,0.0,0.0,-10.9495,-10.9515,-10.9599,-10.9689,-10.9644,-10.837,-10.7681,-10.7381,-10.4194,-10.26,-10.2335,-10.0661,-9.9903,-9.9903,-9.9903,-9.9906,-9.9913,-9.9917,-9.9908,-9.9698,-9.8004,-9.7426,-9.7455,-9.7371,0.0,0.0,-9.972,-9.8584,-9.6955,-9.5554,-9.4979,-9.4214,-9.1192,-9.2402,-9.427,-9.262,-9.2081,-9.192,-9.165,-9.04,-8.9253,-8.9051,-8.8908,-8.8836,-8.8819,-8.7369,-8.6667,-8.8367,-8.7228,-8.4686,-8.0476,-8.4889,-8.6011,-7.8719,-8.1252,-8.2798,-8.0502,0.0,0.0,-7.657,-6.937,-6.7497,-7.3665,-6.8206,-6.3939,-6.218,-6.0447,-5.7309,-5.2702,-5.2352,-5.3006,-5.4526,-5.7126,-5.777,-5.6209,-4.1,-3.7726,0.0,0.0,0.0,0.0,0.0,0.0,0.0,0.0,0.0,0.0,0.0,0.0,0.0,0.0,0.0,0.0,-8.6388,-9.0915,-9.0915,-9.6229,-10.0341,-10.1047,-10.3208,-10.4639,-10.4622,-10.5422,-10.6314,-10.7308,-10.7383,-10.7813,-10.8787,-10.8939,-10.9099,-10.9242,-10.9296,-10.9355,-10.9417,-10.8512,-10.8047,-10.8047,-10.6581,-10.591,-10.584,-10.3495,-10.2449,-10.2335,-10.0661,-9.9903,-9.9903,-9.9903,-9.9903,0.0,0.0,0.0,0.0,0.0,-9.8813,-9.8805,-9.8835,-9.8609,-9.8243,-9.8243,-9.6501,-9.4228,-9.3585,-9.2713,-9.1615,-9.0221,-9.0731,-9.1556,-9.0764,-9.0436,-9.0275,-9.0226,-8.9595,-8.901,-8.8909,-8.8886,-8.8808,-8.8733,-8.7299,0.0,-8.7041,-8.6555,-8.5733,-8.4665,-8.6871,-8.7058,-8.2592,-8.3041,-8.1999,-7.7288,-7.5233,-7.4014,-7.3541,-6.8371,0.0,0.0,0.0,-6.6205,-6.5359,-6.3686,0.0,0.0,0.0,0.0,0.0,0.0,0.0,0.0,-4.0175,-3.8252,0.0,0.0,0.0,0.0,0.0,0.0,0.0,0.0,0.0,0.0,0.0,0.0,0.0,0.0,0.0,0.0,0.0,-8.4566,-8.3757,-9.1197,-9.6427,-9.5477,-9.9788,-10.2111,-10.0278,-10.2368,-10.4344,-10.56,-10.5675,-10.6235,-10.745,-10.7525,-10.7606,-10.7787,-10.7772,-10.7767,-10.7886,-10.6736,-10.6166,-10.609,-10.4716,-10.4038,-10.4035,-10.2432,-10.1712,-10.1686,-10.0434,-9.9903,-9.9903,-9.9903,-9.9903,-9.9903,-9.9903,-9.992,-9.9904,-9.9923,-9.9613,-9.9144,-9.8702,-9.766,-9.6567,-9.6567,-9.4659,-9.2335,-9.2335,-9.1464,-9.041,-8.9956,-9.0065,-9.0237,-8.9758,-8.946,-8.9325,-8.9256,-8.9134,-8.9055,-8.8923,-8.8864,-8.8652,-8.8134,-8.6647,-8.5471,-8.5471,-8.5471,-8.5284,-8.4665,-8.6123,0.0,-8.248,-8.2667,-8.1059,-7.575,-7.4222,-7.3366,-7.2877,-6.851,-6.808,-7.3472,-6.9441,-6.7653,-6.9399,-6.5783,-6.1945,-5.8152,-5.1526,-4.6788,0.0,0.0,0.0,0.0,0.0,0.0,0.0,0.0,0.0,0.0,0.0,0.0,0.0,0.0,0.0,0.0,0.0,0.0,0.0,0.0,0.0,0.0,0.0,0.0,-8.1235,-8.5419,-8.7597,-8.4297,-9.4208,-9.8795,-9.2368,-9.9176,-10.4029,-10.4066,-10.4066,-10.4104,-10.4141,-10.4141,-10.4157,-10.4157,-10.4039,-10.3989,-10.3968,-10.4182,-10.422,-10.4069,-10.2753,-10.2208,-10.2278,-10.0579,-9.9876,-9.9978,-9.9941,-9.9903,-9.9903,-9.9903,-9.9903,-9.9903,-9.9903,-9.9903,-9.991,-9.9915,-9.8895,-9.7223,-9.5592,-9.497,-9.493,-9.493,-9.3752,-9.2335,-9.2335,-9.2297,-9.1918,-9.0259,-9.0971,-9.1866,-9.0077,-8.9598,-8.9545,-8.9302,-8.9232,-8.9184,-8.9047,-8.8931,-8.833,-8.6701,-8.5012,-8.3863,-8.3863,-8.3863,-8.1695,-7.5301,-7.9825,0.0,-7.2857,-7.738,-8.0648,-7.8756,-7.8666,-7.8695,-7.8657,-7.117,-6.9895,-7.8,-6.837,-6.5297,-7.1713,-6.3603,-5.8141,-5.6488,-5.3122,-4.8422,-4.2452,0.0,0.0,0.0,0.0,0.0,0.0,0.0,0.0,0.0,0.0,0.0,0.0,0.0,0.0,0.0,0.0,0.0,0.0,0.0,0.0,0.0,0.0,0.0,0.0,0.0,-8.5643,-8.341,-8.8934,-9.0209,-8.3387,-8.952,-9.4419,-9.5561,-9.9724,-10.2724,-10.3953,-10.3991,-10.3975,-10.3872,-10.3889,-10.3889,-10.3822,-10.2879,-10.2353,-10.2316,-10.0905,-10.0307,-10.0412,-9.9939,-9.9794,-9.9903,-9.9903,-9.9903,-9.9903,-9.9903,-9.9903,-9.9903,-9.9903,-9.922,-9.8237,-9.8227,-9.7211,-9.5738,-9.5104,-9.4862,-9.4674,-9.3553,-9.2053,-9.0675,-9.0675,-9.0675,-9.0562,-8.9956,-9.0221,-9.0517,-8.9883,-8.9686,-8.9572,-8.94,-8.849,-8.7621,-8.7408,-8.6488,-8.5522,-8.4784,-7.9766,-7.497,-7.2712,-7.5951,-7.7358,-7.2866,-7.7783,-8.0964,-7.8121,-7.9737,-8.0532,-7.8888,-7.8861,-7.8911,-7.893,-7.5227,-7.3637,-7.5255,-6.9215,-6.6531,-6.8659,-6.452,-6.134,-5.9508,-5.8652,-5.1917,-3.9145,0.0,0.0,0.0,0.0,0.0,0.0,0.0,0.0,0.0,0.0,0.0,0.0,0.0,0.0,0.0,0.0,0.0,0.0,0.0,0.0,0.0,0.0,0.0,0.0,0.0,0.0,-8.174,-8.483,0.0,-7.7469,-8.0896,-8.4264,-8.5981,-9.0642,-9.4916,-9.8456,-9.9239,-10.0351,-10.202,-10.216,-10.216,-10.2057,-10.1071,-10.0576,-10.0576,-9.9664,-9.9283,-9.9465,-9.958,-9.9701,-9.9868,-9.9891,-9.9903,-9.9827,-9.8613,-9.7057,-9.535,-9.4135,-9.1935,-8.9696,-9.2062,-9.1924,-9.0798,-9.2521,-9.2748,-9.1937,-9.0196,-8.7278,-8.435,-8.3756,-8.2355,-8.132,-8.308,-8.4015,-8.4874,-8.6654,-8.749,-8.7845,-8.7713,-8.6862,-8.5978,-8.5732,-8.3462,-8.127,-8.0579,-7.6136,-7.1059,-6.6487,-6.8736,-7.0767,-6.9778,-7.2673,-7.6234,-7.9767,-8.0227,-7.9811,-7.8841,-7.8846,-7.8911,-7.893,-7.6804,-7.5292,-7.473,-7.0179,-6.7705,-6.8097,-6.5446,-6.2233,-5.8544,-5.7054,-5.0122,0.0,0.0,0.0,0.0,0.0,0.0,0.0,0.0,0.0,0.0,0.0,0.0,0.0,0.0,0.0,0.0,0.0,0.0,0.0,0.0,0.0,0.0,0.0,0.0,0.0,0.0,0.0,-7.8389,-8.1206,0.0,0.0,0.0,0.0,-7.5722,-7.7651,-8.1544,-8.7924,-8.9813,-9.3022,-9.8152,-9.8302,-9.8528,-9.8941,-9.8941,-9.8941,-9.8957,-9.8945,-9.9071,-9.9333,-9.9465,-9.958,-9.9708,-9.9868,-9.9899,-9.9637,-9.5881,-9.1593,-8.6999,-8.3436,-7.911,-7.566,-8.2073,-8.3372,-8.2627,-8.7622,-8.8308,-8.6632,-8.4636,-7.9751,-7.421,-7.2161,-6.8286,0.0,0.0,-7.29,-7.5368,-8.0399,-8.2936,-8.4166,-8.4274,-8.4227,-8.4122,-8.3862,-7.9942,-7.5933,0.0,-7.3338,-7.0836,-6.4026,0.0,-6.1773,-6.4794,-6.4446,-6.7316,-7.6959,-7.8505,-7.8729,-7.8729,-7.8846,-7.8934,-7.8934,-7.6097,-7.4947,-7.6249,-7.1108,-6.849,-6.9551,-6.5678,-6.033,-5.3628,-4.8921,0.0,0.0,0.0,0.0,0.0,0.0,0.0,0.0,0.0,0.0,0.0,0.0,0.0,0.0,0.0,0.0,0.0,0.0,0.0,0.0,0.0,0.0,0.0,0.0,0.0,0.0,-6.3067,-6.6728,-6.786,-6.8732,-6.6143,0.0,0.0,0.0,0.0,0.0,0.0,-7.7863,-7.8452,-8.2083,-8.9464,-8.9697,-9.2677,-9.8865,-9.8941,-9.8935,-9.8945,-9.8938,-9.9071,-9.9333,-9.9381,-9.9488,-9.9708,-9.9771,-9.9816,-9.9258,-9.091,-8.6737,-8.5029,-7.9189,-7.5395,-7.3533,-7.6457,-7.6503,-7.5568,-7.9291,-8.0366,-7.9386,-7.5163,-7.2603,-6.9966,-6.3222,0.0,0.0,0.0,0.0,-6.7003,-7.3247,-7.5178,-7.6404,-8.0067,-8.0045,-7.9129,-7.8867,-7.6876,-7.2788,0.0,-5.9192,-5.2839,-4.3786,0.0,0.0,0.0,0.0,-6.4407,-7.0414,-7.5608,-7.8732,-7.8745,-7.8846,-7.8934,-7.8934,-7.7107,-7.511,-7.2971,-6.9811,-6.6977,-6.4597,-5.9852,-5.4539,-4.8759,0.0,0.0,0.0,0.0,0.0,0.0,0.0,0.0,0.0,0.0,0.0,0.0,0.0,0.0,0.0,0.0,0.0,0.0,0.0,0.0,0.0,0.0,0.0,0.0,0.0,0.0,0.0,-5.7496,-6.2764,-6.5044,-6.2777,-5.9147,0.0,0.0,0.0,0.0,0.0,0.0,0.0,0.0,0.0,-7.9815,-8.0027,-8.2969,-8.908,-9.1348,-9.2805,-9.351,-9.5743,-9.7259,-9.8137,-9.746,-9.7689,-9.8493,-9.7882,-9.5504,-9.1557,-8.3808,-7.7595,-7.2359,0.0,0.0,0.0,0.0,-6.3906,-6.4218,-6.7455,-6.9132,-6.8984,-6.3962,0.0,0.0,0.0,0.0,0.0,0.0,0.0,0.0,0.0,0.0,-7.41,-7.6881,-7.685,-7.6124,-7.5973,-6.9519,-6.1849,0.0,-5.1037,-4.5514,-3.6288,0.0,0.0,0.0,0.0,-5.8954,-6.6681,-7.4122,-7.8741,-7.8717,-7.8793,-7.8853,-7.8853,-7.7427,-7.5056,-7.1658,-6.9303,-6.5444,-5.9672,-5.4435,-4.8171,0.0,0.0,0.0,0.0,0.0,0.0,0.0,0.0,0.0,0.0,0.0,0.0,0.0,0.0,0.0,0.0,0.0,0.0,0.0,0.0,0.0,0.0,0.0,0.0,0.0,0.0,0.0,0.0,0.0,-6.0548,-6.3826,0.0,0.0,0.0,0.0,0.0,0.0,0.0,0.0,0.0,0.0,0.0,0.0,0.0,-7.1328,-7.5272,-7.9892,-8.2974,-8.46,-8.9052,-9.2035,-9.3614,-9.2371,-9.2953,-9.4837,-9.2065,0.0,-8.0509,-7.4766,0.0,0.0,0.0,0.0,0.0,0.0,0.0,0.0,0.0,0.0,0.0,0.0,0.0,0.0,0.0,0.0,0.0,0.0,0.0,0.0,0.0,0.0,-7.1272,-7.1514,-7.1969,-7.2118,0.0,-5.9466,-4.8466,-4.6356,-4.5554,0.0,0.0,0.0,0.0,0.0,0.0,0.0,-6.3784,-7.2964,-7.8539,-7.8734,-7.8756,-7.8719,-7.8719,-7.708,-7.4671,-7.1446,-6.8244,-6.2807,-5.4705,-4.9453,0.0,0.0,0.0,0.0,0.0,0.0,0.0,0.0,0.0,0.0,0.0,0.0,0.0,0.0,0.0,0.0,0.0,0.0,0.0,0.0,0.0,0.0,0.0,0.0,0.0,0.0,0.0,0.0,0.0,0.0,0.0,0.0,0.0,0.0,0.0,0.0,0.0,0.0,0.0,0.0,0.0,0.0,0.0,0.0,0.0,0.0,0.0,0.0,0.0,0.0,-7.5317,-7.6607,-7.8162,-7.7879,-8.0231,-8.3945,-7.4215,-7.1602,-7.3369,-6.2828,0.0,0.0,0.0,0.0,0.0,0.0,0.0,0.0,0.0,0.0,0.0,0.0,0.0,0.0,0.0,0.0,0.0,0.0,0.0,0.0,0.0,0.0,0.0,0.0,-5.7407,-5.8839,0.0,0.0,0.0,0.0,0.0,0.0,0.0,0.0,0.0,0.0,0.0,0.0,-5.7504,-6.9292,-7.7449,-7.8747,-7.8786,-7.8719,-7.8719,-7.5893,-7.3181,-7.0835,-6.2752,-5.5324,0.0,0.0,0.0,0.0,0.0,0.0,0.0,0.0,0.0,0.0,0.0,0.0,0.0,0.0,0.0,0.0,0.0,0.0,0.0,0.0,0.0,0.0,0.0,0.0,0.0,0.0,0.0,0.0,0.0,0.0,0.0,0.0,0.0,0.0,0.0,0.0,0.0,0.0,0.0,0.0,0.0,0.0,0.0,0.0,0.0,0.0,0.0,0.0,0.0,0.0,0.0,0.0,0.0,0.0,0.0,0.0,0.0,0.0,0.0,-5.7079,0.0,0.0,0.0,0.0,0.0,0.0,0.0,0.0,0.0,0.0,0.0,0.0,0.0,0.0,0.0,0.0,0.0,0.0,0.0,0.0,0.0,0.0,0.0,0.0,0.0,0.0,0.0,0.0,0.0,0.0,0.0,0.0,0.0,0.0,0.0,0.0,0.0,0.0,0.0,0.0,-5.4836,-6.7878,-7.7187,-7.8756,-7.8793,-7.8382,-7.7597,-7.5892,-7.1524,-6.3672,-5.7613,0.0,0.0,0.0,0.0,0.0,0.0,0.0,0.0,0.0,0.0,0.0,0.0,0.0,0.0,0.0,0.0,0.0,0.0,0.0,0.0,0.0,0.0,0.0,0.0,0.0,0.0,0.0,0.0,0.0,0.0,0.0,0.0,0.0,0.0,0.0,0.0,0.0,0.0,0.0,0.0,0.0,0.0,0.0,0.0,0.0,0.0,0.0,0.0,0.0,0.0,0.0,0.0,0.0,0.0,0.0,0.0,0.0,0.0,0.0,-5.2761,0.0,0.0,0.0,0.0,0.0,0.0,0.0,0.0,0.0,0.0,0.0,0.0,0.0,0.0,0.0,0.0,0.0,0.0,0.0,0.0,0.0,0.0,0.0,0.0,0.0,0.0,0.0,0.0,0.0,0.0,0.0,0.0,0.0,0.0,0.0,0.0,0.0,0.0,0.0,0.0,0.0,-5.3789,-6.7122,-7.6823,-7.8776,-7.8836,-7.8083,-7.655,-7.5447,-6.9635,-5.7489,-5.2289,0.0,0.0,0.0,0.0,0.0,0.0,0.0,0.0,0.0,0.0,0.0,0.0,0.0,0.0,0.0,0.0,0.0,0.0,0.0,0.0,0.0,0.0,0.0,0.0,0.0,0.0,0.0,0.0,0.0,0.0,0.0,0.0,0.0,0.0,0.0,0.0,0.0,0.0,0.0,0.0,0.0,0.0,0.0,0.0,0.0,0.0,0.0,0.0,0.0,0.0,0.0,0.0,0.0,0.0,0.0,0.0,0.0,0.0,0.0,0.0,0.0,0.0,0.0,0.0,0.0,0.0,0.0,0.0,0.0,0.0,0.0,0.0,0.0,0.0,0.0,0.0,0.0,0.0,0.0,0.0,0.0,0.0,0.0,0.0,0.0,0.0,0.0,0.0,0.0,0.0,0.0,0.0,0.0,0.0,0.0,0.0,0.0,0.0,0.0,0.0,0.0,-5.3791,-6.6235,-7.5658,-7.8764,-7.8892,-7.8083,-7.655,-7.2998,-6.7125,-5.833,0.0,0.0,0.0,0.0,0.0,0.0,0.0,0.0,0.0,0.0,0.0,0.0,0.0,0.0,0.0,0.0,0.0,0.0,0.0,0.0,0.0,0.0,0.0,0.0,0.0,0.0,0.0,0.0,0.0,0.0,0.0,0.0,0.0,0.0,0.0,0.0,0.0,0.0,0.0,0.0,0.0,0.0,0.0,0.0,0.0,0.0,0.0,0.0,0.0,0.0,0.0,0.0,0.0,0.0,0.0,0.0,0.0,0.0,0.0,0.0,0.0,0.0,0.0,0.0,0.0,0.0,0.0,0.0,0.0,0.0,0.0,0.0,0.0,0.0,0.0,0.0,0.0,0.0,0.0,0.0,0.0,0.0,0.0,0.0,0.0,0.0,0.0,0.0,0.0,0.0,0.0,0.0,0.0,0.0,0.0,0.0,0.0,0.0,0.0,0.0,0.0,0.0,-5.3885,-6.6176,-7.5497,-7.8776,-7.8906,-7.7611,-7.486,-7.1996,-6.4292,-5.007,0.0,0.0,0.0,0.0,0.0,0.0,0.0,0.0,0.0,0.0,0.0,0.0,0.0,0.0,0.0,0.0,0.0,0.0,0.0,0.0,0.0,0.0,0.0,0.0,0.0,0.0,0.0,0.0,0.0,0.0,0.0,0.0,0.0,0.0,0.0,0.0,0.0,0.0,0.0,0.0,0.0,0.0,0.0,0.0,0.0,0.0,0.0,0.0,0.0,0.0,0.0,0.0,0.0,0.0,0.0,0.0,0.0,0.0,0.0,0.0,0.0,0.0,0.0,0.0,0.0,0.0,0.0,0.0,0.0,0.0,0.0,0.0,0.0,0.0,0.0,0.0,0.0,0.0,0.0,0.0,0.0,0.0,0.0,0.0,0.0,0.0,0.0,0.0,0.0,0.0,0.0,0.0,0.0,0.0,0.0,0.0,0.0,0.0,0.0,0.0,0.0,0.0,-5.3286,-6.5886,-7.554,-7.8835,-7.8883,-7.7319,-7.3749,-7.1042,-6.2239,-4.499,0.0,0.0,0.0,0.0,0.0,0.0,0.0,0.0,0.0,0.0,0.0,0.0,0.0,0.0,0.0,0.0,0.0,0.0,0.0,0.0,0.0,0.0,0.0,0.0,0.0,0.0,0.0,0.0,0.0,0.0,0.0,0.0,0.0,0.0,0.0,0.0,0.0,0.0,0.0,0.0,0.0,0.0,0.0,0.0,0.0,0.0,0.0,0.0,0.0,0.0,0.0,0.0,0.0,0.0,0.0,0.0,0.0,0.0,0.0,0.0,0.0,0.0,0.0,0.0,0.0,0.0,0.0,0.0,0.0,0.0,0.0,0.0,0.0,0.0,0.0,0.0,0.0,0.0,0.0,0.0,0.0,0.0,0.0,0.0,0.0,0.0,0.0,0.0,0.0,0.0,0.0,0.0,0.0,0.0,0.0,0.0,0.0,0.0,0.0,0.0,0.0,0.0,-5.1674,-6.5151,-7.5556,-7.8956,-7.895,-7.7319,-7.3749,-6.9898,-6.1257,0.0,0.0,0.0,0.0,0.0,0.0,0.0,0.0,0.0,0.0,0.0,0.0,0.0,0.0,0.0,0.0,0.0,0.0,0.0,0.0,0.0,0.0,0.0,0.0,0.0,0.0,0.0,0.0,0.0,0.0,0.0,0.0,0.0,0.0,0.0,0.0,0.0,0.0,0.0,0.0,0.0,0.0,0.0,0.0,0.0,0.0,0.0,0.0,0.0,0.0,0.0,0.0,0.0,0.0,0.0,0.0,0.0,0.0,0.0,0.0,0.0,0.0,0.0,0.0,0.0,0.0,0.0,0.0,0.0,0.0,0.0,0.0,0.0,0.0,0.0,0.0,0.0,0.0,0.0,0.0,0.0,0.0,0.0,0.0,0.0,0.0,0.0,0.0,0.0,0.0,0.0,0.0,0.0,0.0,0.0,0.0,0.0,0.0,0.0,0.0,0.0,0.0,0.0,-5.1174,-6.1157,-7.0418,0.0,-7.895,-7.7145,-7.3263,-6.9699,-6.1115,-4.5748,0.0,0.0,0.0,0.0,0.0,0.0,0.0,0.0,0.0,0.0,0.0,0.0,0.0,0.0,0.0,0.0,0.0,0.0,0.0,0.0,0.0,0.0,0.0,0.0,0.0,0.0,0.0,0.0,0.0,0.0,0.0,0.0,0.0,0.0,0.0,0.0,0.0,0.0,0.0,0.0,0.0,0.0,0.0,0.0,0.0,0.0,0.0,0.0,0.0,0.0,0.0,0.0,0.0,0.0,0.0,0.0,0.0,0.0,0.0,0.0,0.0,0.0,0.0,0.0,0.0,0.0,0.0,0.0,0.0,0.0,0.0,0.0,0.0,0.0,0.0,0.0,0.0,0.0,0.0,0.0,0.0,0.0,0.0,0.0,0.0,0.0,0.0,0.0,0.0,0.0,0.0,0.0,0.0,0.0,0.0,0.0,0.0,0.0,0.0,0.0,0.0,0.0,0.0,-6.0845,-7.0725,0.0,-7.8114,-7.6479,-7.2946,-6.8883,-6.0454,-4.6236,0.0,0.0,0.0,0.0,0.0,0.0,0.0,0.0,0.0,0.0,0.0,0.0,0.0,0.0,0.0,0.0,0.0,0.0,0.0,0.0,0.0,0.0,0.0,0.0,0.0,0.0,0.0,0.0,0.0,0.0,0.0,0.0,0.0,0.0,0.0,0.0,0.0,0.0,0.0,0.0,0.0,0.0,0.0,0.0,0.0,0.0,0.0,0.0,0.0,0.0,0.0,0.0,0.0,0.0,0.0,0.0,0.0,0.0,0.0,0.0,0.0,0.0,0.0,0.0,0.0,0.0,0.0,0.0,0.0,0.0,0.0,0.0,0.0,0.0,0.0,0.0,0.0,0.0,0.0,0.0,0.0,0.0,0.0,0.0,0.0,0.0,0.0,0.0,0.0,0.0,0.0,0.0,0.0,0.0,0.0,0.0,0.0,0.0,0.0,0.0,0.0,0.0,0.0,-6.314,-7.4674,-7.6603,-7.6648,-7.5447,-7.2718,-6.7716,-5.9554,-4.7411,-4.0393,0.0,0.0,0.0,0.0,0.0,0.0,0.0,0.0,0.0,0.0,0.0,0.0,0.0,0.0,0.0,0.0,0.0,0.0,0.0,0.0,0.0,0.0,0.0,0.0,0.0,0.0,0.0,0.0,0.0,0.0,0.0,0.0,0.0,0.0,0.0,0.0,0.0,0.0,0.0,0.0,0.0,0.0,0.0,0.0,0.0,0.0,0.0,0.0,0.0,0.0,0.0,0.0,0.0,0.0,0.0,0.0,0.0,0.0,0.0,0.0,0.0,0.0,0.0,0.0,0.0,0.0,0.0,0.0,0.0,0.0,0.0,0.0,0.0,0.0,0.0,0.0,0.0,0.0,0.0,0.0,0.0,0.0,0.0,0.0,0.0,0.0,0.0,0.0,0.0,0.0,0.0,0.0,0.0,0.0,0.0,0.0,0.0,0.0,0.0,0.0,0.0,0.0,-6.1234,-6.9446,-7.6078,-7.6588,-7.5287,-7.2442,-6.7421,-5.9318,-4.7267,-4.0194,0.0,0.0,0.0,0.0,0.0,0.0,0.0,0.0,0.0,0.0,0.0,0.0,0.0,0.0,0.0,0.0,0.0,0.0,0.0,0.0,0.0,0.0,0.0,0.0,0.0,0.0,0.0,0.0,0.0,0.0,0.0,0.0,0.0,0.0,0.0,0.0,0.0,0.0,0.0,0.0,0.0,0.0,0.0,0.0,0.0,0.0,0.0,0.0,0.0,0.0,0.0,0.0,0.0,0.0,0.0,0.0,0.0,0.0,0.0,0.0,0.0,0.0,0.0,0.0,0.0,0.0,0.0,0.0,0.0,0.0,0.0,0.0,0.0,0.0,0.0,0.0,0.0,0.0,0.0,0.0,0.0,0.0,0.0,0.0,0.0,0.0,0.0,0.0,0.0,0.0,0.0,0.0,0.0,0.0,0.0,0.0,0.0,0.0,0.0,0.0,0.0,0.0,-5.1499,-6.0712,-7.4176,-7.5488,-7.4484,-7.2207,-6.5785,-5.7442,-4.6996,-3.987,0.0,0.0,0.0,0.0,0.0,0.0,0.0,0.0,0.0,0.0,0.0,0.0,0.0,0.0,0.0,0.0,0.0,0.0,0.0,0.0,0.0,0.0,0.0,0.0,0.0,0.0,0.0,0.0,0.0,0.0,0.0,0.0,0.0,0.0,0.0,0.0,0.0,0.0,0.0,0.0,0.0,0.0,0.0,0.0,0.0,0.0,0.0,0.0,0.0,0.0,0.0,0.0,0.0,0.0,0.0,0.0,0.0,0.0,0.0,0.0,0.0,0.0,0.0,0.0,0.0,0.0,0.0,0.0,0.0,0.0,0.0,0.0,0.0,0.0,0.0,0.0,0.0,0.0,0.0,0.0,0.0,0.0,0.0,0.0,0.0,0.0,0.0,0.0,0.0,0.0,0.0,0.0,0.0,0.0,0.0,0.0,0.0,0.0,0.0,0.0,0.0,0.0,0.0,-5.2719,-7.0241,-7.3153,-7.3222,-7.1667,-6.3733,-5.5066,-4.6134,0.0,0.0,0.0,0.0,0.0,0.0,0.0,0.0,0.0,0.0,0.0,0.0,0.0,0.0,0.0,0.0,0.0,0.0,0.0,0.0,0.0,0.0,0.0,0.0,0.0,0.0,0.0,0.0,0.0,0.0,0.0,0.0,0.0,0.0,0.0,0.0,0.0,0.0,0.0,0.0,0.0,0.0,0.0,0.0,0.0,0.0,0.0,0.0,0.0,0.0,0.0,0.0,0.0,0.0,0.0,0.0,0.0,0.0,0.0,0.0,0.0,0.0,0.0,0.0,0.0,0.0,0.0,0.0,0.0,0.0,0.0,0.0,0.0,0.0,0.0,0.0,0.0,0.0,0.0,0.0,0.0,0.0,0.0,0.0,0.0,0.0,0.0,0.0,0.0,0.0,0.0,0.0,0.0,0.0,0.0,0.0,0.0,0.0,0.0,0.0,0.0,0.0,0.0,0.0,0.0,-6.148,-6.8153,-7.1484,-6.9919,-6.2995,-5.4051,-4.2999,0.0,0.0,0.0,0.0,0.0,0.0,0.0,0.0,0.0,0.0,0.0,0.0,0.0,0.0]}],[{"header":{"parameterUnit":"kt","parameterCategory":2,"dx":1,"dy":1,"la1":29.285339999999998,"la2":30.599998999999997,"lo1":-89.70041500000002,"lo2":-87.6738589999976,"nx":112,"ny":82,"refTime":"2022-10-20T12:00:00:Z","depth":0,"parameterNumber":2,"parameterNumberName":"V-component_of_WINDS"},"data":[2.5233,2.6336,0.0,2.2117,2.2362,0.0,1.7608,0.0,0.0,0.0,0.0,0.0,0.0,0.0,0.0,0.0,0.0,0.0,0.0,0.0,0.0,0.0,0.0,0.0,0.0,0.0,0.0,0.0,0.0,0.0,0.0,0.0,3.1715,3.419,3.6028,3.8014,4.0152,4.0342,4.0986,4.2088,4.0738,4.0712,4.1804,4.2426,4.2861,4.3232,4.4073,4.4373,4.4242,4.3802,4.4,4.4589,4.4996,4.5646,4.631,4.6124,4.6969,4.8355,4.9205,5.0017,5.0636,5.0998,5.1042,5.0973,5.1388,5.144,5.1319,5.1319,5.196,5.2749,5.3146,5.4028,5.485,5.4827,5.476,5.4615,5.4083,5.3667,5.3482,5.3874,5.4117,5.4195,5.3874,5.4789,5.5402,5.4884,5.5774,5.6783,5.7323,5.8168,5.894,5.9355,5.9826,6.0283,6.0558,5.9117,5.8191,5.8325,5.6493,5.5339,5.5201,5.5303,5.5445,5.5667,5.5667,5.5764,5.5919,5.422,5.3044,5.2393,5.0743,4.952,0.0,0.0,2.3413,1.7933,0.0,0.0,0.0,0.0,0.0,0.0,0.0,0.0,0.0,0.0,0.0,0.0,0.0,0.0,0.0,0.0,0.0,0.0,0.0,0.0,0.0,0.0,0.0,0.0,0.0,0.0,0.0,3.0037,3.0671,3.2421,3.4591,3.6666,3.8749,3.9444,4.0488,4.1822,4.0594,4.0404,4.1156,4.1589,4.2021,4.2572,4.3793,4.4101,4.3698,4.3429,4.3272,4.314,4.3455,4.413,4.5071,4.4783,4.5283,4.6246,4.768,4.8868,4.991,5.0839,5.12,5.1309,5.151,5.151,5.1552,5.1752,5.1927,5.2258,5.2784,5.3436,5.4004,5.4045,5.3772,5.3583,5.3809,5.3283,5.2936,5.3404,5.3874,5.3972,5.3482,5.4117,5.4628,5.4436,5.5372,5.6185,5.6515,5.7645,5.8567,5.8844,5.9508,6.0048,6.025,5.9009,5.8156,5.8011,5.5543,5.4372,5.5037,5.5175,5.5319,5.5569,5.5593,5.542,5.4999,5.3139,5.1939,5.1309,4.8974,4.8014,0.0,0.0,0.0,1.3191,0.0,0.0,0.0,0.0,1.3161,0.0,0.0,0.0,0.0,0.0,0.0,0.0,0.0,0.0,0.0,0.0,0.0,0.0,0.0,0.0,0.0,0.0,0.0,0.0,0.0,0.0,2.9515,2.9746,2.9582,2.9538,3.2424,3.4623,3.6049,3.7785,3.9821,4.2306,4.0969,4.0199,3.989,4.038,4.0868,4.1348,4.2591,4.3379,4.3736,4.292,4.2542,4.2277,4.1515,4.2632,4.4566,4.4566,4.44,4.4379,4.6288,4.7654,4.8811,5.0718,5.1151,5.093,5.1376,5.151,5.151,5.151,5.1927,5.2365,5.1993,5.2456,5.3241,5.4133,5.2753,5.187,5.3972,5.3133,5.2123,5.3036,5.3433,5.365,5.365,5.365,5.3796,5.434,5.4849,5.5495,5.6411,5.7311,5.8126,5.8803,5.9347,5.9819,6.0211,6.025,5.9417,5.7456,5.5132,5.4102,5.4765,5.5037,5.5329,5.5569,5.5569,5.4892,5.3468,5.3524,5.2182,4.9523,4.7977,4.7517,1.624,0.0,0.0,0.0,0.0,0.0,0.0,0.0,0.0,0.0,0.0,0.0,0.0,0.0,0.0,0.0,0.0,0.0,0.0,0.0,0.0,0.0,0.0,0.0,0.0,0.0,0.0,0.0,0.0,0.0,2.8948,2.7872,2.757,2.8816,3.0922,3.2888,3.4736,3.6205,3.8155,4.0422,3.955,3.9527,4.0262,4.0543,4.1015,4.1662,4.275,4.3531,4.4084,4.3609,4.3101,4.2501,4.2162,4.2126,4.2168,4.2168,4.2823,4.3826,4.4958,4.5482,4.6016,4.8156,4.9203,4.991,5.1151,5.151,5.151,5.151,5.1619,5.1885,5.2233,5.2258,5.2216,5.2191,5.1596,5.1038,5.1103,5.118,5.148,5.1919,5.2757,5.3334,5.3334,5.3334,5.3482,5.3796,5.434,5.4867,5.5495,5.6366,5.7267,5.8084,5.8752,5.9395,6.0088,6.0172,5.923,5.6802,5.4446,5.3439,5.4102,5.4631,5.5037,5.5294,5.5494,5.4843,5.3341,5.2327,5.094,4.9275,4.7758,4.7205,0.0,0.0,0.0,0.0,0.0,0.0,1.1264,0.0,1.1159,0.0,0.0,0.0,0.0,0.0,0.0,0.0,0.0,0.0,0.0,0.0,0.0,0.0,0.0,0.0,0.0,0.0,0.0,0.0,0.0,2.4158,2.8895,2.7606,2.7302,2.8481,3.0286,3.1997,3.3343,3.4983,3.6597,3.8258,3.8787,3.9363,3.9936,4.0362,4.106,4.2073,4.2408,4.3223,4.427,4.3699,4.3117,4.2564,4.2465,4.1988,4.1196,4.1206,4.1754,4.2659,4.3434,4.4202,4.4938,4.5707,4.6679,4.7853,4.9663,5.0272,5.0544,5.1297,5.151,5.1552,5.1993,5.1861,5.1713,5.1619,5.1081,5.06,5.0283,5.0424,5.061,5.0755,5.1737,5.2506,5.2405,5.2556,5.2858,5.3404,5.405,5.461,5.5133,5.5988,5.6858,5.7602,5.8368,5.903,5.9548,5.9858,5.9187,5.7233,5.5418,5.4347,5.4175,5.4217,5.4577,5.5268,5.5233,5.4237,5.2365,5.1528,5.0047,4.802,4.7154,4.6914,0.0,0.0,0.0,0.0,1.1476,0.0,0.0,0.0,0.0,0.0,0.0,0.0,0.0,0.0,0.0,0.0,0.0,0.0,0.0,0.0,0.0,0.0,0.0,0.0,0.0,0.0,2.4848,2.8169,2.5136,2.4894,2.9022,2.8338,2.7988,2.8363,3.0138,3.1415,3.2116,3.3771,3.5129,3.6361,3.8209,3.9181,3.9345,3.9928,4.0969,4.2259,4.188,4.2692,4.4099,4.356,4.3022,4.2612,4.2612,4.21,4.1326,4.1234,4.1301,4.1431,4.2059,4.3339,4.465,4.355,4.4037,4.5488,4.7247,4.8232,4.9129,5.086,5.1443,5.151,5.151,5.151,5.1552,5.1819,5.095,5.0237,5.0664,5.0167,4.9571,4.9638,5.0567,5.1273,5.0934,5.148,5.2174,5.2986,5.3806,5.4532,5.5086,5.5851,5.6636,5.7198,5.8019,5.865,5.8885,5.9347,5.9098,5.7929,5.7013,5.5844,5.4457,5.3697,5.3966,5.5208,5.4845,5.3465,5.1056,5.1092,4.9609,4.6638,4.6502,4.6648,0.0,0.0,0.0,0.0,0.0,1.0871,0.0,0.0,0.0,0.0,0.0,0.0,0.0,0.0,0.0,0.0,0.0,0.0,0.0,0.0,0.0,0.0,0.0,0.0,0.0,2.4175,2.5374,2.7651,2.6799,2.6891,2.8502,2.7966,2.7853,2.8375,2.9162,3.0197,3.1497,3.1864,3.3315,3.6061,3.571,3.6947,3.9573,3.8872,3.9711,4.172,4.1443,4.2011,4.3297,4.3817,4.37,4.3052,4.3052,4.2708,4.2199,4.1501,4.164,4.2062,4.1604,4.1634,4.1889,4.2021,4.2995,4.405,4.4155,4.6204,4.8692,4.9829,5.0815,5.151,5.151,5.151,5.151,5.1552,5.0189,4.9068,4.9685,4.9132,4.8593,4.8797,4.9772,5.0305,4.9558,5.0777,5.197,5.2123,5.3107,5.3972,5.4484,5.5073,5.5789,5.6636,5.7242,5.7977,5.8803,5.8998,5.8298,5.6487,5.6203,5.5138,5.2965,5.2759,5.3114,5.4096,5.4581,5.3425,5.0662,5.0946,4.9994,4.7839,4.6929,4.6511,0.0,0.0,0.0,1.1128,0.0,0.0,0.0,0.0,0.0,0.0,0.0,0.0,0.0,0.0,0.0,0.0,0.0,0.0,0.0,0.0,0.0,0.0,0.0,0.0,2.3283,2.3632,2.4363,2.5729,2.6532,2.7574,2.8851,2.8568,2.8501,2.8491,2.9194,2.9988,3.0696,3.1136,3.2144,3.3665,3.3967,3.4988,3.6715,3.6838,3.8212,4.0724,4.0787,4.1727,4.3279,4.3708,4.3828,4.3672,4.3279,4.3198,4.2996,4.1664,4.1424,4.1679,4.0908,4.0852,4.1069,4.0849,4.1549,4.2236,4.1663,4.3293,4.586,4.8419,5.0271,5.151,5.151,5.151,5.151,5.151,5.0745,4.9901,4.9231,4.8744,4.8283,4.7784,4.833,4.8772,4.8608,5.0012,5.1301,5.1817,5.2808,5.3679,5.437,5.4658,5.5168,5.6079,5.6636,5.7254,5.8041,5.8628,5.8213,5.6541,5.6173,5.5128,5.3233,5.2736,5.2591,5.2864,5.3518,5.3011,5.1312,5.0942,4.9449,4.692,4.66,4.6451,0.0,0.0,0.0,0.0,0.0,0.0,1.1763,1.2037,1.2958,0.0,0.0,0.0,0.0,0.0,0.0,0.0,0.0,0.0,0.0,0.0,0.0,0.0,0.0,0.0,2.2325,2.2706,2.3186,2.3689,2.5563,2.735,2.8894,2.9187,2.9187,2.8707,2.9508,3.0089,3.0293,3.101,3.1456,3.1497,3.259,3.3415,3.3775,3.4613,3.6386,3.8825,3.9704,4.1093,4.2766,4.3291,4.3622,4.3739,4.3513,4.3605,4.3666,4.2233,4.1589,4.1402,4.0528,4.0584,4.0878,4.0104,4.0317,4.0649,3.9994,4.0849,4.2761,4.6208,4.8961,5.0951,5.1236,5.1376,5.151,5.151,5.1339,5.0696,4.9078,4.8549,4.7992,4.6874,4.682,4.719,4.7887,4.9125,5.0358,5.1429,5.2405,5.3285,5.4098,5.4292,5.4694,5.5465,5.6049,5.6636,5.7154,5.8041,5.8041,5.6675,5.6029,5.504,5.3553,5.2739,5.2177,5.1883,5.2493,5.2383,5.1491,5.0726,4.885,4.6037,4.6265,4.6411,0.0,0.0,0.0,0.0,0.0,0.0,1.6423,1.6772,1.7645,0.0,0.0,0.0,0.0,0.0,0.0,0.0,0.0,0.0,0.0,0.0,0.0,0.0,0.0,0.0,2.2095,2.2868,2.3134,2.2469,2.4289,2.6177,2.7742,2.8772,2.9345,2.9249,2.9405,2.9895,3.0809,3.0903,3.1362,3.2137,3.1779,3.2313,3.359,3.3207,3.3653,3.496,3.774,3.9224,3.9986,4.2522,4.2916,4.2033,4.3598,4.4195,4.4149,4.3666,4.3034,4.2275,4.1361,4.07,4.0185,4.009,3.998,3.9943,3.9696,4.0303,4.1244,4.2529,4.5678,4.9014,5.017,5.0949,5.151,5.151,5.0728,4.9806,4.9255,4.8299,4.7255,4.6154,4.5987,4.6307,4.7164,4.8141,4.918,5.0358,5.1405,5.2376,5.3313,5.4001,5.4436,5.458,5.5372,5.6049,5.6636,5.7167,5.6844,5.5317,5.4932,5.3979,5.2179,5.1916,5.1818,5.1883,5.2305,5.1473,4.9335,5.0005,4.9278,4.7222,4.6468,4.6243,0.0,0.0,0.0,0.0,0.0,0.0,0.0,1.6754,0.0,0.0,0.0,0.0,0.0,0.0,0.0,0.0,0.0,0.0,0.0,0.0,0.0,0.0,0.0,0.0,0.0,2.212,2.2528,2.1604,2.4094,2.5769,2.6206,2.7842,2.8623,2.8319,2.9025,2.9574,3.0027,3.0313,3.077,3.1468,3.0813,3.0843,3.1512,3.1063,3.1702,3.3351,3.4755,3.6514,3.845,3.9645,4.0712,4.1529,4.238,4.3518,4.4555,4.3745,4.33,4.3053,4.1645,4.0963,4.0642,4.0224,4.0031,3.9845,3.9151,3.9866,4.1015,4.1482,4.3538,4.6101,4.8592,5.0022,5.0974,5.1376,5.1144,5.0402,4.8903,4.8228,4.7552,4.6531,4.6086,4.5962,4.6364,4.7612,4.8772,4.9261,5.0384,5.1536,5.2354,5.2879,5.3473,5.434,5.4771,5.5215,5.5743,5.6607,5.6403,5.4808,5.4861,5.4196,5.2441,5.1941,5.1685,5.1652,5.1916,5.1154,4.9317,4.8844,4.8406,4.7946,4.6512,4.6033,1.0832,0.0,0.0,0.0,0.0,0.0,0.0,0.0,0.0,0.0,0.0,0.0,0.0,0.0,0.0,0.0,0.0,0.0,0.0,0.0,0.0,0.0,0.0,0.0,0.0,0.0,0.0,0.0,2.3393,2.4974,2.5376,2.6634,2.7453,2.7838,2.8918,2.9621,2.9755,3.014,3.0462,3.0694,3.0351,3.0061,2.9712,2.9497,3.0174,3.1474,3.2271,3.3784,3.5559,3.6075,3.7674,3.9985,4.1112,4.2535,4.3958,4.3569,4.3548,4.3401,4.1884,4.1321,4.1058,4.0339,3.9882,3.95,3.8713,3.9155,4.0066,4.0287,4.1397,4.3212,4.5954,4.8199,4.9983,5.081,5.1285,5.0997,4.9076,4.8379,4.7769,4.6465,4.5833,4.5699,4.5847,4.6933,4.7917,4.8498,4.9477,5.0542,5.1635,5.2016,5.27,5.3923,5.4244,5.4484,5.4961,5.5911,5.5737,5.4077,5.4286,5.3809,5.2301,5.1697,5.1417,5.155,5.1617,5.1161,5.0148,4.8349,4.7534,4.7606,4.6066,4.5675,0.0,0.0,0.0,0.0,0.0,0.0,0.0,0.0,0.0,0.0,0.0,0.0,0.0,0.0,0.0,0.0,0.0,0.0,0.0,0.0,0.0,0.0,0.0,0.0,0.0,0.0,0.0,0.0,2.1509,2.3164,2.5697,2.5104,2.5764,2.8245,2.9442,3.0394,3.0889,3.0901,3.0629,3.0122,3.0682,3.0264,2.9161,2.9144,2.8848,2.8399,3.0736,3.1098,3.0165,3.2041,3.4042,3.6306,3.9985,4.1529,4.1947,4.3671,4.3784,4.2999,4.2139,4.1555,4.1058,4.0339,3.9427,3.8738,3.8519,3.8002,3.752,3.8031,3.9095,4.0507,4.2002,4.5409,4.872,4.9605,5.068,5.1192,4.9955,4.893,4.755,4.5381,4.4942,4.5151,4.5732,4.5724,4.6275,4.8275,4.8663,4.9369,5.1273,5.1737,5.2275,5.3214,5.3728,5.4147,5.4418,5.4961,5.4518,5.2821,5.2595,5.2165,5.1207,5.0801,5.094,5.1718,5.1584,5.1551,5.1619,4.8808,4.6863,4.5727,4.4922,4.5096,1.2329,0.0,0.0,0.0,0.0,0.0,0.0,0.0,0.0,0.0,0.0,0.0,0.0,0.0,0.0,0.0,0.0,0.0,0.0,0.0,0.0,0.0,0.0,0.0,0.0,0.0,0.0,0.0,0.0,0.0,2.3657,2.4052,2.4881,2.6105,2.7682,2.922,3.0926,3.0926,3.0827,3.0641,3.0487,3.0411,3.0289,2.9519,2.9056,2.8861,2.9207,2.9118,2.8821,3.0178,3.2115,3.4352,3.5964,3.8006,4.0134,4.1112,4.1924,4.2561,4.263,4.2239,4.1476,4.069,3.9863,3.9035,3.8135,3.8189,3.8551,3.8062,3.8826,4.0194,4.2116,4.3947,4.5908,4.8373,4.9682,4.9907,4.833,4.7682,4.7351,4.7147,4.5917,4.4976,4.521,4.5525,4.593,4.6446,4.7332,4.8362,4.9423,5.0199,5.1041,5.2225,5.265,5.3078,5.361,5.4292,5.4093,5.261,5.2334,5.1652,5.039,5.0245,5.0177,5.0319,5.0942,5.1282,5.1318,4.8458,4.6988,4.6797,4.4962,4.4359,0.0,0.0,0.0,1.8834,0.0,0.0,0.0,0.0,0.0,0.0,0.0,0.0,0.0,0.0,0.0,0.0,0.0,0.0,0.0,0.0,0.0,0.0,0.0,0.0,0.0,0.0,0.0,0.0,0.0,2.1488,2.2478,2.3106,2.3948,2.5317,2.6444,2.8149,3.0521,3.1013,3.1013,3.0619,3.0485,3.0409,3.0288,2.9552,2.9085,2.8886,2.8426,2.8156,2.7963,2.8808,3.0327,3.223,3.346,3.5382,3.7561,3.8612,4.003,4.1441,4.1552,4.1911,4.2139,4.0999,4.0269,3.9615,3.814,3.7932,3.808,3.7493,3.7922,3.8939,4.0541,4.2063,4.3814,4.6238,4.7821,4.8349,4.692,4.7262,4.769,4.7284,4.6368,4.5534,4.4991,4.5268,4.5583,4.5583,4.6396,4.7414,4.8441,4.9097,5.004,5.1583,5.1965,5.2449,5.3214,5.3806,5.3656,5.2489,5.1832,5.1,5.0,4.9607,4.9495,4.9714,5.0457,5.0873,5.0908,4.8685,4.7486,4.7276,4.5397,4.4382,0.0,1.4296,0.0,2.2183,0.0,0.0,0.0,0.0,0.0,0.0,2.2544,0.0,0.0,0.0,0.0,0.0,0.0,0.0,0.0,0.0,0.0,0.0,0.0,0.0,0.0,0.0,0.0,0.0,1.8686,1.9589,2.2257,2.2058,2.3097,2.5654,2.5747,2.7048,2.9747,3.1058,3.1158,3.0165,3.0671,3.037,2.9358,2.9203,2.8841,2.8364,2.8338,2.7997,2.7479,2.7975,2.875,2.9884,3.2215,3.3548,3.4207,3.6181,3.8115,3.9615,3.9148,4.0711,4.2684,4.1237,4.064,4.0307,3.868,3.7361,3.6366,3.6234,3.6451,3.6891,3.761,3.9893,4.2324,4.3379,4.5304,4.6703,4.602,4.7506,4.8338,4.6074,4.6308,4.6521,4.522,4.4967,4.5093,4.5757,4.5872,4.6478,4.822,4.8496,4.9288,5.117,5.1635,5.2202,5.3086,5.3453,5.3242,5.2303,5.1055,5.0184,4.9868,4.8878,4.8787,4.9818,5.0098,5.0344,5.0489,4.9422,4.8297,4.7026,4.61,4.5011,0.0,0.0,1.7312,1.9951,2.0594,2.103,0.0,0.0,2.2452,0.0,2.1459,2.0614,1.5418,0.0,0.0,0.0,0.0,0.0,0.0,0.0,0.0,0.0,0.0,0.0,0.0,0.0,0.0,0.0,1.8248,1.9207,1.993,2.0705,2.1814,2.3387,2.4629,2.5771,2.6867,2.972,3.1141,3.1307,3.0652,3.0189,2.99,2.9466,2.8955,2.8392,2.799,2.7706,2.7539,2.7618,2.8036,2.874,2.9285,3.0259,3.168,3.3314,3.4679,3.6042,3.8841,3.9833,4.0183,4.1516,4.1152,4.0061,3.9655,3.8452,3.7217,3.716,3.6786,3.6859,3.8571,3.9557,4.0554,4.2305,4.3797,4.5058,4.5703,4.6318,4.6862,4.7408,4.6221,4.5393,4.6089,4.53,4.4742,4.5093,4.5558,4.6045,4.6478,4.7358,4.8223,4.9234,5.0358,5.1353,5.2174,5.2908,5.2931,5.191,5.0627,4.9449,4.8436,4.7816,4.7807,4.8368,4.8712,4.9199,4.9822,4.8981,4.8006,4.6995,4.5777,4.4579,1.0851,1.3188,1.5929,0.0,1.8724,1.9282,2.0695,0.0,2.0981,1.8412,1.7709,1.6555,1.3089,1.2221,0.0,0.0,0.0,0.0,0.0,0.0,0.0,0.0,0.0,0.0,0.0,0.0,0.0,0.0,1.7251,1.8217,1.8639,1.9609,2.057,2.1743,2.2682,2.394,2.5479,2.7131,2.907,3.1363,3.0731,3.0358,3.0093,2.9394,2.8808,2.8405,2.8056,2.7683,2.7324,2.7428,2.7686,2.8081,2.819,2.896,3.001,3.1191,3.2446,3.3929,3.6347,3.8361,3.9799,4.0104,4.021,4.0138,3.9138,3.8011,3.6902,3.641,3.6322,3.6495,3.7107,3.8266,3.9517,4.0809,4.2288,4.3579,4.4192,4.4719,4.5643,4.7524,4.6547,4.5512,4.5706,4.5051,4.459,4.4683,4.5151,4.5558,4.5814,4.6453,4.7302,4.8496,4.9396,5.0331,5.1301,5.2202,5.2393,5.1825,5.0406,4.926,4.8536,4.7507,4.7159,4.7539,4.7776,4.8214,4.8876,4.9028,4.8219,4.6492,4.6189,4.4935,0.0,0.0,1.3302,0.0,1.7016,1.7392,0.0,0.0,1.9454,0.0,1.3175,1.2026,1.1832,1.1448,1.1701,1.3464,0.0,0.0,0.0,0.0,0.0,0.0,0.0,0.0,0.0,0.0,0.0,0.0,1.6068,1.6809,1.7882,1.8424,1.9288,2.0456,2.057,2.1832,2.4463,2.4214,2.6051,3.0038,3.0339,3.0459,3.0105,2.9116,2.8699,2.8675,2.8475,2.7874,2.7093,2.7446,2.7601,2.759,2.8058,2.8558,2.9017,2.9489,3.0878,3.2506,3.3233,3.6338,3.9561,3.8006,3.8708,3.989,3.8122,3.7061,3.6278,3.5155,3.5472,3.5883,3.5015,3.6492,3.8478,3.9052,4.0437,4.1667,4.1834,4.2911,4.44,4.6413,4.6724,4.6169,4.4739,4.4489,4.4439,4.4437,4.4649,4.5035,4.5641,4.5757,4.6421,4.8054,4.8663,4.9342,5.0411,5.1249,5.1817,5.1919,5.0257,4.9303,4.9366,4.7548,4.667,4.6997,4.7118,4.741,4.7912,4.9162,4.853,4.6135,4.6813,4.5663,0.0,0.0,1.0821,1.3191,1.3245,0.0,1.5185,1.5327,1.4565,1.3133,1.1244,0.9592,0.8714,0.8523,0.8823,1.0025,1.0388,0.0,0.0,0.0,0.0,0.0,0.0,0.0,0.0,0.0,0.0,0.0,0.0,1.5853,1.5955,1.66,1.7453,1.8624,1.9181,2.0036,2.1521,2.2816,2.4108,2.5293,2.768,2.9322,3.0093,2.9478,2.9238,2.9238,2.8688,2.7957,2.7082,2.7443,2.7309,2.7017,2.7372,2.7652,2.7749,2.8307,2.9073,3.0083,3.2227,3.3835,3.5263,3.7641,3.8175,3.8048,3.8691,3.8087,3.6983,3.6274,3.5481,3.5004,3.5472,3.5431,3.5787,3.7474,3.7862,3.8177,3.9247,4.0913,4.2518,4.3526,4.5222,4.6055,4.4576,4.4166,4.4037,4.4201,4.42,4.4378,4.4707,4.5234,4.5757,4.6307,4.775,4.8826,4.9234,5.0305,5.1225,5.184,4.99,4.8932,4.932,4.7217,4.5977,4.5952,4.6494,4.6956,4.737,4.8468,4.8497,4.7632,4.6813,4.5813,0.0,0.0,0.0,1.1065,0.0,1.0666,1.1609,1.1907,1.1495,1.0314,0.9076,0.8122,0.7852,0.7741,0.8159,0.9323,0.9608,0.9626,0.0,0.0,0.0,0.0,0.0,0.0,0.0,0.0,0.0,0.0,0.0,1.5105,1.5105,1.5745,1.6385,1.7345,1.7567,1.8431,1.983,2.0661,2.1944,2.3739,2.5386,2.7075,2.8791,2.768,2.7677,2.8577,2.9173,2.8677,2.7429,2.7614,2.7359,2.6933,2.7378,2.747,2.7602,2.8041,2.8398,2.8934,3.0743,3.2287,3.3732,3.4979,3.6145,3.7033,3.6523,3.6731,3.6711,3.5423,3.5259,3.5319,3.4738,3.4703,3.5112,3.5813,3.6195,3.6741,3.8173,3.9742,4.1255,4.2665,4.3839,4.4557,4.4319,4.3852,4.3464,4.36,4.4022,4.4378,4.4472,4.4766,4.5176,4.5583,4.6592,4.7358,4.7809,4.8935,4.988,5.0567,4.9089,4.8416,4.8932,4.6649,4.5513,4.5796,4.609,4.634,4.6517,4.7549,4.7586,4.6574,4.5943,4.5181,1.0528,1.0657,0.0,0.0,0.9547,0.9422,0.9326,0.9433,0.9214,0.7766,0.7278,0.7088,0.7606,0.764,0.795,0.9132,0.9362,0.9267,0.9145,0.0,0.0,0.0,0.0,0.0,0.0,0.0,0.0,0.0,0.0,0.0,1.4565,1.5105,1.5638,1.617,1.6391,1.7137,1.8538,1.8653,1.9922,0.0,2.311,2.4479,2.6445,2.5165,2.5626,2.7354,2.8936,2.8743,2.7431,2.7828,2.7575,2.7085,2.7348,2.7527,2.7611,2.775,2.8028,2.8261,2.9155,3.0824,3.2577,3.2136,3.3835,3.5958,3.4461,3.5135,3.6115,3.4706,3.5023,3.5521,3.4168,3.4276,3.4756,3.4326,3.486,3.5886,3.7216,3.8642,4.0125,4.1791,4.2592,4.3174,4.3897,4.3429,4.3013,4.3086,4.3684,4.4212,4.4472,4.4531,4.4707,4.5293,4.5641,4.6077,4.6567,4.7582,4.8524,4.918,4.8011,4.7625,4.8492,4.6401,4.5299,4.5569,4.578,4.5864,4.5864,4.6826,4.677,4.5719,4.5397,4.4832,1.1544,1.0993,1.0431,1.0411,1.0036,0.0,0.9795,0.8469,0.7047,0.6727,0.0,0.6519,0.7115,0.7045,0.716,0.8014,0.8161,0.8117,0.8279,0.789,0.0,0.0,0.0,0.0,0.0,0.0,0.0,0.0,0.0,0.0,0.0,1.4565,1.4895,1.4895,1.5961,1.66,1.6707,1.7258,1.8117,1.9495,2.0614,2.176,2.285,2.2654,2.3681,2.5633,2.7244,2.7303,2.634,2.7857,2.7931,2.6997,2.7085,2.7168,2.7378,2.6956,2.7346,2.8158,2.7921,2.8873,3.0289,3.0763,3.2283,3.4021,3.4546,3.5007,3.5417,3.581,3.5,3.4204,3.4818,3.4276,3.3501,3.3115,3.3869,3.4857,3.5311,3.6906,3.8567,3.9412,4.1459,4.3013,4.3078,4.3027,4.2921,4.2968,4.2853,4.3152,4.433,4.4531,4.4649,4.4918,4.55,4.593,4.5987,4.6624,4.747,4.8606,4.6704,4.6328,4.8179,4.6884,4.5662,4.4653,4.5442,4.5864,4.5864,4.6464,4.6908,4.7198,4.6125,4.5668,0.9401,0.8509,0.0,0.8616,0.858,0.8523,0.8802,0.0,0.0,0.0,0.6557,0.6462,0.6262,0.6073,0.0,0.6916,0.7,0.7223,0.7751,0.7722,0.0,0.0,0.0,0.0,0.0,0.0,0.0,0.0,0.0,0.0,0.0,1.4236,1.4457,1.4787,1.5213,1.5853,1.6492,1.6714,1.7258,1.8009,1.9156,1.9612,1.9287,1.9812,2.1094,2.3115,2.4629,2.5447,2.5973,2.6105,2.6329,2.6441,2.6211,2.6497,2.7156,2.7205,2.7525,2.7849,2.8,2.8654,2.961,3.0125,3.1481,3.2852,3.3383,3.416,3.4961,3.4939,3.5108,3.5034,3.4213,3.4252,3.4347,3.3922,3.4153,3.4525,3.4755,3.6195,3.7604,3.8438,3.9729,4.1011,4.1757,4.2022,4.2131,4.2154,4.2502,4.3143,4.4153,4.426,4.4378,4.4649,4.5035,4.5268,4.5268,4.5905,4.6624,4.747,4.665,4.636,4.6924,4.5444,4.4746,4.5007,4.5167,4.5386,4.5513,4.5881,4.6174,4.6335,4.534,4.4623,0.7661,0.6832,0.6591,0.696,0.0,0.0,0.0,0.7265,0.0,0.0,0.6311,0.5777,0.556,0.0,0.0,0.5127,0.5138,0.517,0.5755,0.5887,0.5912,0.0,0.0,0.0,0.0,0.0,0.0,0.0,0.0,0.0,0.0,1.3799,1.4128,1.4565,1.4679,1.5213,1.5961,1.6176,1.6499,1.7049,1.7895,1.7902,1.715,1.7784,1.9002,2.0692,2.2137,2.3586,2.4949,2.4885,2.5135,2.559,2.5059,2.5522,2.6568,2.668,2.7072,2.7661,2.7865,2.8355,2.8992,2.9472,3.071,3.2059,3.2448,3.3517,3.4596,3.442,3.4939,3.5336,3.4152,3.443,3.4763,3.3903,3.4081,3.4382,3.443,3.558,3.6813,3.7622,3.8549,3.9562,4.0467,4.0877,4.0984,4.0831,4.1589,4.2325,4.2711,4.3402,4.4022,4.4472,4.4742,4.4918,4.4918,4.5326,4.5847,4.651,4.6143,4.5746,4.5504,4.4351,4.3942,4.441,4.4416,4.4537,4.4711,4.5286,4.5571,4.5542,4.4968,4.4149,0.7046,0.6579,0.6625,0.5836,0.0,0.0,0.6054,0.6184,0.6412,0.6875,0.557,0.4439,0.4923,0.3031,0.0,0.2403,0.1972,0.1603,0.1739,0.1853,0.2397,0.4136,0.0,0.0,0.0,0.0,0.0,0.0,0.0,0.0,0.0,1.3367,1.4015,1.4015,1.4457,1.4787,1.4787,1.532,1.5853,1.6492,1.6492,1.6492,1.66,1.7043,1.7739,1.861,2.0096,2.1634,2.3108,2.4508,2.4884,2.4594,2.3691,2.4263,2.5395,2.4919,2.5903,2.7524,2.7173,2.7613,2.8413,2.8569,2.9918,3.1563,3.214,3.3162,3.4251,3.469,3.4505,3.4446,3.5154,3.4886,3.4054,3.2469,3.3277,3.4304,3.4078,3.4915,3.6032,3.6791,3.8229,3.9277,3.9259,3.9479,3.9505,3.9137,3.9789,4.0104,3.9759,4.1743,4.3485,4.4413,4.4742,4.4918,4.4918,4.4918,4.521,4.5847,4.4778,4.4156,4.4156,4.4108,4.3578,4.2416,4.3013,4.3374,4.3374,4.4668,4.5286,4.5286,4.5542,4.466,0.5678,0.4903,0.4561,0.4159,0.0,0.0,0.3286,0.4203,0.5125,0.4715,0.4095,0.3377,0.2338,0.0,0.0,0.0,0.0628,0.0962,0.2066,0.1962,0.2071,0.2942,0.2724,0.0,0.0,0.0,0.0,0.0,0.0,0.0,0.0,1.3367,1.4015,1.4015,1.4128,1.4457,1.4787,1.4895,1.532,1.5853,1.553,1.553,1.5853,1.6499,1.6877,1.7207,1.8686,1.9565,2.0184,2.1896,2.2302,2.1918,2.2463,2.4163,2.6307,2.5521,2.6279,2.7679,2.7587,2.7981,2.8434,2.8148,2.9202,3.0684,3.111,3.204,3.3038,3.4121,3.4158,3.4021,3.4222,3.3565,3.2917,3.3506,3.3847,3.4097,3.4273,3.4991,3.5693,3.6086,3.6959,3.7762,3.8043,3.8827,3.9127,3.8421,3.9745,4.0635,3.9735,4.111,4.2208,4.2512,4.3378,4.4212,4.4859,4.5176,4.5293,4.521,4.4891,4.481,4.5039,4.3777,4.2948,4.2753,4.2008,4.2078,4.2959,4.3447,4.407,4.4783,4.5013,4.4439,0.448,0.3612,0.3054,0.239,0.2448,0.0,0.0,0.2966,0.3965,0.3629,0.3314,0.0,0.0,0.0,-0.1242,-0.1035,-0.095,-0.0538,0.0435,0.0545,0.0763,0.1744,0.1526,0.2288,0.0,0.0,0.0,0.0,0.0,0.0,1.1524,1.2714,1.3583,1.4015,1.4015,1.4128,1.4457,1.4457,1.4668,1.4991,1.4781,1.4895,1.532,1.5853,1.6277,1.6587,1.7903,1.8592,1.8678,2.0334,2.098,2.083,2.1493,2.327,2.5408,2.5043,2.591,2.7233,2.77,2.798,2.8305,2.8361,2.8886,2.9602,3.0449,3.1227,3.2136,3.3152,3.3446,3.3383,3.3383,3.2803,3.2527,3.3171,3.3511,3.3583,3.3624,3.4235,3.4885,3.5253,3.6104,3.6856,3.723,3.8163,3.8563,3.7677,3.87,3.9372,3.8982,3.9829,4.065,4.1167,4.2391,4.3594,4.4683,4.5059,4.5234,4.5118,4.5093,4.5176,4.5234,4.3622,4.2631,4.2378,4.1334,4.1028,4.1423,4.2217,4.2995,4.3876,4.4286,4.3987,0.3498,0.287,0.2215,0.0704,0.0794,0.1309,0.1594,0.2266,0.0,0.3187,0.0,0.0,0.0,-0.1659,-0.2982,-0.2594,-0.2453,-0.2503,-0.2394,0.0,-0.1197,0.0435,0.0653,0.1741,0.0,0.0,0.0,0.0,0.0,0.0,1.0333,1.1524,1.2714,1.3799,1.3907,1.4015,1.4015,1.4015,1.4015,1.4015,1.4457,1.4679,1.4787,1.5213,1.5853,1.6492,1.764,1.8221,1.838,1.9704,2.0539,2.0947,2.0686,2.1563,2.303,2.3676,2.4927,2.6412,2.7326,2.7688,2.7968,2.8849,2.8795,2.8668,3.0085,3.0812,3.1353,3.2014,3.2296,3.2474,3.2563,3.2515,3.2349,3.1882,3.2457,3.2923,3.2433,3.2885,3.3624,3.4322,3.558,3.6566,3.6864,3.7551,3.7858,3.7135,3.6959,3.7033,3.7572,3.8121,3.8958,4.0237,4.1636,4.2911,4.4236,4.4624,4.4976,4.5409,4.5433,4.5293,4.4976,4.3665,4.2534,4.1512,4.0998,4.0274,3.9354,4.0954,4.2038,4.2593,4.3394,4.3292,0.3593,0.3031,0.2523,0.0598,0.0822,0.1439,0.055,0.1233,0.0,0.0,0.0,0.0,0.0,-0.097,0.0,-0.191,-0.1931,-0.1711,-0.1284,-0.1498,-0.139,-0.0535,-0.0856,-0.0537,0.0,0.0,0.0,0.0,0.0,0.0,0.914,1.1091,1.2389,1.2606,1.3475,1.4015,1.4015,1.4015,1.4015,1.4015,1.4123,1.4128,1.4236,1.4673,1.4997,1.5201,1.6173,1.668,1.6812,1.8136,1.8795,1.9047,1.9923,2.063,2.128,2.2356,2.4224,2.6224,2.6086,2.6742,2.7757,2.7623,2.791,2.8367,2.835,2.9245,3.0405,3.1242,3.1085,3.071,3.1423,3.1024,3.0737,3.2116,3.2069,3.1964,3.255,3.3032,3.3308,3.3238,3.4738,3.6122,3.6587,3.772,3.8403,3.7934,3.7992,3.7791,3.7052,3.7932,3.8506,3.8237,3.9943,4.1391,4.2208,4.3235,4.4212,4.4976,4.5035,4.5118,4.5351,4.4008,4.293,4.2341,4.0529,3.9817,4.0143,3.9802,4.0085,4.1023,4.1564,4.2036,0.3045,0.2367,0.1751,0.0356,0.0462,0.0749,0.0162,0.0475,0.0,0.0,0.0,0.0,0.0,0.0,-0.1406,-0.1711,0.0,-0.1148,-0.0849,-0.0856,-0.086,0.0,0.0,0.0,0.0,0.0,0.0,0.0,0.0,0.0,0.7949,1.0116,1.1741,1.2281,1.3362,1.4015,1.4015,1.4015,1.4015,1.4015,1.4015,1.4015,1.4015,1.4236,1.4565,1.4781,0.0,1.5654,1.5943,1.6824,1.7518,1.8129,1.8974,2.0002,2.1031,2.1719,2.3263,2.5285,2.5975,2.6967,2.8093,2.7975,2.7998,2.7938,2.7947,2.8507,2.9343,3.0131,3.0383,3.0411,3.0942,3.0759,3.0681,3.1431,3.156,3.1546,3.18,3.1937,3.2039,3.2234,3.3356,3.4612,3.5701,3.7083,3.8038,3.8345,3.8139,3.782,3.7069,3.7286,3.7358,3.684,3.8111,3.9127,3.9671,4.1346,4.2707,4.3499,4.338,4.3844,4.5001,4.4439,4.3707,4.2961,4.1155,4.0126,3.9887,3.9099,3.9057,3.9745,4.0375,4.1045,0.221,0.1503,0.0783,0.0137,0.0,0.0,0.0,-0.0068,0.0,0.0,0.0,0.0,0.0,-0.1376,-0.1756,0.0,0.0,-0.0806,0.0,0.0,0.0,0.0,0.0,0.0,0.0,0.0,0.0,0.0,0.0,0.5125,0.6211,0.8272,1.0,1.1087,1.2606,1.3362,1.3362,1.3583,1.3799,1.4015,1.4015,1.4015,1.4015,1.4015,1.4236,1.4679,0.0,1.4997,1.5518,1.5936,1.6654,1.7531,1.793,1.9248,2.0938,2.0938,2.2051,2.377,2.5635,2.7049,2.8208,2.8816,2.8275,2.753,2.8084,2.8314,2.8383,2.8908,2.9659,3.0448,3.0448,3.0721,3.0945,3.052,3.0837,3.1066,3.0809,3.0593,3.0654,3.129,3.2052,3.3,3.4523,3.6048,3.7434,3.8336,3.8044,3.7677,3.74,3.6782,3.6291,3.6008,3.6449,3.6954,3.7385,3.9314,4.0663,4.105,4.0988,4.1889,4.3951,4.4223,4.4106,4.3488,4.2106,4.08,3.9489,3.8711,3.8435,3.8685,3.9329,3.9965,0.1837,0.1126,0.0518,0.0142,0.0,0.0,0.0,-0.0273,-0.0525,0.0,0.0,0.0,0.0,-0.107,0.0,0.0,0.0,0.0,0.0,0.0,0.0,0.0,0.0,0.0,0.0,0.0,0.0,0.0,0.0,0.1962,0.3161,0.4027,0.5113,0.6311,0.8804,1.0217,1.0217,1.1736,1.3043,1.4015,1.4015,1.4015,1.4015,1.4015,1.4015,1.4128,0.0,0.0,1.4997,1.6026,1.6404,1.6432,1.7161,1.813,1.9043,1.8932,2.0033,2.1735,2.2601,2.4498,2.6767,2.8099,2.8046,2.7454,2.7542,2.8276,2.8822,2.7673,2.8373,2.9403,2.9506,2.9623,2.9891,3.087,2.9915,2.9128,3.0744,3.0578,3.0232,3.0333,3.166,3.2778,3.2844,3.5253,3.7177,3.7361,3.838,3.8755,3.7641,3.7294,3.6871,3.6174,3.6097,3.637,3.6954,3.7642,3.7729,3.6898,3.8198,3.9835,4.1805,4.1927,4.2568,4.3961,4.2326,4.1107,4.0586,3.8497,3.7519,3.757,3.7672,3.8283,0.1692,0.0892,0.0216,0.0071,0.0,0.0,0.0,-0.027,-0.0592,-0.0558,-0.0807,0.0,0.0,-0.1036,0.0,0.0,-0.1268,0.0,0.0,0.0,0.0,0.0,0.0,0.0,0.0,0.0,0.0,0.0,0.0,0.0872,0.1199,0.3267,0.4354,0.4354,0.7397,0.8594,0.7617,1.0654,1.2498,1.3038,1.3691,1.4015,1.4015,1.4015,1.4015,0.0,0.0,0.0,1.4457,1.5207,1.559,1.5684,1.6348,1.7369,1.8431,1.8431,1.9253,2.0749,2.2388,2.3635,2.4665,2.6049,2.6587,2.6567,2.6141,2.6774,2.7536,2.7209,2.8089,2.925,2.9931,2.988,2.9828,3.0455,2.9956,2.9498,3.0096,3.0256,3.0254,3.0247,3.0885,3.1807,3.3074,3.4369,3.5892,3.7707,3.8618,3.879,3.8066,3.7912,3.7403,3.6348,3.5664,3.5361,3.5631,3.5833,3.5623,3.4947,3.6265,3.7581,3.86,3.9438,4.0703,4.2624,4.239,4.1867,4.1124,3.9481,3.8296,3.7519,3.7519,3.7801,0.1037,0.0,-0.0602,-0.015,-0.0074,-0.0146,0.0,-0.0414,-0.068,-0.0818,-0.1066,0.0,0.0,-0.1498,-0.1774,-0.1997,-0.1905,-0.1997,0.0,0.0,0.0,0.0,0.0,0.0,0.0,0.0,0.0,0.0,0.0,-0.0436,-0.0436,0.1859,0.3061,0.2722,0.555,0.6652,0.5586,0.9154,1.1416,1.2281,1.3151,1.3691,1.4015,1.4015,1.4015,0.0,0.0,0.0,1.4015,1.4565,1.4883,1.5124,1.5875,1.6851,1.781,1.7919,1.8583,1.9742,2.1737,2.2732,2.3265,2.405,2.4851,2.5482,2.4825,2.5211,2.5744,2.6198,2.7263,2.8528,2.9463,2.9789,2.9867,3.0099,3.0115,3.0043,2.9793,2.9746,2.9923,3.0258,3.0004,3.0486,3.2748,3.306,3.4084,3.7072,3.798,3.834,3.8363,3.8306,3.7932,3.69,3.5627,3.4818,3.4758,3.474,3.4532,3.4081,3.4966,3.5763,3.6376,3.7344,3.8831,4.0804,4.1539,4.1579,4.0936,4.008,3.913,3.8211,3.787,3.775,0.0,-0.1715,-0.2293,-0.0433,-0.034,-0.0661,-0.0553,-0.0756,0.0,-0.1571,-0.1855,-0.2038,-0.2032,-0.2656,-0.3308,-0.378,-0.3592,0.0,0.0,0.0,0.0,0.0,0.0,0.0,0.0,0.0,0.0,0.0,0.0,0.0,-0.1744,-0.2433,-0.1883,0.0218,0.1525,0.2964,0.4343,0.6366,0.9031,1.2281,1.2281,1.293,1.4015,1.4015,1.4015,0.0,0.0,0.0,0.0,1.4565,1.4776,1.4866,1.6038,1.6411,1.6387,1.6799,1.7546,1.8415,1.843,2.072,2.3546,2.269,2.3152,2.4101,2.4114,2.4121,2.4034,2.3735,2.4657,2.5906,2.6545,2.8031,2.9609,3.0488,3.0009,2.9608,3.0157,2.9256,2.8731,3.0043,2.9455,2.9031,3.0203,3.1013,3.2033,3.3727,3.5856,3.7599,3.8522,3.8419,3.8249,3.8174,3.6685,3.5522,3.5123,3.5137,3.4806,3.4081,3.4093,3.49,3.648,3.6285,3.7087,3.9167,3.8978,3.9107,3.9587,3.9188,3.9197,3.9705,3.8331,3.7852,-0.342,-0.4379,-0.4912,-0.2733,-0.2588,-0.2684,0.0,0.0,-0.1923,-0.1796,-0.1932,-0.2307,-0.2779,-0.3176,-0.3721,-0.4527,-0.4115,0.0,0.0,0.0,0.0,0.0,0.0,0.0,0.0,0.0,0.0,0.0,0.0,0.0,-0.2835,-0.2193,-0.1426,-0.0545,0.0556,0.1675,0.264,0.5516,0.7476,0.8377,0.9899,1.0662,1.0766,1.0766,1.1308,0.0,0.0,0.0,0.0,1.4236,1.4457,1.4787,1.5213,1.5697,1.6209,1.6308,1.6864,1.7456,1.7986,1.9154,2.0577,2.1394,2.1564,2.1825,2.3375,2.3268,2.2596,2.2899,2.3793,2.4785,2.5396,2.6462,2.7638,2.873,2.9158,2.9405,2.9987,2.9271,2.8719,2.9268,2.8785,2.8481,2.9094,2.9853,3.0853,3.2035,3.4273,3.6335,3.7523,3.8511,3.9092,3.9373,3.8194,3.736,3.7384,3.6684,3.598,3.5414,3.4669,3.4344,3.4511,3.4682,3.5335,3.6636,3.6976,3.7841,3.9191,3.8979,3.8975,3.9067,3.8149,3.7852,-0.6786,-0.7546,-0.7823,-0.5486,-0.4795,-0.4441,-0.2857,0.0,-0.2518,-0.2177,-0.2295,-0.2671,-0.3228,-0.3877,-0.4498,-0.5109,-0.4725,0.0,0.0,0.0,0.0,0.0,0.0,0.0,0.0,0.0,0.0,0.0,0.0,0.0,-0.3297,-0.2197,-0.1538,-0.1318,-0.0447,0.0448,0.144,0.3875,0.5518,0.6363,0.7752,0.86,0.9035,0.8818,0.9794,0.0,0.0,0.0,0.0,1.4236,1.4344,1.4565,1.4679,1.5062,1.5573,1.5999,1.625,1.6571,1.7484,1.8097,1.8761,2.0081,2.0588,2.0898,2.2146,2.2032,2.1459,2.1746,2.2576,2.3508,2.4143,2.4897,2.5919,2.716,2.8195,2.8904,2.9366,2.9193,2.8962,2.875,2.8313,2.7973,2.8242,2.8469,2.8956,2.9912,3.2176,3.4195,3.5393,3.7493,3.8992,3.9353,3.8811,3.8382,3.8304,3.7706,3.6919,3.602,3.5331,3.4475,3.347,3.3652,3.3996,3.4562,3.4851,3.597,3.7921,3.7948,3.7914,3.7906,3.7425,3.7154,-1.0648,-1.1255,-1.075,-0.8469,-0.6994,-0.5787,0.0,0.0,-0.2787,-0.2895,-0.3124,-0.3367,-0.3527,-0.4921,-0.5979,-0.5714,-0.5336,0.0,-0.5032,0.0,0.0,0.0,0.0,0.0,0.0,0.0,0.0,0.0,0.0,0.0,-0.2794,-0.3241,-0.3241,-0.2571,-0.198,-0.0997,0.0687,0.0776,0.2855,0.6909,0.6256,0.7188,0.9473,0.8926,1.0008,1.2173,0.0,0.0,0.0,1.4787,1.4457,1.4015,1.4565,1.463,1.4522,1.5684,1.5929,1.5722,1.6623,1.7663,1.8596,1.8484,2.0055,2.1735,2.0396,2.032,2.0526,2.0025,2.0745,2.1898,2.2549,2.341,2.4507,2.5997,2.72,2.8093,2.8351,2.8916,2.9225,2.8837,2.7915,2.7259,2.7534,2.661,2.6238,2.7238,2.9299,3.1043,3.2082,3.5305,3.7673,3.8021,3.8439,3.8299,3.7585,3.7862,3.7374,3.5682,3.5964,3.5431,3.3865,3.3432,3.3221,3.3203,3.2496,3.3122,3.5389,3.5724,3.6092,3.6353,3.6206,3.5654,-1.3173,-1.4273,-1.4538,-1.2469,-1.0782,-0.9156,0.0,0.0,-0.3736,-0.3632,-0.3471,-0.3777,-0.5287,-0.5873,-0.6441,-0.7375,0.0,-0.5495,0.0,0.0,0.0,0.0,0.0,0.0,0.0,0.0,0.0,0.0,0.0,0.0,-0.3242,-0.3427,-0.3185,-0.2526,-0.2432,-0.1885,-0.0996,0.0224,0.1677,0.3292,0.4311,0.5403,0.654,0.6323,0.7297,0.9133,0.9133,0.0,0.0,1.2502,1.261,1.2178,1.3696,1.4408,1.4675,1.4996,1.5584,1.6236,1.6346,1.6969,1.7845,1.8459,1.9006,1.9473,1.9067,1.95,2.0146,2.0297,2.0354,2.0406,2.1108,2.1676,2.2527,2.405,2.5928,2.7629,2.8363,2.8916,2.9277,2.9211,2.8005,2.6761,2.621,2.6079,2.5917,2.5175,2.7585,2.9664,3.0141,3.2879,3.528,3.6617,3.5246,3.4928,3.6398,3.5874,3.5806,3.6501,3.6026,3.5181,3.3865,3.3707,3.3378,3.2711,3.2795,3.3205,3.39,3.4794,3.5161,3.4963,3.5007,3.4788,-1.5785,-1.6701,-1.6594,-1.5823,-1.4202,-1.2226,-1.0014,0.0,-0.6029,-0.4957,-0.4547,-0.4803,-0.6235,-0.7163,-0.7898,0.0,0.0,0.0,0.0,0.0,0.0,0.0,0.0,0.0,0.0,0.0,0.0,0.0,0.0,0.0,-0.3612,-0.3556,-0.3294,-0.2944,-0.2863,-0.2652,-0.2092,-0.1004,0.0112,0.1432,0.2652,0.3855,0.4909,0.5127,0.632,0.816,0.816,0.0,0.0,1.142,1.1745,1.1745,1.2827,1.3799,1.4457,1.4679,1.5213,1.5829,1.6204,1.658,1.7124,1.7896,1.8053,1.8046,1.8046,1.856,1.9499,2.0199,2.0213,2.0251,2.1065,2.1324,2.1536,2.2418,2.4057,2.5759,2.687,2.8094,2.9011,2.8799,2.8035,2.7156,2.5984,2.5731,2.524,2.4196,2.6165,2.7814,2.7892,3.0578,3.2825,3.4026,3.2651,3.2413,3.4324,3.4705,3.5138,3.5903,3.6058,3.5601,3.434,3.3638,3.3049,3.2475,3.2298,3.2567,3.3221,3.3791,3.4155,3.4253,3.3617,3.3504,-1.8241,-1.8317,-1.766,-1.8303,-1.7118,-1.5053,-1.261,0.0,0.0,-0.654,-0.6054,-0.6194,-0.6755,-0.8685,0.0,0.0,0.0,-0.8372,0.0,0.0,0.0,0.0,0.0,0.0,0.0,0.0,0.0,0.0,0.0,0.0,-0.3674,-0.3612,-0.3552,-0.3498,-0.3491,-0.3185,-0.2675,-0.2531,-0.1432,0.067,0.1321,0.2623,0.4263,0.4911,0.6432,0.86,0.86,0.0,0.0,1.0991,1.142,1.2065,1.2173,1.293,1.4015,1.4565,1.4787,1.4895,1.6068,1.6492,1.66,1.7157,1.7264,1.7264,1.7264,1.7797,1.8589,1.9727,2.0264,2.0706,2.1848,2.1691,2.1208,2.1298,2.2071,2.3077,2.4489,2.6715,2.8358,2.7936,2.8244,2.8132,2.6664,2.554,2.4661,2.4096,2.5,2.5719,2.5748,2.8298,3.0255,3.0613,3.0335,3.0605,3.1647,3.3836,3.4944,3.4449,3.6031,3.6465,3.5194,3.3568,3.2593,3.2518,3.1383,3.16,3.3173,3.2882,3.3149,3.3989,3.2403,3.2044,-1.8241,-1.886,-1.8967,-2.0029,-1.8624,-1.6327,-1.3969,-1.1385,0.0,0.0,-0.6429,-0.6769,-0.8533,0.0,0.0,0.0,0.0,0.0,0.0,0.0,0.0,0.0,0.0,0.0,0.0,0.0,0.0,0.0,0.0,0.0,-0.3738,-0.3521,-0.3459,-0.3448,-0.3514,-0.3386,-0.3288,-0.2766,-0.1893,-0.0559,0.0445,0.2111,0.4329,0.4937,0.5996,0.7408,0.7408,0.0,0.0,0.8706,0.9577,1.0232,1.1632,1.293,1.4015,1.4123,1.4457,1.4895,1.553,1.6062,1.66,1.7157,1.7043,1.6714,1.7157,1.7273,1.7447,1.8581,1.9141,1.9543,2.0332,2.1092,2.1455,2.0911,2.1812,2.2905,2.3635,2.6087,2.8191,2.8322,2.8866,2.8894,2.8038,2.6775,2.5588,2.4651,2.4774,2.4951,2.4956,2.6416,2.7327,2.7043,2.7317,2.8219,3.0151,3.1407,3.2858,3.4709,3.6423,3.7094,3.635,3.5051,3.385,3.2947,3.1962,3.1878,3.2659,3.2986,3.3503,3.4266,3.3123,3.2308,-1.8603,-1.9295,-1.9723,-2.057,-1.9922,-1.8446,-1.6536,0.0,0.0,0.0,0.0,-0.781,-0.9512,0.0,0.0,0.0,0.0,0.0,0.0,0.0,0.0,0.0,0.0,0.0,0.0,0.0,0.0,0.0,0.0,-0.3828,-0.3797,-0.3711,-0.3649,-0.3621,-0.3563,-0.3531,-0.3531,-0.3203,-0.2551,-0.1788,-0.067,0.0782,0.2232,0.3986,0.516,0.5772,0.6644,0.0,0.6535,0.7514,0.8383,0.9252,1.0766,1.2173,1.3254,1.3799,1.4128,1.4457,1.4997,1.5428,1.5745,1.629,1.6499,1.66,1.6821,1.7046,1.7353,1.8405,1.919,1.9724,2.0371,2.1324,2.186,2.1042,2.1326,2.1802,2.2071,2.4668,2.708,2.7688,2.8863,2.9518,2.8946,2.7763,2.6604,2.5799,2.5524,2.526,2.4981,2.5791,2.6342,2.6216,2.6443,2.71,2.8233,2.9667,3.1273,3.3042,3.4786,3.5937,3.6427,3.5194,3.3923,3.2621,3.2022,3.1573,3.1427,3.2373,3.3326,3.4118,3.3593,3.2829,-1.8838,-1.9509,-2.0143,-2.0677,-2.0784,-2.0391,-1.8672,-1.6686,0.0,0.0,0.0,-0.9017,-1.0362,-1.2781,0.0,-1.6261,0.0,0.0,0.0,0.0,-1.0043,0.0,0.0,0.0,0.0,0.0,0.0,0.0,0.0,-0.3842,-0.3842,-0.3796,-0.3742,-0.3682,-0.3633,-0.3486,-0.3466,-0.3528,-0.3308,-0.2794,-0.1788,-0.0895,-0.0112,0.2347,0.3767,0.4372,0.5889,0.0,0.6973,0.6973,0.7731,0.8814,0.9682,1.0983,1.2389,1.3259,1.3691,1.4015,1.4565,1.4787,1.4895,1.532,1.5853,1.6385,1.6492,1.6935,1.7479,1.8445,1.9257,2.0064,2.054,2.1177,2.1607,2.1174,2.0684,2.0457,2.0574,2.287,2.5249,2.6559,2.8433,2.9766,2.9378,2.854,2.7663,2.7019,2.6547,2.5982,2.5438,2.5935,2.6336,2.6576,2.6721,2.6785,2.6785,2.864,3.0166,3.0927,3.2699,3.4212,3.5437,3.4311,3.2914,3.1376,3.1007,3.0616,3.0159,3.1534,3.2748,3.3917,3.3986,3.3562,-1.8717,-1.9509,-2.0143,-2.0677,-2.0784,-2.0285,-1.8263,-1.638,-1.4498,-1.21,0.0,-0.9733,-1.2323,0.0,-1.6468,-1.9559,0.0,-2.0965,-1.7557,-1.5745,-1.2896,-0.7903,-0.6473,-0.5279,-0.3961,-0.3842,-0.3842,-0.3842,-0.3842,-0.3842,-0.3842,-0.3834,-0.3803,-0.3744,-0.3618,-0.3566,-0.3466,-0.3458,-0.3458,-0.3354,-0.2794,-0.1914,-0.0799,0.0112,0.1896,0.4335,0.4491,0.5554,0.6973,0.6973,0.7731,0.8706,0.8268,0.9787,1.2173,1.1749,1.261,1.4015,1.4565,1.4787,1.4787,1.4895,1.5213,1.5745,1.6385,1.6935,1.7378,1.7479,1.8101,1.862,1.8518,1.8981,1.96,2.0171,2.0053,1.9958,2.0448,2.1242,2.2582,2.5145,2.7315,2.8844,2.9107,2.9136,2.873,2.7691,2.7039,2.6538,2.5994,2.6664,2.7028,2.6524,2.7006,2.729,2.729,2.8586,2.9776,3.0525,3.2177,3.3017,3.2657,3.1993,3.061,2.8423,2.7874,2.825,2.9465,3.0456,3.2086,3.4197,3.4622,3.4416,-1.8632,-1.9823,-2.0875,-2.1091,-2.1084,-2.0842,-1.9709,-1.8151,-1.6648,-1.5296,-1.3668,0.0,0.0,0.0,0.0,0.0,0.0,0.0,-1.8429,-1.7015,-1.4326,0.0,-0.7311,0.0,-0.4081,-0.3842,-0.3842,0.0,-0.3842,-0.3842,-0.3842,-0.3842,-0.3829,-0.3804,-0.3803,-0.3763,-0.3562,-0.3498,-0.3466,-0.3466,-0.3242,-0.2918,-0.2372,-0.1121,0.0222,0.1541,0.0,0.4682,0.5554,0.6535,0.7299,0.784,0.8163,0.9136,1.0441,1.142,1.2286,1.3151,1.402,1.4344,1.4344,1.4344,1.4673,1.5213,1.5853,1.6391,1.6935,1.7264,1.802,1.8686,1.8369,1.8859,1.9526,1.956,1.8946,1.841,1.8719,1.9212,2.0299,2.2621,2.5806,2.8466,2.9523,2.9492,2.9098,2.8567,2.7998,2.742,2.6861,2.7139,2.7282,2.7035,2.723,2.7385,2.7385,2.7946,2.8586,2.9343,3.0393,3.1161,3.1538,3.1259,3.003,2.7835,2.753,2.7416,2.7384,2.8379,3.0193,3.2718,3.3223,3.3577,-1.846,-1.9839,-2.1076,-2.1162,-2.1257,-2.1335,-2.087,-1.9572,-1.8348,-1.7878,-1.6506,-1.5665,0.0,0.0,0.0,-2.0726,-2.2047,0.0,-1.8716,-1.7704,0.0,-0.9938,0.0,-0.6952,-0.4799,-0.4201,0.0,0.0,-0.3854,-0.3857,-0.3842,-0.3854,-0.3856,-0.3842,-0.3842,-0.3821,-0.3776,-0.3559,-0.3494,-0.3466,-0.3466,-0.3466,-0.3466,-0.2235,-0.1332,-0.0658,0.2291,0.392,0.4462,0.6209,0.6973,0.7082,0.7731,0.8383,0.9035,1.1091,1.1957,1.2281,1.2719,1.3043,1.3259,1.3259,1.3696,1.4242,1.5105,1.5853,1.66,1.7043,1.7795,1.8475,1.8151,1.8563,1.8948,1.8705,1.7984,1.7255,1.7267,1.7767,1.8527,1.9895,2.3318,2.6544,2.7944,2.8648,2.9084,2.9103,2.8723,2.8158,2.7492,2.7394,2.7385,2.7385,2.7385,2.7385,2.7385,2.7385,2.7618,2.8246,2.8667,2.9186,2.9858,2.9717,2.8652,2.6654,2.6522,2.6151,2.5362,2.6313,2.8104,3.0626,3.122,3.2026,-1.8505,-1.9535,-2.0413,-2.0736,-2.1068,-2.1335,-2.087,-1.9502,-1.8317,-1.8268,-1.6672,-1.6011,0.0,0.0,-1.9827,-2.2367,-2.2836,-2.1931,-1.9094,-1.831,-1.6359,0.0,0.0,0.0,0.0,0.0,0.0,-0.3842,0.0,-0.3897,-0.3845,-0.3891,-0.3895,-0.3844,-0.3842,-0.3841,-0.3837,-0.3775,-0.3574,-0.3466,-0.3466,-0.3466,-0.3466,-0.3466,-0.2458,-0.0892,0.1097,0.2833,0.4462,0.6209,0.6973,0.6973,0.6427,0.7185,0.8923,1.0116,1.1308,1.1957,1.0337,1.0449,1.1425,1.1425,1.1853,1.2714,1.4349,1.5638,1.6492,1.66,1.6935,1.7306,1.7009,1.6816,1.6923,1.762,1.7386,1.7141,1.7312,1.7659,1.778,1.7586,1.9573,2.1713,2.2756,2.6064,2.8715,2.908,2.9148,2.8654,2.7552,2.7365,2.7385,2.7385,2.7385,2.7385,2.7385,2.7385,2.7467,2.7467,2.7467,2.7288,2.67,2.6203,2.5151,2.3377,2.3109,2.3296,2.4023,2.4786,2.6209,2.8179,2.8971,2.9723,-1.8596,-2.0048,-2.1049,-2.1949,-2.1979,-2.177,-2.1398,-2.0562,-1.9922,-1.9922,-1.9292,-1.9137,-2.0244,-2.0603,-2.1161,-2.2326,-2.2741,-2.1981,-1.9343,-1.844,-1.6601,-1.2561,-1.1127,-0.9457,0.0,0.0,0.0,-0.3961,-0.3861,-0.3862,-0.3844,-0.3861,-0.3862,-0.3842,-0.3842,-0.3842,-0.3842,-0.3784,-0.3616,-0.3575,-0.35,-0.3446,-0.352,-0.352,-0.3191,-0.253,-0.0656,0.109,0.2833,0.4573,0.5989,0.6973,0.6756,0.7082,0.7731,0.8923,1.0116,1.0983,1.0337,0.9903,0.9686,0.9686,1.0553,1.1853,1.2827,1.4236,1.5428,1.5853,1.6284,1.6802,1.67,1.6674,1.6699,1.6511,1.5913,1.5333,1.4757,1.5108,1.5646,1.6122,1.8045,1.9925,2.0916,2.3513,2.6041,2.7575,2.7973,2.7974,2.7505,2.7128,2.7044,2.7385,2.7385,2.723,2.6853,2.7165,2.723,2.6773,2.7178,2.7294,2.7087,2.6178,2.5035,2.3646,2.2821,2.2487,2.2685,2.2915,2.4326,2.6731,2.7213,2.8554,-1.8329,0.0,-2.1274,-2.197,-2.2254,-2.2314,-2.1932,-2.1636,-2.1317,-2.1103,-2.1103,-2.114,-2.1509,-2.1668,-2.1968,-2.2671,-2.2842,-2.2296,-2.0272,-1.9092,-1.7318,-1.4351,-1.268,0.0,0.0,0.0,0.0,-0.5037,-0.4821,-0.4585,-0.3962,-0.386,-0.3861,-0.3842,-0.3842,-0.3842,-0.3842,-0.3803,-0.3774,-0.3636,-0.3559,-0.3595,-0.3518,-0.3478,-0.347,-0.3378,-0.1517,-0.0108,0.109,0.3376,0.5008,0.61,0.6756,0.6973,0.7191,0.8492,0.9248,0.9462,0.8923,0.8383,0.7837,0.7837,0.9035,1.0662,1.1637,1.3264,1.4895,1.5213,1.5853,1.6492,1.6492,1.6717,1.6753,1.5952,1.537,1.4799,1.3453,1.3772,1.4329,1.4704,1.6426,1.7992,1.8517,2.0857,2.3319,2.5369,2.6256,2.6732,2.6922,2.674,2.6785,2.7126,2.6959,2.6769,2.6475,2.6785,2.6931,2.6462,2.7061,2.7385,2.7385,2.6137,2.4975,2.3801,2.2584,2.1841,2.1497,2.1619,2.2656,2.454,2.5015,2.6361,0.0,0.0,-2.0706,-2.0599,-2.1699,-2.2797,-2.2521,-2.255,-2.2355,-2.1734,-2.1636,-2.1635,-2.1795,-2.1818,-2.2265,-2.3549,-2.3345,-2.2766,-2.203,-2.0265,-1.862,-1.7206,-1.4351,-1.1727,0.0,-1.137,-1.0889,-0.6944,-0.6798,-0.5965,-0.4084,-0.3893,-0.3897,-0.3844,-0.3842,-0.3842,-0.3842,-0.3842,-0.3813,-0.3756,-0.3638,-0.3577,-0.3467,-0.346,-0.3544,-0.3377,-0.1606,-0.0858,-0.0545,0.283,0.4245,0.4462,0.6318,0.6973,0.7191,0.8821,0.8706,0.7508,0.5887,0.556,0.5989,0.5989,0.7185,0.9035,1.0662,1.2836,1.4679,1.4787,1.5536,1.6492,1.6492,1.6723,1.6662,1.5952,1.5982,1.5611,1.3648,1.388,1.4152,1.3443,1.4708,1.5835,1.5559,1.8093,2.0753,2.2746,2.3878,2.4889,2.5861,2.6396,2.6658,2.662,2.6221,2.6051,2.6436,2.6528,2.6462,2.6449,2.7061,2.7467,2.7385,2.5875,2.4573,2.3526,2.2229,2.1244,2.0591,2.0823,2.1191,2.1524,2.2334,2.3147,-1.8882,0.0,0.0,-2.0683,-2.112,-2.1324,-2.1772,-2.1479,-2.1313,-2.2156,-2.2274,-2.2288,-2.247,-2.2824,-2.3168,-2.3666,-2.4031,-2.368,-2.2148,-2.0736,-1.9092,-1.7324,-1.5539,-1.3752,-1.1846,-1.2089,-1.137,-0.8856,-0.7573,-0.6618,-0.5994,-0.4697,-0.3857,-0.3842,-0.3842,-0.3842,-0.3842,-0.3842,-0.3834,-0.3817,-0.3774,-0.362,-0.3585,-0.3583,-0.3514,-0.3486,-0.2998,-0.2039,-0.0654,0.1525,0.3158,0.4462,0.6318,0.6973,0.7082,0.7517,0.7188,0.6424,0.5992,0.5341,0.4796,0.5343,0.6103,0.7185,0.936,1.1099,1.2507,1.3804,1.4668,1.532,1.5745,1.6228,1.6479,1.5894,1.5831,1.5433,1.4073,1.3914,1.4119,1.4106,1.4494,1.4927,1.5194,1.6632,1.84,2.0726,2.0949,2.1756,2.4207,2.5474,2.6482,2.7134,2.7285,2.7267,2.7005,2.7589,2.7736,2.7084,2.752,2.7687,2.7467,2.5556,2.424,2.3513,2.1672,2.0426,1.9777,2.0085,2.0345,2.0494,2.175,2.3067,-1.7973,0.0,0.0,0.0,-1.982,-2.0007,-2.1385,-2.1086,-2.0905,-2.2265,-2.2593,-2.2559,-2.2824,-2.317,-2.3681,0.0,-2.4514,-2.4374,-2.3672,-2.2148,-2.0501,-1.8502,-1.72,-1.5777,-1.3871,-1.3637,-1.28,-1.0889,-0.9811,-0.8856,-0.802,-0.6111,-0.5037,-0.5157,-0.4321,-0.3842,-0.3842,-0.3842,-0.3842,-0.3841,-0.3808,-0.3764,-0.3714,-0.3646,-0.3555,-0.345,-0.3523,-0.2897,-0.1744,0.0763,0.2288,0.3485,0.5992,0.6973,0.6968,0.6917,0.6496,0.5985,0.6054,0.5418,0.48,0.5127,0.5885,0.6965,0.838,1.0116,1.1853,1.293,1.402,1.4895,1.5105,1.5853,1.6355,1.55,1.5678,1.5724,1.428,1.427,1.4465,1.4238,1.4519,1.4663,1.4676,1.5374,1.6571,1.8644,1.9243,2.0079,2.2033,2.4129,2.5568,2.5852,2.6816,2.7356,2.7256,2.7669,2.7803,2.7229,2.7669,2.7838,2.7467,2.5415,2.3927,2.3297,2.1307,1.9958,1.9294,1.9591,1.9964,2.0391,2.1475,2.2404,-1.5781,0.0,0.0,-1.7977,-1.8047,-1.8587,0.0,0.0,-2.0415,-2.1889,-2.226,-2.2475,-2.2777,-2.317,-2.3906,-2.4845,-2.4896,-2.5023,-2.5489,-2.4115,-2.2265,-2.0383,-1.8974,-1.7318,-1.5539,-1.5302,-1.4589,-1.2923,-1.2566,-1.1727,-0.9934,-0.7781,-0.6705,-0.6825,-0.4917,-0.3842,-0.3842,-0.3842,-0.3842,-0.3842,-0.3842,-0.3787,-0.3685,-0.3672,-0.3576,-0.3528,-0.352,-0.3544,-0.3262,0.0109,0.1526,0.2071,0.5447,0.6745,0.6725,0.6729,0.6541,0.607,0.6091,0.5807,0.5345,0.5454,0.6427,0.7505,0.7816,0.9653,1.1813,1.2005,1.3209,1.4532,1.4527,1.5381,1.5998,1.4984,1.5551,1.5988,1.4372,1.465,1.5011,1.4276,1.467,1.4946,1.427,1.4493,1.527,1.6762,1.8197,1.9302,1.977,2.2368,2.3972,2.3571,2.5229,2.6569,2.7031,2.7163,2.7282,2.7203,2.7602,2.7745,2.7282,2.5338,2.379,2.2909,2.1074,1.9758,1.9058,1.9417,1.9938,2.0667,2.1364,2.1487,0.0,0.0,0.0,0.0,0.0,0.0,0.0,0.0,-1.808,-1.9672,-2.053,-2.1201,-2.2052,-2.2935,-2.3753,-2.4453,-2.5298,-2.5682,-2.5215,-2.4313,-2.2844,-2.109,-1.921,-1.7318,-1.5539,-1.5302,-1.5183,-1.4827,-1.328,-1.2327,-1.1846,-0.8618,-0.6825,-0.6825,-0.4917,-0.3842,-0.3842,-0.3842,-0.3842,-0.3842,-0.3842,-0.3831,-0.3805,-0.3709,-0.3621,-0.354,-0.3493,-0.3452,-0.3314,-0.1192,0.0545,0.1962,0.4029,0.4752,0.5018,0.6273,0.6705,0.6614,0.67,0.6339,0.5992,0.6538,0.6214,0.6089,0.7819,0.8424,0.8723,1.0173,1.1502,1.2689,1.3108,1.395,1.4826,1.4737,1.5205,1.5451,1.4737,1.5103,1.539,1.5018,1.4858,1.4847,1.494,1.4804,1.5004,1.5744,1.6865,1.7883,1.8661,1.9839,2.1135,2.2449,2.3683,2.4944,2.621,2.7163,2.7519,2.7203,2.7309,2.7137,2.6684,2.4722,2.3327,2.2615,2.0648,1.9392,1.9058,1.986,1.999,1.9582,2.0769,2.128,0.0,0.0,0.0,0.0,0.0,0.0,0.0,0.0,0.0,0.0,0.0,-1.9279,0.0,0.0,-2.2907,-2.3597,-2.4827,-2.5669,-2.5538,-2.4332,-2.2691,-2.0958,-1.9111,-1.7318,-1.5539,-1.5302,-1.5302,-1.5302,-1.4465,-1.3875,-1.3875,-1.1127,-0.9218,-0.814,-0.6351,-0.4917,-0.3842,-0.3842,-0.3842,-0.3842,-0.3842,-0.3827,-0.3795,-0.3706,-0.3633,-0.3462,-0.3515,-0.3473,-0.3448,-0.2498,-0.109,0.0654,0.196,0.3251,0.4406,0.5862,0.6622,0.6878,0.6817,0.6658,0.6535,0.6864,0.6609,0.6231,0.7343,0.7809,0.8166,0.9026,1.0511,1.1937,1.2146,1.3181,1.4158,1.4227,1.4569,1.4892,1.4822,1.4954,1.5199,1.5338,1.517,1.5071,1.5354,1.5163,1.5124,1.5469,1.6004,1.6527,1.693,1.8134,1.9038,1.954,2.0687,2.22,2.4232,2.4647,2.5529,2.7149,2.7203,2.6846,2.6113,2.4549,2.3234,2.2183,2.0542,1.948,1.9058,1.922,1.9354,1.9392,2.0376,2.091,0.0,0.0,0.0,0.0,0.0,0.0,0.0,0.0,0.0,0.0,0.0,0.0,0.0,0.0,0.0,-2.2583,-2.4225,-2.5516,-2.5745,-2.3939,-2.202,-2.0607,-1.8822,-1.7005,-1.5588,-1.5394,-1.5302,-1.5302,-1.5302,-1.5302,-1.5302,-1.3518,-1.1727,-1.0173,-0.8259,-0.6588,-0.5039,-0.4559,-0.4439,-0.4439,0.0,0.0,-0.3751,-0.3681,-0.3622,-0.3462,-0.3515,-0.3489,-0.3489,-0.3489,-0.2617,-0.1199,-0.0327,0.1307,0.3477,0.4814,0.6003,0.6925,0.6617,0.6661,0.6973,0.6973,0.6894,0.6793,0.6772,0.733,0.0,0.8008,0.9467,1.1053,1.1223,1.2329,1.3505,1.3426,1.3941,1.4343,1.4421,1.4669,1.4863,1.5341,1.5292,1.5282,1.5482,1.5381,1.5209,1.5181,1.539,1.543,1.5154,1.6493,1.7279,1.6707,1.7771,1.9508,2.1765,2.1547,2.2696,2.5859,2.6139,2.5887,2.511,2.3983,2.2759,2.1257,2.0287,1.9587,1.9086,1.8891,1.9013,1.9517,1.88,1.8976,0.0,0.0,0.0,0.0,0.0,0.0,0.0,0.0,0.0,0.0,0.0,0.0,0.0,0.0,0.0,0.0,-2.3552,-2.5009,-2.4946,-2.2395,-2.0626,-2.0712,-1.7952,-1.5926,-1.5699,-1.5534,-1.5302,-1.5302,-1.5302,-1.5302,-1.5302,0.0,0.0,0.0,0.0,-0.9098,-0.8859,-0.7184,-0.6349,-0.6466,-0.4613,-0.376,-0.3633,-0.3525,-0.3471,-0.3462,-0.3515,-0.3489,-0.3489,-0.3489,-0.338,-0.3162,-0.3053,-0.1853,0.0,0.2138,0.4573,0.6708,0.5636,0.0,0.0,0.6973,0.6894,0.678,0.6682,0.6746,0.6795,0.6477,0.7577,0.887,0.9735,1.0797,1.1796,1.2677,1.3107,1.3339,1.3408,1.4082,1.4766,1.4863,1.5013,1.5282,1.5482,1.5381,1.4932,1.41,1.4873,1.5069,1.3792,1.451,1.5346,1.583,0.0,0.0,1.9002,1.9075,1.9833,2.1733,2.2409,2.2799,2.2862,2.2076,2.0929,1.9377,1.9119,1.9096,1.9242,2.0089,2.0316,1.9836,1.4217,1.276,0.0,0.0,0.0,0.0,0.0,0.0,0.0,0.0,0.0,0.0,0.0,0.0,0.0,0.0,0.0,0.0,-2.1839,-2.2984,-2.2984,-2.1995,-2.1328,-2.1478,-1.8547,-1.669,-1.7039,-1.6108,-1.5533,-1.5559,-1.557,-1.5512,-1.541,-1.4584,-1.3637,-1.2447,-1.1608,-1.065,-0.9573,-0.854,-0.8148,-0.8148,-0.6169,-0.5203,-0.5084,-0.3953,-0.3466,-0.3462,-0.3515,-0.3489,-0.3489,-0.3489,-0.3489,0.0,0.0,0.0,0.0,0.0,0.3127,0.5827,0.5288,0.5923,0.687,0.687,0.6748,0.6589,0.6544,0.6483,0.6406,0.621,0.7041,0.8111,0.844,0.9804,1.1184,1.1578,1.2293,1.2906,1.3585,1.3979,1.4463,1.5147,1.5197,0.0,1.5348,1.5262,1.5117,1.4833,1.522,1.5253,1.4563,1.4642,1.4643,1.4237,1.4283,1.4974,1.6641,1.673,0.0,0.0,0.0,2.2877,2.3225,2.2944,0.0,0.0,0.0,0.0,0.0,0.0,0.0,0.0,1.3931,1.3218,0.0,0.0,0.0,0.0,0.0,0.0,0.0,0.0,0.0,0.0,0.0,0.0,0.0,0.0,0.0,0.0,0.0,-2.0987,-2.0302,-2.0322,-2.0386,-2.0294,-1.8045,-1.663,-1.7006,-1.5985,-1.5362,-1.5429,-1.544,-1.5285,-1.5101,-1.5112,-1.4525,-1.3115,-1.3233,-1.2636,-1.122,-1.0513,-1.0106,-1.0099,-0.7897,-0.6705,-0.6135,-0.4808,-0.3885,-0.3551,-0.3507,-0.3489,-0.3489,-0.3489,-0.3489,-0.3489,-0.3489,-0.2944,-0.2071,-0.0763,0.1304,0.3462,0.4094,0.5225,0.6329,0.6329,0.6412,0.6457,0.6457,0.6396,0.6223,0.6192,0.6792,0.7498,0.7754,0.891,1.0177,1.0762,1.1438,1.2318,1.3488,1.3876,1.4239,1.5045,1.5181,1.5071,1.5071,1.5071,1.5038,1.4833,1.5089,0.0,1.4543,1.4576,1.4293,1.3357,1.2837,1.3101,1.4661,1.4406,1.5483,1.8404,2.0487,2.19,2.2549,2.3053,2.2623,2.1166,1.8945,1.7087,0.0,0.0,0.0,0.0,0.0,0.0,0.0,0.0,0.0,0.0,0.0,0.0,0.0,0.0,0.0,0.0,0.0,0.0,0.0,0.0,0.0,0.0,0.0,0.0,-1.7174,-1.6797,-1.6532,-1.6004,-1.5554,-1.4986,-1.432,-1.449,-1.462,-1.4626,-1.4626,-1.4631,-1.4636,-1.4636,-1.4523,-1.4523,-1.5085,-1.5425,-1.5306,-1.3485,-1.2566,-1.2548,-0.9894,-0.782,-0.6256,-0.6042,-0.5016,-0.3491,-0.349,-0.3489,-0.3489,-0.3489,-0.3489,-0.3489,-0.3489,-0.3489,-0.3271,-0.1417,-0.1079,-0.1167,0.1043,0.3316,0.5079,0.5079,0.5734,0.6457,0.6457,0.6454,0.6428,0.6213,0.6361,0.6625,0.7584,0.7839,0.8425,1.0372,1.0956,1.1346,1.2911,1.3688,1.4089,1.4412,1.4608,1.4787,1.4787,1.4787,1.4405,1.3278,1.4075,0.0,1.2929,1.3731,1.422,1.3798,1.3429,1.3257,1.3251,1.199,1.201,1.3929,1.6414,1.8416,1.9719,2.0973,2.1305,2.063,1.9664,1.7924,1.5347,0.0,0.0,0.0,0.0,0.0,0.0,0.0,0.0,0.0,0.0,0.0,0.0,0.0,0.0,0.0,0.0,0.0,0.0,0.0,0.0,0.0,0.0,0.0,0.0,0.0,-1.723,-1.697,-1.5982,-1.5298,-1.5079,-1.4579,-1.4216,-1.4282,-1.4681,-1.4894,-1.461,-1.4615,-1.4728,-1.5176,-1.5063,-1.5063,-1.5516,-1.4344,-1.3702,-1.3697,-1.1497,-0.9548,-0.7903,-0.655,-0.5121,-0.3489,-0.3489,-0.3489,-0.3489,-0.3489,-0.3489,-0.3489,-0.3489,-0.3465,-0.3323,-0.2358,-0.1909,-0.1462,0.0104,0.1656,0.3099,0.4494,0.5529,0.6241,0.6241,0.6241,0.6233,0.6192,0.621,0.633,0.6679,0.7255,0.8132,0.9495,0.9789,1.0371,1.2576,1.2829,1.2877,1.3903,1.3527,1.2966,1.2658,1.3307,1.364,1.3094,1.4065,1.4823,1.4743,1.4778,1.4653,1.4354,1.3639,1.3117,1.2766,1.2589,1.2653,1.31,1.6139,1.8373,1.9364,2.0731,2.1496,2.1659,2.0554,1.8194,1.4441,0.0,0.0,0.0,0.0,0.0,0.0,0.0,0.0,0.0,0.0,0.0,0.0,0.0,0.0,0.0,0.0,0.0,0.0,0.0,0.0,0.0,0.0,0.0,0.0,0.0,0.0,-1.5426,-1.4767,0.0,-1.4096,-1.3447,-1.3064,-1.3138,-1.3547,-1.3974,-1.4166,-1.4057,-1.4327,-1.5247,-1.4813,-1.4813,-1.5253,-1.4655,-1.4359,-1.4359,-1.29,-1.1312,-0.9577,-0.7837,-0.6098,-0.436,-0.3816,-0.3489,-0.3486,-0.3444,-0.3389,-0.333,-0.3287,-0.321,-0.3132,-0.2813,-0.2307,-0.1684,-0.0404,0.0607,0.1705,0.3938,0.5243,0.5806,0.5581,0.5488,0.5597,0.5445,0.5691,0.5935,0.6059,0.6598,0.7396,0.8446,0.8938,0.9701,1.1954,1.2008,1.1784,1.2043,1.1718,1.1255,1.0754,1.158,1.2319,1.2461,1.3305,1.4301,1.5234,1.505,1.4792,1.4612,1.3725,1.3117,1.2766,1.2594,1.2431,1.2338,1.5317,1.751,1.8406,2.0321,2.1353,2.1308,2.0064,1.7688,0.0,0.0,0.0,0.0,0.0,0.0,0.0,0.0,0.0,0.0,0.0,0.0,0.0,0.0,0.0,0.0,0.0,0.0,0.0,0.0,0.0,0.0,0.0,0.0,0.0,0.0,0.0,-1.1541,-1.1955,0.0,0.0,0.0,0.0,-1.1148,-1.1345,-1.2005,-1.3238,-1.2922,-1.328,-1.4669,-1.4691,-1.4725,-1.4787,-1.4787,-1.4787,-1.4679,-1.4236,-1.3043,-1.1208,-0.9577,-0.7837,-0.5989,-0.436,-0.3598,-0.3479,-0.3348,-0.3199,-0.3133,-0.2914,-0.2763,-0.2559,-0.2776,-0.2547,-0.1983,-0.0669,0.0096,0.0945,0.3325,0.4529,0.4945,0.4256,0.4177,0.0,0.0,0.4618,0.527,0.571,0.589,0.6255,0.728,0.8203,0.9213,1.0762,1.1146,1.0756,0.0,0.9249,0.964,0.8998,0.0,1.0407,1.1207,1.1654,1.2628,1.435,1.455,1.4592,1.4592,1.3725,1.3209,1.3209,1.1967,1.1201,1.148,1.3822,1.5734,1.7019,1.9689,2.07,1.9718,1.8108,0.0,0.0,0.0,0.0,0.0,0.0,0.0,0.0,0.0,0.0,0.0,0.0,0.0,0.0,0.0,0.0,0.0,0.0,0.0,0.0,0.0,0.0,0.0,0.0,0.0,0.0,-0.9777,-1.0196,-1.0824,-1.0656,-1.0254,0.0,0.0,0.0,0.0,0.0,0.0,-1.1203,-1.1375,-1.1993,-1.347,-1.3706,-1.4057,-1.4776,-1.4787,-1.4565,-1.4236,-1.4015,-1.3043,-1.1208,-1.0774,-0.8923,-0.5989,-0.5556,-0.4685,-0.3466,-0.3175,-0.3029,-0.2969,-0.2679,-0.255,-0.2568,-0.2586,-0.2337,-0.1814,-0.173,-0.1052,-0.0087,0.1148,0.1901,0.2443,0.2899,0.0,0.0,0.0,0.0,0.4612,0.5122,0.5257,0.5678,0.7005,0.6827,0.6836,0.8724,0.8419,0.7731,0.0,0.7924,0.7838,0.6251,0.0,0.0,0.0,0.0,1.1864,1.3607,1.3928,1.4148,1.4506,1.3725,1.3209,1.3209,1.2385,1.1644,1.1313,1.3728,1.554,1.6331,1.7162,1.7787,1.8109,0.0,0.0,0.0,0.0,0.0,0.0,0.0,0.0,0.0,0.0,0.0,0.0,0.0,0.0,0.0,0.0,0.0,0.0,0.0,0.0,0.0,0.0,0.0,0.0,0.0,0.0,0.0,-0.8529,-0.924,-1.0157,-0.9662,-0.9038,0.0,0.0,0.0,0.0,0.0,0.0,0.0,0.0,0.0,-1.2017,-1.2139,-1.2492,-1.3214,-1.3448,-1.3456,-1.335,-1.3562,-1.3128,-1.2267,-1.1212,-0.9406,-0.7103,-0.5987,-0.5005,-0.4098,-0.311,-0.2625,-0.2448,0.0,0.0,0.0,0.0,-0.1883,-0.1612,-0.1177,-0.0679,0.0,0.1116,0.0,0.0,0.0,0.0,0.0,0.0,0.0,0.0,0.0,0.0,0.5425,0.6388,0.6301,0.6325,0.7566,0.6464,0.5275,0.0,0.5815,0.5639,0.4456,0.0,0.0,0.0,0.0,1.0661,1.2509,1.3403,1.3884,1.4234,1.3805,1.3461,1.3461,1.2783,1.2224,1.1831,1.3943,1.5259,1.5363,1.5802,1.5884,0.0,0.0,0.0,0.0,0.0,0.0,0.0,0.0,0.0,0.0,0.0,0.0,0.0,0.0,0.0,0.0,0.0,0.0,0.0,0.0,0.0,0.0,0.0,0.0,0.0,0.0,0.0,0.0,0.0,-0.8375,-0.9325,0.0,0.0,0.0,0.0,0.0,0.0,0.0,0.0,0.0,0.0,0.0,0.0,0.0,-1.0501,-1.1082,-1.1495,-1.1938,-1.2361,-1.2614,-1.2935,-1.3157,-1.0933,-0.9462,-0.8506,-0.5933,0.0,-0.4572,-0.3101,0.0,0.0,0.0,0.0,0.0,0.0,0.0,0.0,0.0,0.0,0.0,0.0,0.0,0.0,0.0,0.0,0.0,0.0,0.0,0.0,0.0,0.0,0.5062,0.5393,0.5901,0.6389,0.0,0.5072,0.3549,0.375,0.3785,0.0,0.0,0.0,0.0,0.0,0.0,0.0,1.1032,1.2537,1.3495,1.3706,1.3798,1.3792,1.3792,1.3245,1.2915,1.2839,1.4195,1.4861,1.4403,1.5237,0.0,0.0,0.0,0.0,0.0,0.0,0.0,0.0,0.0,0.0,0.0,0.0,0.0,0.0,0.0,0.0,0.0,0.0,0.0,0.0,0.0,0.0,0.0,0.0,0.0,0.0,0.0,0.0,0.0,0.0,0.0,0.0,0.0,0.0,0.0,0.0,0.0,0.0,0.0,0.0,0.0,0.0,0.0,0.0,0.0,0.0,0.0,0.0,0.0,0.0,-1.0501,-1.0596,-1.0985,-1.0253,-0.9496,-0.873,-0.5922,-0.4066,-0.2883,-0.2331,0.0,0.0,0.0,0.0,0.0,0.0,0.0,0.0,0.0,0.0,0.0,0.0,0.0,0.0,0.0,0.0,0.0,0.0,0.0,0.0,0.0,0.0,0.0,0.0,0.414,0.4825,0.0,0.0,0.0,0.0,0.0,0.0,0.0,0.0,0.0,0.0,0.0,0.0,0.8979,1.051,1.1921,1.3178,1.3626,1.3792,1.3792,1.3638,1.3894,1.4976,1.3912,1.3666,0.0,0.0,0.0,0.0,0.0,0.0,0.0,0.0,0.0,0.0,0.0,0.0,0.0,0.0,0.0,0.0,0.0,0.0,0.0,0.0,0.0,0.0,0.0,0.0,0.0,0.0,0.0,0.0,0.0,0.0,0.0,0.0,0.0,0.0,0.0,0.0,0.0,0.0,0.0,0.0,0.0,0.0,0.0,0.0,0.0,0.0,0.0,0.0,0.0,0.0,0.0,0.0,0.0,0.0,0.0,0.0,0.0,0.0,0.0,-0.3929,0.0,0.0,0.0,0.0,0.0,0.0,0.0,0.0,0.0,0.0,0.0,0.0,0.0,0.0,0.0,0.0,0.0,0.0,0.0,0.0,0.0,0.0,0.0,0.0,0.0,0.0,0.0,0.0,0.0,0.0,0.0,0.0,0.0,0.0,0.0,0.0,0.0,0.0,0.0,0.0,0.7829,0.9691,1.1364,1.265,1.3362,1.3733,1.3595,1.4066,1.4065,1.3244,1.3566,0.0,0.0,0.0,0.0,0.0,0.0,0.0,0.0,0.0,0.0,0.0,0.0,0.0,0.0,0.0,0.0,0.0,0.0,0.0,0.0,0.0,0.0,0.0,0.0,0.0,0.0,0.0,0.0,0.0,0.0,0.0,0.0,0.0,0.0,0.0,0.0,0.0,0.0,0.0,0.0,0.0,0.0,0.0,0.0,0.0,0.0,0.0,0.0,0.0,0.0,0.0,0.0,0.0,0.0,0.0,0.0,0.0,0.0,0.0,-0.4152,0.0,0.0,0.0,0.0,0.0,0.0,0.0,0.0,0.0,0.0,0.0,0.0,0.0,0.0,0.0,0.0,0.0,0.0,0.0,0.0,0.0,0.0,0.0,0.0,0.0,0.0,0.0,0.0,0.0,0.0,0.0,0.0,0.0,0.0,0.0,0.0,0.0,0.0,0.0,0.0,0.0,0.6783,0.906,1.0968,1.2037,1.3104,1.368,1.3412,1.458,1.4405,1.2023,1.328,0.0,0.0,0.0,0.0,0.0,0.0,0.0,0.0,0.0,0.0,0.0,0.0,0.0,0.0,0.0,0.0,0.0,0.0,0.0,0.0,0.0,0.0,0.0,0.0,0.0,0.0,0.0,0.0,0.0,0.0,0.0,0.0,0.0,0.0,0.0,0.0,0.0,0.0,0.0,0.0,0.0,0.0,0.0,0.0,0.0,0.0,0.0,0.0,0.0,0.0,0.0,0.0,0.0,0.0,0.0,0.0,0.0,0.0,0.0,0.0,0.0,0.0,0.0,0.0,0.0,0.0,0.0,0.0,0.0,0.0,0.0,0.0,0.0,0.0,0.0,0.0,0.0,0.0,0.0,0.0,0.0,0.0,0.0,0.0,0.0,0.0,0.0,0.0,0.0,0.0,0.0,0.0,0.0,0.0,0.0,0.0,0.0,0.0,0.0,0.0,0.0,0.5416,0.7913,0.9961,1.107,1.276,1.368,1.3412,1.5017,1.5574,1.4476,0.0,0.0,0.0,0.0,0.0,0.0,0.0,0.0,0.0,0.0,0.0,0.0,0.0,0.0,0.0,0.0,0.0,0.0,0.0,0.0,0.0,0.0,0.0,0.0,0.0,0.0,0.0,0.0,0.0,0.0,0.0,0.0,0.0,0.0,0.0,0.0,0.0,0.0,0.0,0.0,0.0,0.0,0.0,0.0,0.0,0.0,0.0,0.0,0.0,0.0,0.0,0.0,0.0,0.0,0.0,0.0,0.0,0.0,0.0,0.0,0.0,0.0,0.0,0.0,0.0,0.0,0.0,0.0,0.0,0.0,0.0,0.0,0.0,0.0,0.0,0.0,0.0,0.0,0.0,0.0,0.0,0.0,0.0,0.0,0.0,0.0,0.0,0.0,0.0,0.0,0.0,0.0,0.0,0.0,0.0,0.0,0.0,0.0,0.0,0.0,0.0,0.0,0.4833,0.7759,1.0023,1.0984,1.2674,1.3947,1.4213,1.5714,1.5509,1.3066,0.0,0.0,0.0,0.0,0.0,0.0,0.0,0.0,0.0,0.0,0.0,0.0,0.0,0.0,0.0,0.0,0.0,0.0,0.0,0.0,0.0,0.0,0.0,0.0,0.0,0.0,0.0,0.0,0.0,0.0,0.0,0.0,0.0,0.0,0.0,0.0,0.0,0.0,0.0,0.0,0.0,0.0,0.0,0.0,0.0,0.0,0.0,0.0,0.0,0.0,0.0,0.0,0.0,0.0,0.0,0.0,0.0,0.0,0.0,0.0,0.0,0.0,0.0,0.0,0.0,0.0,0.0,0.0,0.0,0.0,0.0,0.0,0.0,0.0,0.0,0.0,0.0,0.0,0.0,0.0,0.0,0.0,0.0,0.0,0.0,0.0,0.0,0.0,0.0,0.0,0.0,0.0,0.0,0.0,0.0,0.0,0.0,0.0,0.0,0.0,0.0,0.0,0.4252,0.7288,0.9694,1.0554,1.2582,1.4069,1.4753,1.6157,1.559,1.2371,0.0,0.0,0.0,0.0,0.0,0.0,0.0,0.0,0.0,0.0,0.0,0.0,0.0,0.0,0.0,0.0,0.0,0.0,0.0,0.0,0.0,0.0,0.0,0.0,0.0,0.0,0.0,0.0,0.0,0.0,0.0,0.0,0.0,0.0,0.0,0.0,0.0,0.0,0.0,0.0,0.0,0.0,0.0,0.0,0.0,0.0,0.0,0.0,0.0,0.0,0.0,0.0,0.0,0.0,0.0,0.0,0.0,0.0,0.0,0.0,0.0,0.0,0.0,0.0,0.0,0.0,0.0,0.0,0.0,0.0,0.0,0.0,0.0,0.0,0.0,0.0,0.0,0.0,0.0,0.0,0.0,0.0,0.0,0.0,0.0,0.0,0.0,0.0,0.0,0.0,0.0,0.0,0.0,0.0,0.0,0.0,0.0,0.0,0.0,0.0,0.0,0.0,0.3387,0.6273,0.8609,0.9607,1.2152,1.4069,1.4753,1.6218,1.6056,0.0,0.0,0.0,0.0,0.0,0.0,0.0,0.0,0.0,0.0,0.0,0.0,0.0,0.0,0.0,0.0,0.0,0.0,0.0,0.0,0.0,0.0,0.0,0.0,0.0,0.0,0.0,0.0,0.0,0.0,0.0,0.0,0.0,0.0,0.0,0.0,0.0,0.0,0.0,0.0,0.0,0.0,0.0,0.0,0.0,0.0,0.0,0.0,0.0,0.0,0.0,0.0,0.0,0.0,0.0,0.0,0.0,0.0,0.0,0.0,0.0,0.0,0.0,0.0,0.0,0.0,0.0,0.0,0.0,0.0,0.0,0.0,0.0,0.0,0.0,0.0,0.0,0.0,0.0,0.0,0.0,0.0,0.0,0.0,0.0,0.0,0.0,0.0,0.0,0.0,0.0,0.0,0.0,0.0,0.0,0.0,0.0,0.0,0.0,0.0,0.0,0.0,0.0,0.2067,0.6158,0.9036,0.0,1.2152,1.4995,1.6662,1.7055,1.6734,1.5585,0.0,0.0,0.0,0.0,0.0,0.0,0.0,0.0,0.0,0.0,0.0,0.0,0.0,0.0,0.0,0.0,0.0,0.0,0.0,0.0,0.0,0.0,0.0,0.0,0.0,0.0,0.0,0.0,0.0,0.0,0.0,0.0,0.0,0.0,0.0,0.0,0.0,0.0,0.0,0.0,0.0,0.0,0.0,0.0,0.0,0.0,0.0,0.0,0.0,0.0,0.0,0.0,0.0,0.0,0.0,0.0,0.0,0.0,0.0,0.0,0.0,0.0,0.0,0.0,0.0,0.0,0.0,0.0,0.0,0.0,0.0,0.0,0.0,0.0,0.0,0.0,0.0,0.0,0.0,0.0,0.0,0.0,0.0,0.0,0.0,0.0,0.0,0.0,0.0,0.0,0.0,0.0,0.0,0.0,0.0,0.0,0.0,0.0,0.0,0.0,0.0,0.0,0.0,0.4989,0.7746,0.0,1.1326,1.4434,1.7681,1.7654,1.7264,1.6829,0.0,0.0,0.0,0.0,0.0,0.0,0.0,0.0,0.0,0.0,0.0,0.0,0.0,0.0,0.0,0.0,0.0,0.0,0.0,0.0,0.0,0.0,0.0,0.0,0.0,0.0,0.0,0.0,0.0,0.0,0.0,0.0,0.0,0.0,0.0,0.0,0.0,0.0,0.0,0.0,0.0,0.0,0.0,0.0,0.0,0.0,0.0,0.0,0.0,0.0,0.0,0.0,0.0,0.0,0.0,0.0,0.0,0.0,0.0,0.0,0.0,0.0,0.0,0.0,0.0,0.0,0.0,0.0,0.0,0.0,0.0,0.0,0.0,0.0,0.0,0.0,0.0,0.0,0.0,0.0,0.0,0.0,0.0,0.0,0.0,0.0,0.0,0.0,0.0,0.0,0.0,0.0,0.0,0.0,0.0,0.0,0.0,0.0,0.0,0.0,0.0,0.0,0.0,0.3033,0.5385,0.8474,1.0006,1.2879,1.8131,1.8065,1.7641,1.7374,1.6269,0.0,0.0,0.0,0.0,0.0,0.0,0.0,0.0,0.0,0.0,0.0,0.0,0.0,0.0,0.0,0.0,0.0,0.0,0.0,0.0,0.0,0.0,0.0,0.0,0.0,0.0,0.0,0.0,0.0,0.0,0.0,0.0,0.0,0.0,0.0,0.0,0.0,0.0,0.0,0.0,0.0,0.0,0.0,0.0,0.0,0.0,0.0,0.0,0.0,0.0,0.0,0.0,0.0,0.0,0.0,0.0,0.0,0.0,0.0,0.0,0.0,0.0,0.0,0.0,0.0,0.0,0.0,0.0,0.0,0.0,0.0,0.0,0.0,0.0,0.0,0.0,0.0,0.0,0.0,0.0,0.0,0.0,0.0,0.0,0.0,0.0,0.0,0.0,0.0,0.0,0.0,0.0,0.0,0.0,0.0,0.0,0.0,0.0,0.0,0.0,0.0,0.0,0.3142,0.5542,0.7661,1.0168,1.3784,1.8904,1.8856,1.8419,1.8085,1.6855,0.0,0.0,0.0,0.0,0.0,0.0,0.0,0.0,0.0,0.0,0.0,0.0,0.0,0.0,0.0,0.0,0.0,0.0,0.0,0.0,0.0,0.0,0.0,0.0,0.0,0.0,0.0,0.0,0.0,0.0,0.0,0.0,0.0,0.0,0.0,0.0,0.0,0.0,0.0,0.0,0.0,0.0,0.0,0.0,0.0,0.0,0.0,0.0,0.0,0.0,0.0,0.0,0.0,0.0,0.0,0.0,0.0,0.0,0.0,0.0,0.0,0.0,0.0,0.0,0.0,0.0,0.0,0.0,0.0,0.0,0.0,0.0,0.0,0.0,0.0,0.0,0.0,0.0,0.0,0.0,0.0,0.0,0.0,0.0,0.0,0.0,0.0,0.0,0.0,0.0,0.0,0.0,0.0,0.0,0.0,0.0,0.0,0.0,0.0,0.0,0.0,0.0,0.1461,0.3647,0.7224,0.9185,1.2882,1.9348,1.933,1.8803,1.8571,1.7699,0.0,0.0,0.0,0.0,0.0,0.0,0.0,0.0,0.0,0.0,0.0,0.0,0.0,0.0,0.0,0.0,0.0,0.0,0.0,0.0,0.0,0.0,0.0,0.0,0.0,0.0,0.0,0.0,0.0,0.0,0.0,0.0,0.0,0.0,0.0,0.0,0.0,0.0,0.0,0.0,0.0,0.0,0.0,0.0,0.0,0.0,0.0,0.0,0.0,0.0,0.0,0.0,0.0,0.0,0.0,0.0,0.0,0.0,0.0,0.0,0.0,0.0,0.0,0.0,0.0,0.0,0.0,0.0,0.0,0.0,0.0,0.0,0.0,0.0,0.0,0.0,0.0,0.0,0.0,0.0,0.0,0.0,0.0,0.0,0.0,0.0,0.0,0.0,0.0,0.0,0.0,0.0,0.0,0.0,0.0,0.0,0.0,0.0,0.0,0.0,0.0,0.0,0.0,0.1265,0.6068,0.7527,1.1433,1.9455,1.9561,1.8961,1.8581,0.0,0.0,0.0,0.0,0.0,0.0,0.0,0.0,0.0,0.0,0.0,0.0,0.0,0.0,0.0,0.0,0.0,0.0,0.0,0.0,0.0,0.0,0.0,0.0,0.0,0.0,0.0,0.0,0.0,0.0,0.0,0.0,0.0,0.0,0.0,0.0,0.0,0.0,0.0,0.0,0.0,0.0,0.0,0.0,0.0,0.0,0.0,0.0,0.0,0.0,0.0,0.0,0.0,0.0,0.0,0.0,0.0,0.0,0.0,0.0,0.0,0.0,0.0,0.0,0.0,0.0,0.0,0.0,0.0,0.0,0.0,0.0,0.0,0.0,0.0,0.0,0.0,0.0,0.0,0.0,0.0,0.0,0.0,0.0,0.0,0.0,0.0,0.0,0.0,0.0,0.0,0.0,0.0,0.0,0.0,0.0,0.0,0.0,0.0,0.0,0.0,0.0,0.0,0.0,0.0,0.1744,0.5513,1.1242,1.9226,1.9636,1.8876,1.7318,0.0,0.0,0.0,0.0,0.0,0.0,0.0,0.0,0.0,0.0,0.0,0.0,0.0,0.0]}]]]